<?xml version="1.0" encoding="UTF-8" standalone="no" ?>
<gpx xmlns="http://www.topografix.com/GPX/1/1" xmlns:xsi="http://www.w3.org/2001/XMLSchema-instance" xsi:schemaLocation="http://www.topografix.com/GPX/1/1 http://www.topografix.com/GPX/1/1/gpx.xsd" version="1.1" creator="VisuGPX - https://www.visugpx.com">
  <metadata>
    <name>201025-Etoile-VTTAE</name>
    <desc><![CDATA[Grottes Loubière, Oasis, col Ste-Anne, tête du Gd Puech, Moure, Débite, Montade]]></desc>
  </metadata>
  <trk>
    <name><![CDATA[201025-Etoile-VTTAE]]></name>
    <trkseg>
      <trkpt lat="43.35168" lon="5.44458">
        <ele>132.83</ele>
        <time>2020-10-25T07:26:00Z</time>
      </trkpt>
      <trkpt lat="43.35188" lon="5.44448">
        <ele>145.01</ele>
        <time>2020-10-25T07:26:23Z</time>
      </trkpt>
      <trkpt lat="43.35206" lon="5.44436">
        <ele>145.15</ele>
        <time>2020-10-25T07:26:29Z</time>
      </trkpt>
      <trkpt lat="43.3522" lon="5.44417">
        <ele>146.06</ele>
        <time>2020-10-25T07:26:34Z</time>
      </trkpt>
      <trkpt lat="43.3521" lon="5.44396">
        <ele>145.79</ele>
        <time>2020-10-25T07:26:37Z</time>
      </trkpt>
      <trkpt lat="43.35197" lon="5.44378">
        <ele>145.11</ele>
        <time>2020-10-25T07:26:40Z</time>
      </trkpt>
      <trkpt lat="43.35187" lon="5.44356">
        <ele>144.31</ele>
        <time>2020-10-25T07:26:43Z</time>
      </trkpt>
      <trkpt lat="43.35177" lon="5.44331">
        <ele>143.66</ele>
        <time>2020-10-25T07:26:46Z</time>
      </trkpt>
      <trkpt lat="43.35166" lon="5.44309">
        <ele>143.4</ele>
        <time>2020-10-25T07:26:49Z</time>
      </trkpt>
      <trkpt lat="43.35159" lon="5.44279">
        <ele>143.53</ele>
        <time>2020-10-25T07:26:53Z</time>
      </trkpt>
      <trkpt lat="43.35163" lon="5.44246">
        <ele>143.98</ele>
        <time>2020-10-25T07:26:57Z</time>
      </trkpt>
      <trkpt lat="43.35173" lon="5.44214">
        <ele>144.57</ele>
        <time>2020-10-25T07:27:01Z</time>
      </trkpt>
      <trkpt lat="43.35185" lon="5.44186">
        <ele>145.66</ele>
        <time>2020-10-25T07:27:05Z</time>
      </trkpt>
      <trkpt lat="43.35195" lon="5.44161">
        <ele>146.69</ele>
        <time>2020-10-25T07:27:09Z</time>
      </trkpt>
      <trkpt lat="43.35201" lon="5.44137">
        <ele>148.08</ele>
        <time>2020-10-25T07:27:13Z</time>
      </trkpt>
      <trkpt lat="43.35212" lon="5.44112">
        <ele>149.65</ele>
        <time>2020-10-25T07:27:17Z</time>
      </trkpt>
      <trkpt lat="43.35222" lon="5.44088">
        <ele>151.07</ele>
        <time>2020-10-25T07:27:21Z</time>
      </trkpt>
      <trkpt lat="43.35233" lon="5.44067">
        <ele>152.31</ele>
        <time>2020-10-25T07:27:25Z</time>
      </trkpt>
      <trkpt lat="43.35234" lon="5.44041">
        <ele>153.4</ele>
        <time>2020-10-25T07:27:29Z</time>
      </trkpt>
      <trkpt lat="43.35225" lon="5.44019">
        <ele>154.23</ele>
        <time>2020-10-25T07:27:33Z</time>
      </trkpt>
      <trkpt lat="43.35222" lon="5.43993">
        <ele>155.04</ele>
        <time>2020-10-25T07:27:37Z</time>
      </trkpt>
      <trkpt lat="43.3524" lon="5.43975">
        <ele>156</ele>
        <time>2020-10-25T07:27:43Z</time>
      </trkpt>
      <trkpt lat="43.35257" lon="5.43961">
        <ele>156.36</ele>
        <time>2020-10-25T07:27:47Z</time>
      </trkpt>
      <trkpt lat="43.35274" lon="5.43941">
        <ele>156.16</ele>
        <time>2020-10-25T07:27:51Z</time>
      </trkpt>
      <trkpt lat="43.3528" lon="5.43913">
        <ele>154.68</ele>
        <time>2020-10-25T07:27:54Z</time>
      </trkpt>
      <trkpt lat="43.35286" lon="5.43879">
        <ele>152.21</ele>
        <time>2020-10-25T07:27:57Z</time>
      </trkpt>
      <trkpt lat="43.35297" lon="5.43844">
        <ele>150.19</ele>
        <time>2020-10-25T07:28:00Z</time>
      </trkpt>
      <trkpt lat="43.35307" lon="5.43816">
        <ele>148.15</ele>
        <time>2020-10-25T07:28:03Z</time>
      </trkpt>
      <trkpt lat="43.35297" lon="5.43793">
        <ele>146.73</ele>
        <time>2020-10-25T07:28:10Z</time>
      </trkpt>
      <trkpt lat="43.35277" lon="5.43785">
        <ele>145.77</ele>
        <time>2020-10-25T07:28:13Z</time>
      </trkpt>
      <trkpt lat="43.35257" lon="5.43776">
        <ele>144.59</ele>
        <time>2020-10-25T07:28:16Z</time>
      </trkpt>
      <trkpt lat="43.35235" lon="5.43765">
        <ele>144.21</ele>
        <time>2020-10-25T07:28:20Z</time>
      </trkpt>
      <trkpt lat="43.35214" lon="5.43754">
        <ele>144.01</ele>
        <time>2020-10-25T07:28:24Z</time>
      </trkpt>
      <trkpt lat="43.35212" lon="5.43724">
        <ele>142.57</ele>
        <time>2020-10-25T07:28:28Z</time>
      </trkpt>
      <trkpt lat="43.35213" lon="5.43692">
        <ele>141.65</ele>
        <time>2020-10-25T07:28:31Z</time>
      </trkpt>
      <trkpt lat="43.35212" lon="5.43661">
        <ele>140.62</ele>
        <time>2020-10-25T07:28:34Z</time>
      </trkpt>
      <trkpt lat="43.35207" lon="5.43631">
        <ele>140.59</ele>
        <time>2020-10-25T07:28:37Z</time>
      </trkpt>
      <trkpt lat="43.352" lon="5.43603">
        <ele>140.91</ele>
        <time>2020-10-25T07:28:40Z</time>
      </trkpt>
      <trkpt lat="43.35197" lon="5.43576">
        <ele>141</ele>
        <time>2020-10-25T07:28:43Z</time>
      </trkpt>
      <trkpt lat="43.35194" lon="5.43551">
        <ele>141.29</ele>
        <time>2020-10-25T07:28:46Z</time>
      </trkpt>
      <trkpt lat="43.35194" lon="5.43526">
        <ele>141.33</ele>
        <time>2020-10-25T07:28:49Z</time>
      </trkpt>
      <trkpt lat="43.35194" lon="5.435">
        <ele>141.69</ele>
        <time>2020-10-25T07:28:52Z</time>
      </trkpt>
      <trkpt lat="43.35193" lon="5.43468">
        <ele>142.16</ele>
        <time>2020-10-25T07:28:56Z</time>
      </trkpt>
      <trkpt lat="43.3519" lon="5.4344">
        <ele>142.05</ele>
        <time>2020-10-25T07:28:59Z</time>
      </trkpt>
      <trkpt lat="43.35186" lon="5.43415">
        <ele>141.97</ele>
        <time>2020-10-25T07:29:02Z</time>
      </trkpt>
      <trkpt lat="43.35181" lon="5.43388">
        <ele>142.01</ele>
        <time>2020-10-25T07:29:05Z</time>
      </trkpt>
      <trkpt lat="43.35178" lon="5.43361">
        <ele>142.5</ele>
        <time>2020-10-25T07:29:10Z</time>
      </trkpt>
      <trkpt lat="43.3519" lon="5.43342">
        <ele>143.4</ele>
        <time>2020-10-25T07:29:14Z</time>
      </trkpt>
      <trkpt lat="43.35199" lon="5.43315">
        <ele>144.01</ele>
        <time>2020-10-25T07:29:19Z</time>
      </trkpt>
      <trkpt lat="43.35206" lon="5.43292">
        <ele>144.56</ele>
        <time>2020-10-25T07:29:23Z</time>
      </trkpt>
      <trkpt lat="43.35215" lon="5.43269">
        <ele>145.28</ele>
        <time>2020-10-25T07:29:27Z</time>
      </trkpt>
      <trkpt lat="43.35227" lon="5.43249">
        <ele>146.18</ele>
        <time>2020-10-25T07:29:31Z</time>
      </trkpt>
      <trkpt lat="43.35241" lon="5.43228">
        <ele>147.16</ele>
        <time>2020-10-25T07:29:35Z</time>
      </trkpt>
      <trkpt lat="43.35256" lon="5.43206">
        <ele>148.95</ele>
        <time>2020-10-25T07:29:40Z</time>
      </trkpt>
      <trkpt lat="43.35271" lon="5.43183">
        <ele>149.97</ele>
        <time>2020-10-25T07:29:45Z</time>
      </trkpt>
      <trkpt lat="43.35287" lon="5.43161">
        <ele>150.87</ele>
        <time>2020-10-25T07:29:50Z</time>
      </trkpt>
      <trkpt lat="43.35299" lon="5.43142">
        <ele>151.85</ele>
        <time>2020-10-25T07:29:54Z</time>
      </trkpt>
      <trkpt lat="43.35312" lon="5.43124">
        <ele>152.59</ele>
        <time>2020-10-25T07:29:58Z</time>
      </trkpt>
      <trkpt lat="43.35326" lon="5.43105">
        <ele>153.16</ele>
        <time>2020-10-25T07:30:02Z</time>
      </trkpt>
      <trkpt lat="43.3534" lon="5.43087">
        <ele>154.26</ele>
        <time>2020-10-25T07:30:06Z</time>
      </trkpt>
      <trkpt lat="43.35356" lon="5.4307">
        <ele>156.38</ele>
        <time>2020-10-25T07:30:11Z</time>
      </trkpt>
      <trkpt lat="43.35371" lon="5.43057">
        <ele>158.34</ele>
        <time>2020-10-25T07:30:16Z</time>
      </trkpt>
      <trkpt lat="43.35384" lon="5.43036">
        <ele>159.4</ele>
        <time>2020-10-25T07:30:21Z</time>
      </trkpt>
      <trkpt lat="43.35394" lon="5.43012">
        <ele>160.3</ele>
        <time>2020-10-25T07:30:26Z</time>
      </trkpt>
      <trkpt lat="43.35397" lon="5.42984">
        <ele>161.15</ele>
        <time>2020-10-25T07:30:31Z</time>
      </trkpt>
      <trkpt lat="43.35397" lon="5.42955">
        <ele>162.18</ele>
        <time>2020-10-25T07:30:36Z</time>
      </trkpt>
      <trkpt lat="43.35406" lon="5.42933">
        <ele>163.84</ele>
        <time>2020-10-25T07:30:42Z</time>
      </trkpt>
      <trkpt lat="43.35417" lon="5.42909">
        <ele>166.01</ele>
        <time>2020-10-25T07:30:49Z</time>
      </trkpt>
      <trkpt lat="43.35425" lon="5.42887">
        <ele>167.62</ele>
        <time>2020-10-25T07:30:55Z</time>
      </trkpt>
      <trkpt lat="43.35434" lon="5.42863">
        <ele>169.59</ele>
        <time>2020-10-25T07:31:02Z</time>
      </trkpt>
      <trkpt lat="43.35441" lon="5.42839">
        <ele>171.18</ele>
        <time>2020-10-25T07:31:08Z</time>
      </trkpt>
      <trkpt lat="43.35449" lon="5.42815">
        <ele>173.13</ele>
        <time>2020-10-25T07:31:15Z</time>
      </trkpt>
      <trkpt lat="43.35447" lon="5.42786">
        <ele>172.08</ele>
        <time>2020-10-25T07:31:20Z</time>
      </trkpt>
      <trkpt lat="43.35444" lon="5.42758">
        <ele>171.16</ele>
        <time>2020-10-25T07:31:24Z</time>
      </trkpt>
      <trkpt lat="43.35441" lon="5.4273">
        <ele>171.34</ele>
        <time>2020-10-25T07:31:29Z</time>
      </trkpt>
      <trkpt lat="43.35451" lon="5.42703">
        <ele>170.69</ele>
        <time>2020-10-25T07:31:34Z</time>
      </trkpt>
      <trkpt lat="43.35462" lon="5.42679">
        <ele>170.41</ele>
        <time>2020-10-25T07:31:38Z</time>
      </trkpt>
      <trkpt lat="43.3548" lon="5.42659">
        <ele>169.82</ele>
        <time>2020-10-25T07:31:42Z</time>
      </trkpt>
      <trkpt lat="43.35496" lon="5.42641">
        <ele>168.71</ele>
        <time>2020-10-25T07:31:45Z</time>
      </trkpt>
      <trkpt lat="43.35512" lon="5.42615">
        <ele>167.27</ele>
        <time>2020-10-25T07:31:48Z</time>
      </trkpt>
      <trkpt lat="43.35522" lon="5.42587">
        <ele>167.04</ele>
        <time>2020-10-25T07:31:51Z</time>
      </trkpt>
      <trkpt lat="43.35533" lon="5.42563">
        <ele>166.89</ele>
        <time>2020-10-25T07:31:54Z</time>
      </trkpt>
      <trkpt lat="43.35549" lon="5.42541">
        <ele>167.77</ele>
        <time>2020-10-25T07:31:58Z</time>
      </trkpt>
      <trkpt lat="43.35563" lon="5.42517">
        <ele>168.66</ele>
        <time>2020-10-25T07:32:02Z</time>
      </trkpt>
      <trkpt lat="43.35576" lon="5.42494">
        <ele>171.25</ele>
        <time>2020-10-25T07:32:07Z</time>
      </trkpt>
      <trkpt lat="43.35585" lon="5.4247">
        <ele>172.99</ele>
        <time>2020-10-25T07:32:12Z</time>
      </trkpt>
      <trkpt lat="43.35593" lon="5.42445">
        <ele>174.24</ele>
        <time>2020-10-25T07:32:17Z</time>
      </trkpt>
      <trkpt lat="43.35602" lon="5.42421">
        <ele>175.05</ele>
        <time>2020-10-25T07:32:22Z</time>
      </trkpt>
      <trkpt lat="43.3561" lon="5.42396">
        <ele>175.97</ele>
        <time>2020-10-25T07:32:27Z</time>
      </trkpt>
      <trkpt lat="43.35618" lon="5.42371">
        <ele>176.97</ele>
        <time>2020-10-25T07:32:32Z</time>
      </trkpt>
      <trkpt lat="43.35627" lon="5.42348">
        <ele>178.18</ele>
        <time>2020-10-25T07:32:37Z</time>
      </trkpt>
      <trkpt lat="43.35635" lon="5.42325">
        <ele>179.58</ele>
        <time>2020-10-25T07:32:42Z</time>
      </trkpt>
      <trkpt lat="43.35645" lon="5.42301">
        <ele>181.33</ele>
        <time>2020-10-25T07:32:48Z</time>
      </trkpt>
      <trkpt lat="43.35657" lon="5.42282">
        <ele>183.05</ele>
        <time>2020-10-25T07:32:54Z</time>
      </trkpt>
      <trkpt lat="43.35674" lon="5.42295">
        <ele>183.16</ele>
        <time>2020-10-25T07:32:58Z</time>
      </trkpt>
      <trkpt lat="43.35694" lon="5.42306">
        <ele>182.81</ele>
        <time>2020-10-25T07:33:02Z</time>
      </trkpt>
      <trkpt lat="43.35716" lon="5.42311">
        <ele>182.41</ele>
        <time>2020-10-25T07:33:06Z</time>
      </trkpt>
      <trkpt lat="43.35735" lon="5.42318">
        <ele>182.19</ele>
        <time>2020-10-25T07:33:10Z</time>
      </trkpt>
      <trkpt lat="43.35752" lon="5.42306">
        <ele>182.25</ele>
        <time>2020-10-25T07:33:14Z</time>
      </trkpt>
      <trkpt lat="43.35768" lon="5.42288">
        <ele>182.71</ele>
        <time>2020-10-25T07:33:21Z</time>
      </trkpt>
      <trkpt lat="43.35782" lon="5.42271">
        <ele>183.46</ele>
        <time>2020-10-25T07:33:25Z</time>
      </trkpt>
      <trkpt lat="43.35793" lon="5.42249">
        <ele>184.54</ele>
        <time>2020-10-25T07:33:30Z</time>
      </trkpt>
      <trkpt lat="43.35811" lon="5.42234">
        <ele>185.47</ele>
        <time>2020-10-25T07:33:36Z</time>
      </trkpt>
      <trkpt lat="43.35827" lon="5.42213">
        <ele>186.26</ele>
        <time>2020-10-25T07:33:41Z</time>
      </trkpt>
      <trkpt lat="43.35836" lon="5.42188">
        <ele>187.12</ele>
        <time>2020-10-25T07:33:46Z</time>
      </trkpt>
      <trkpt lat="43.35843" lon="5.42163">
        <ele>188.6</ele>
        <time>2020-10-25T07:33:51Z</time>
      </trkpt>
      <trkpt lat="43.35859" lon="5.42145">
        <ele>189.49</ele>
        <time>2020-10-25T07:33:56Z</time>
      </trkpt>
      <trkpt lat="43.35877" lon="5.42137">
        <ele>190.4</ele>
        <time>2020-10-25T07:34:01Z</time>
      </trkpt>
      <trkpt lat="43.35894" lon="5.42122">
        <ele>191.44</ele>
        <time>2020-10-25T07:34:07Z</time>
      </trkpt>
      <trkpt lat="43.35906" lon="5.42101">
        <ele>192.86</ele>
        <time>2020-10-25T07:34:13Z</time>
      </trkpt>
      <trkpt lat="43.35921" lon="5.42081">
        <ele>194.15</ele>
        <time>2020-10-25T07:34:19Z</time>
      </trkpt>
      <trkpt lat="43.35938" lon="5.42065">
        <ele>195.24</ele>
        <time>2020-10-25T07:34:25Z</time>
      </trkpt>
      <trkpt lat="43.35957" lon="5.42055">
        <ele>196.6</ele>
        <time>2020-10-25T07:34:31Z</time>
      </trkpt>
      <trkpt lat="43.35973" lon="5.42039">
        <ele>197.29</ele>
        <time>2020-10-25T07:34:37Z</time>
      </trkpt>
      <trkpt lat="43.35991" lon="5.42028">
        <ele>198.19</ele>
        <time>2020-10-25T07:34:43Z</time>
      </trkpt>
      <trkpt lat="43.3601" lon="5.42036">
        <ele>199.44</ele>
        <time>2020-10-25T07:34:49Z</time>
      </trkpt>
      <trkpt lat="43.36028" lon="5.42027">
        <ele>200.36</ele>
        <time>2020-10-25T07:34:55Z</time>
      </trkpt>
      <trkpt lat="43.36044" lon="5.42011">
        <ele>201.3</ele>
        <time>2020-10-25T07:35:01Z</time>
      </trkpt>
      <trkpt lat="43.36063" lon="5.42011">
        <ele>202.75</ele>
        <time>2020-10-25T07:35:07Z</time>
      </trkpt>
      <trkpt lat="43.36082" lon="5.42005">
        <ele>204</ele>
        <time>2020-10-25T07:35:13Z</time>
      </trkpt>
      <trkpt lat="43.36102" lon="5.42001">
        <ele>205.11</ele>
        <time>2020-10-25T07:35:19Z</time>
      </trkpt>
      <trkpt lat="43.36117" lon="5.42018">
        <ele>206.25</ele>
        <time>2020-10-25T07:35:25Z</time>
      </trkpt>
      <trkpt lat="43.36136" lon="5.42025">
        <ele>207.31</ele>
        <time>2020-10-25T07:35:32Z</time>
      </trkpt>
      <trkpt lat="43.36154" lon="5.42012">
        <ele>208.3</ele>
        <time>2020-10-25T07:35:38Z</time>
      </trkpt>
      <trkpt lat="43.36173" lon="5.4201">
        <ele>208.99</ele>
        <time>2020-10-25T07:35:44Z</time>
      </trkpt>
      <trkpt lat="43.36191" lon="5.42022">
        <ele>210.21</ele>
        <time>2020-10-25T07:35:50Z</time>
      </trkpt>
      <trkpt lat="43.36208" lon="5.42013">
        <ele>211.39</ele>
        <time>2020-10-25T07:35:56Z</time>
      </trkpt>
      <trkpt lat="43.36224" lon="5.41995">
        <ele>212.28</ele>
        <time>2020-10-25T07:36:02Z</time>
      </trkpt>
      <trkpt lat="43.36243" lon="5.41995">
        <ele>213.6</ele>
        <time>2020-10-25T07:36:08Z</time>
      </trkpt>
      <trkpt lat="43.36259" lon="5.42007">
        <ele>215.31</ele>
        <time>2020-10-25T07:36:14Z</time>
      </trkpt>
      <trkpt lat="43.36277" lon="5.41997">
        <ele>216.78</ele>
        <time>2020-10-25T07:36:23Z</time>
      </trkpt>
      <trkpt lat="43.36284" lon="5.41972">
        <ele>218.2</ele>
        <time>2020-10-25T07:36:30Z</time>
      </trkpt>
      <trkpt lat="43.36302" lon="5.4196">
        <ele>219.12</ele>
        <time>2020-10-25T07:36:38Z</time>
      </trkpt>
      <trkpt lat="43.36322" lon="5.41967">
        <ele>220.87</ele>
        <time>2020-10-25T07:36:46Z</time>
      </trkpt>
      <trkpt lat="43.36338" lon="5.41951">
        <ele>222.35</ele>
        <time>2020-10-25T07:36:53Z</time>
      </trkpt>
      <trkpt lat="43.36349" lon="5.41931">
        <ele>224.04</ele>
        <time>2020-10-25T07:37:00Z</time>
      </trkpt>
      <trkpt lat="43.36353" lon="5.41906">
        <ele>225.5</ele>
        <time>2020-10-25T07:37:07Z</time>
      </trkpt>
      <trkpt lat="43.36341" lon="5.41886">
        <ele>226.73</ele>
        <time>2020-10-25T07:37:14Z</time>
      </trkpt>
      <trkpt lat="43.36354" lon="5.41868">
        <ele>227.48</ele>
        <time>2020-10-25T07:37:21Z</time>
      </trkpt>
      <trkpt lat="43.36374" lon="5.41866">
        <ele>229.43</ele>
        <time>2020-10-25T07:37:29Z</time>
      </trkpt>
      <trkpt lat="43.36384" lon="5.41842">
        <ele>231.55</ele>
        <time>2020-10-25T07:37:38Z</time>
      </trkpt>
      <trkpt lat="43.36393" lon="5.41819">
        <ele>232.34</ele>
        <time>2020-10-25T07:37:44Z</time>
      </trkpt>
      <trkpt lat="43.3641" lon="5.41803">
        <ele>233.49</ele>
        <time>2020-10-25T07:37:51Z</time>
      </trkpt>
      <trkpt lat="43.36422" lon="5.41784">
        <ele>234.27</ele>
        <time>2020-10-25T07:37:57Z</time>
      </trkpt>
      <trkpt lat="43.36436" lon="5.41767">
        <ele>235.52</ele>
        <time>2020-10-25T07:38:04Z</time>
      </trkpt>
      <trkpt lat="43.36455" lon="5.41763">
        <ele>236.62</ele>
        <time>2020-10-25T07:38:12Z</time>
      </trkpt>
      <trkpt lat="43.36473" lon="5.4177">
        <ele>237.97</ele>
        <time>2020-10-25T07:38:20Z</time>
      </trkpt>
      <trkpt lat="43.36489" lon="5.41783">
        <ele>239.97</ele>
        <time>2020-10-25T07:38:28Z</time>
      </trkpt>
      <trkpt lat="43.36508" lon="5.4179">
        <ele>241.65</ele>
        <time>2020-10-25T07:38:34Z</time>
      </trkpt>
      <trkpt lat="43.36528" lon="5.4179">
        <ele>243.27</ele>
        <time>2020-10-25T07:38:41Z</time>
      </trkpt>
      <trkpt lat="43.36548" lon="5.4179">
        <ele>244.65</ele>
        <time>2020-10-25T07:38:48Z</time>
      </trkpt>
      <trkpt lat="43.36568" lon="5.41793">
        <ele>245.4</ele>
        <time>2020-10-25T07:38:54Z</time>
      </trkpt>
      <trkpt lat="43.36586" lon="5.41789">
        <ele>246.18</ele>
        <time>2020-10-25T07:39:00Z</time>
      </trkpt>
      <trkpt lat="43.36602" lon="5.41777">
        <ele>248.13</ele>
        <time>2020-10-25T07:39:06Z</time>
      </trkpt>
      <trkpt lat="43.36618" lon="5.4176">
        <ele>250.2</ele>
        <time>2020-10-25T07:39:13Z</time>
      </trkpt>
      <trkpt lat="43.36634" lon="5.41749">
        <ele>252.78</ele>
        <time>2020-10-25T07:39:21Z</time>
      </trkpt>
      <trkpt lat="43.36652" lon="5.41742">
        <ele>254.57</ele>
        <time>2020-10-25T07:39:28Z</time>
      </trkpt>
      <trkpt lat="43.36672" lon="5.41736">
        <ele>254.6</ele>
        <time>2020-10-25T07:39:34Z</time>
      </trkpt>
      <trkpt lat="43.36687" lon="5.41718">
        <ele>256.74</ele>
        <time>2020-10-25T07:39:41Z</time>
      </trkpt>
      <trkpt lat="43.36702" lon="5.41703">
        <ele>260.08</ele>
        <time>2020-10-25T07:39:49Z</time>
      </trkpt>
      <trkpt lat="43.36721" lon="5.41697">
        <ele>262.21</ele>
        <time>2020-10-25T07:39:58Z</time>
      </trkpt>
      <trkpt lat="43.36741" lon="5.41694">
        <ele>265.37</ele>
        <time>2020-10-25T07:40:08Z</time>
      </trkpt>
      <trkpt lat="43.36761" lon="5.41691">
        <ele>268.75</ele>
        <time>2020-10-25T07:40:19Z</time>
      </trkpt>
      <trkpt lat="43.36778" lon="5.41677">
        <ele>270.79</ele>
        <time>2020-10-25T07:40:26Z</time>
      </trkpt>
      <trkpt lat="43.36793" lon="5.41664">
        <ele>273.46</ele>
        <time>2020-10-25T07:40:35Z</time>
      </trkpt>
      <trkpt lat="43.36811" lon="5.41653">
        <ele>275.56</ele>
        <time>2020-10-25T07:40:44Z</time>
      </trkpt>
      <trkpt lat="43.36829" lon="5.41648">
        <ele>277.83</ele>
        <time>2020-10-25T07:40:53Z</time>
      </trkpt>
      <trkpt lat="43.36848" lon="5.41645">
        <ele>280.85</ele>
        <time>2020-10-25T07:41:02Z</time>
      </trkpt>
      <trkpt lat="43.36866" lon="5.41636">
        <ele>283.75</ele>
        <time>2020-10-25T07:41:10Z</time>
      </trkpt>
      <trkpt lat="43.36882" lon="5.41622">
        <ele>285.94</ele>
        <time>2020-10-25T07:41:18Z</time>
      </trkpt>
      <trkpt lat="43.36895" lon="5.41605">
        <ele>287.88</ele>
        <time>2020-10-25T07:41:26Z</time>
      </trkpt>
      <trkpt lat="43.36911" lon="5.41586">
        <ele>290.2</ele>
        <time>2020-10-25T07:41:34Z</time>
      </trkpt>
      <trkpt lat="43.36925" lon="5.41566">
        <ele>292.6</ele>
        <time>2020-10-25T07:41:42Z</time>
      </trkpt>
      <trkpt lat="43.36937" lon="5.41546">
        <ele>295.46</ele>
        <time>2020-10-25T07:41:51Z</time>
      </trkpt>
      <trkpt lat="43.36949" lon="5.41528">
        <ele>297.35</ele>
        <time>2020-10-25T07:41:59Z</time>
      </trkpt>
      <trkpt lat="43.3696" lon="5.41506">
        <ele>299.84</ele>
        <time>2020-10-25T07:42:07Z</time>
      </trkpt>
      <trkpt lat="43.36972" lon="5.41486">
        <ele>300.93</ele>
        <time>2020-10-25T07:42:14Z</time>
      </trkpt>
      <trkpt lat="43.36989" lon="5.41472">
        <ele>302.77</ele>
        <time>2020-10-25T07:42:22Z</time>
      </trkpt>
      <trkpt lat="43.37007" lon="5.41462">
        <ele>304.26</ele>
        <time>2020-10-25T07:42:30Z</time>
      </trkpt>
      <trkpt lat="43.37026" lon="5.4145">
        <ele>306.05</ele>
        <time>2020-10-25T07:42:38Z</time>
      </trkpt>
      <trkpt lat="43.37045" lon="5.41438">
        <ele>306.82</ele>
        <time>2020-10-25T07:42:45Z</time>
      </trkpt>
      <trkpt lat="43.37063" lon="5.41428">
        <ele>308.15</ele>
        <time>2020-10-25T07:42:52Z</time>
      </trkpt>
      <trkpt lat="43.37082" lon="5.41417">
        <ele>309.34</ele>
        <time>2020-10-25T07:42:59Z</time>
      </trkpt>
      <trkpt lat="43.37101" lon="5.41406">
        <ele>310.99</ele>
        <time>2020-10-25T07:43:06Z</time>
      </trkpt>
      <trkpt lat="43.37118" lon="5.41397">
        <ele>311.71</ele>
        <time>2020-10-25T07:43:12Z</time>
      </trkpt>
      <trkpt lat="43.37136" lon="5.41388">
        <ele>312.87</ele>
        <time>2020-10-25T07:43:18Z</time>
      </trkpt>
      <trkpt lat="43.37153" lon="5.4138">
        <ele>313.68</ele>
        <time>2020-10-25T07:43:24Z</time>
      </trkpt>
      <trkpt lat="43.37174" lon="5.41373">
        <ele>315.41</ele>
        <time>2020-10-25T07:43:31Z</time>
      </trkpt>
      <trkpt lat="43.37193" lon="5.41367">
        <ele>316.88</ele>
        <time>2020-10-25T07:43:38Z</time>
      </trkpt>
      <trkpt lat="43.37211" lon="5.41362">
        <ele>318.32</ele>
        <time>2020-10-25T07:43:44Z</time>
      </trkpt>
      <trkpt lat="43.3723" lon="5.41358">
        <ele>319.48</ele>
        <time>2020-10-25T07:43:50Z</time>
      </trkpt>
      <trkpt lat="43.3725" lon="5.41352">
        <ele>321.28</ele>
        <time>2020-10-25T07:43:57Z</time>
      </trkpt>
      <trkpt lat="43.3727" lon="5.41346">
        <ele>322.49</ele>
        <time>2020-10-25T07:44:04Z</time>
      </trkpt>
      <trkpt lat="43.37287" lon="5.41341">
        <ele>324.92</ele>
        <time>2020-10-25T07:44:10Z</time>
      </trkpt>
      <trkpt lat="43.37305" lon="5.41339">
        <ele>325.82</ele>
        <time>2020-10-25T07:44:16Z</time>
      </trkpt>
      <trkpt lat="43.37323" lon="5.41337">
        <ele>326.86</ele>
        <time>2020-10-25T07:44:22Z</time>
      </trkpt>
      <trkpt lat="43.37344" lon="5.41336">
        <ele>328.3</ele>
        <time>2020-10-25T07:44:29Z</time>
      </trkpt>
      <trkpt lat="43.37363" lon="5.41334">
        <ele>330.23</ele>
        <time>2020-10-25T07:44:36Z</time>
      </trkpt>
      <trkpt lat="43.37383" lon="5.41335">
        <ele>331.32</ele>
        <time>2020-10-25T07:44:43Z</time>
      </trkpt>
      <trkpt lat="43.37401" lon="5.41332">
        <ele>333.05</ele>
        <time>2020-10-25T07:44:49Z</time>
      </trkpt>
      <trkpt lat="43.37421" lon="5.41325">
        <ele>334.88</ele>
        <time>2020-10-25T07:44:56Z</time>
      </trkpt>
      <trkpt lat="43.3744" lon="5.41315">
        <ele>336.5</ele>
        <time>2020-10-25T07:45:03Z</time>
      </trkpt>
      <trkpt lat="43.37456" lon="5.41299">
        <ele>337.78</ele>
        <time>2020-10-25T07:45:09Z</time>
      </trkpt>
      <trkpt lat="43.37468" lon="5.41278">
        <ele>339.05</ele>
        <time>2020-10-25T07:45:15Z</time>
      </trkpt>
      <trkpt lat="43.37477" lon="5.41253">
        <ele>339.67</ele>
        <time>2020-10-25T07:45:21Z</time>
      </trkpt>
      <trkpt lat="43.37483" lon="5.41226">
        <ele>339.61</ele>
        <time>2020-10-25T07:45:27Z</time>
      </trkpt>
      <trkpt lat="43.37494" lon="5.41202">
        <ele>339.55</ele>
        <time>2020-10-25T07:45:32Z</time>
      </trkpt>
      <trkpt lat="43.37505" lon="5.41177">
        <ele>338.55</ele>
        <time>2020-10-25T07:45:38Z</time>
      </trkpt>
      <trkpt lat="43.37514" lon="5.4115">
        <ele>337.53</ele>
        <time>2020-10-25T07:45:43Z</time>
      </trkpt>
      <trkpt lat="43.37516" lon="5.41122">
        <ele>336.02</ele>
        <time>2020-10-25T07:45:48Z</time>
      </trkpt>
      <trkpt lat="43.37534" lon="5.41112">
        <ele>336.23</ele>
        <time>2020-10-25T07:45:55Z</time>
      </trkpt>
      <trkpt lat="43.37547" lon="5.41132">
        <ele>337.05</ele>
        <time>2020-10-25T07:46:00Z</time>
      </trkpt>
      <trkpt lat="43.37556" lon="5.41156">
        <ele>337.65</ele>
        <time>2020-10-25T07:46:05Z</time>
      </trkpt>
      <trkpt lat="43.37566" lon="5.41178">
        <ele>338.76</ele>
        <time>2020-10-25T07:46:10Z</time>
      </trkpt>
      <trkpt lat="43.37577" lon="5.41198">
        <ele>338.72</ele>
        <time>2020-10-25T07:46:15Z</time>
      </trkpt>
      <trkpt lat="43.3759" lon="5.41218">
        <ele>338.6</ele>
        <time>2020-10-25T07:46:19Z</time>
      </trkpt>
      <trkpt lat="43.37609" lon="5.41227">
        <ele>337.59</ele>
        <time>2020-10-25T07:46:23Z</time>
      </trkpt>
      <trkpt lat="43.37626" lon="5.41212">
        <ele>337.1</ele>
        <time>2020-10-25T07:46:27Z</time>
      </trkpt>
      <trkpt lat="43.37633" lon="5.41184">
        <ele>336.57</ele>
        <time>2020-10-25T07:46:31Z</time>
      </trkpt>
      <trkpt lat="43.37631" lon="5.41156">
        <ele>336.75</ele>
        <time>2020-10-25T07:46:35Z</time>
      </trkpt>
      <trkpt lat="43.37633" lon="5.41128">
        <ele>337.11</ele>
        <time>2020-10-25T07:46:39Z</time>
      </trkpt>
      <trkpt lat="43.3764" lon="5.41103">
        <ele>338.16</ele>
        <time>2020-10-25T07:46:43Z</time>
      </trkpt>
      <trkpt lat="43.37653" lon="5.41084">
        <ele>338.84</ele>
        <time>2020-10-25T07:46:47Z</time>
      </trkpt>
      <trkpt lat="43.37671" lon="5.41073">
        <ele>339.4</ele>
        <time>2020-10-25T07:46:51Z</time>
      </trkpt>
      <trkpt lat="43.37687" lon="5.41058">
        <ele>339.82</ele>
        <time>2020-10-25T07:46:55Z</time>
      </trkpt>
      <trkpt lat="43.377" lon="5.41035">
        <ele>340.02</ele>
        <time>2020-10-25T07:46:59Z</time>
      </trkpt>
      <trkpt lat="43.37705" lon="5.41006">
        <ele>339.99</ele>
        <time>2020-10-25T07:47:03Z</time>
      </trkpt>
      <trkpt lat="43.37711" lon="5.40977">
        <ele>341.01</ele>
        <time>2020-10-25T07:47:07Z</time>
      </trkpt>
      <trkpt lat="43.37718" lon="5.4095">
        <ele>340.78</ele>
        <time>2020-10-25T07:47:11Z</time>
      </trkpt>
      <trkpt lat="43.37729" lon="5.40921">
        <ele>340.24</ele>
        <time>2020-10-25T07:47:15Z</time>
      </trkpt>
      <trkpt lat="43.3774" lon="5.40892">
        <ele>340.01</ele>
        <time>2020-10-25T07:47:19Z</time>
      </trkpt>
      <trkpt lat="43.37751" lon="5.40865">
        <ele>340.09</ele>
        <time>2020-10-25T07:47:23Z</time>
      </trkpt>
      <trkpt lat="43.37769" lon="5.40845">
        <ele>339.97</ele>
        <time>2020-10-25T07:47:27Z</time>
      </trkpt>
      <trkpt lat="43.37791" lon="5.40839">
        <ele>339.94</ele>
        <time>2020-10-25T07:47:31Z</time>
      </trkpt>
      <trkpt lat="43.37815" lon="5.4084">
        <ele>339.53</ele>
        <time>2020-10-25T07:47:35Z</time>
      </trkpt>
      <trkpt lat="43.37836" lon="5.40835">
        <ele>339.42</ele>
        <time>2020-10-25T07:47:39Z</time>
      </trkpt>
      <trkpt lat="43.37853" lon="5.40813">
        <ele>339.21</ele>
        <time>2020-10-25T07:47:43Z</time>
      </trkpt>
      <trkpt lat="43.37859" lon="5.40783">
        <ele>339.42</ele>
        <time>2020-10-25T07:47:47Z</time>
      </trkpt>
      <trkpt lat="43.37858" lon="5.40752">
        <ele>340.12</ele>
        <time>2020-10-25T07:47:51Z</time>
      </trkpt>
      <trkpt lat="43.37855" lon="5.40725">
        <ele>341.48</ele>
        <time>2020-10-25T07:47:55Z</time>
      </trkpt>
      <trkpt lat="43.37848" lon="5.40701">
        <ele>342.99</ele>
        <time>2020-10-25T07:47:59Z</time>
      </trkpt>
      <trkpt lat="43.3784" lon="5.40678">
        <ele>344.04</ele>
        <time>2020-10-25T07:48:03Z</time>
      </trkpt>
      <trkpt lat="43.37831" lon="5.40654">
        <ele>344.89</ele>
        <time>2020-10-25T07:48:07Z</time>
      </trkpt>
      <trkpt lat="43.37827" lon="5.40628">
        <ele>345.58</ele>
        <time>2020-10-25T07:48:11Z</time>
      </trkpt>
      <trkpt lat="43.37829" lon="5.40599">
        <ele>345.79</ele>
        <time>2020-10-25T07:48:15Z</time>
      </trkpt>
      <trkpt lat="43.37836" lon="5.40573">
        <ele>345.51</ele>
        <time>2020-10-25T07:48:19Z</time>
      </trkpt>
      <trkpt lat="43.37847" lon="5.40547">
        <ele>345.96</ele>
        <time>2020-10-25T07:48:23Z</time>
      </trkpt>
      <trkpt lat="43.37865" lon="5.40526">
        <ele>346.1</ele>
        <time>2020-10-25T07:48:27Z</time>
      </trkpt>
      <trkpt lat="43.37883" lon="5.40519">
        <ele>345.62</ele>
        <time>2020-10-25T07:48:30Z</time>
      </trkpt>
      <trkpt lat="43.37901" lon="5.4052">
        <ele>345.57</ele>
        <time>2020-10-25T07:48:33Z</time>
      </trkpt>
      <trkpt lat="43.37923" lon="5.40534">
        <ele>345.65</ele>
        <time>2020-10-25T07:48:37Z</time>
      </trkpt>
      <trkpt lat="43.3794" lon="5.40544">
        <ele>345.5</ele>
        <time>2020-10-25T07:48:40Z</time>
      </trkpt>
      <trkpt lat="43.37961" lon="5.40558">
        <ele>345.41</ele>
        <time>2020-10-25T07:48:44Z</time>
      </trkpt>
      <trkpt lat="43.37983" lon="5.40572">
        <ele>345</ele>
        <time>2020-10-25T07:48:48Z</time>
      </trkpt>
      <trkpt lat="43.38004" lon="5.40587">
        <ele>343.99</ele>
        <time>2020-10-25T07:48:52Z</time>
      </trkpt>
      <trkpt lat="43.38021" lon="5.40597">
        <ele>343.81</ele>
        <time>2020-10-25T07:48:55Z</time>
      </trkpt>
      <trkpt lat="43.38039" lon="5.40605">
        <ele>343.48</ele>
        <time>2020-10-25T07:48:58Z</time>
      </trkpt>
      <trkpt lat="43.38057" lon="5.40604">
        <ele>343.28</ele>
        <time>2020-10-25T07:49:01Z</time>
      </trkpt>
      <trkpt lat="43.38074" lon="5.40593">
        <ele>343.11</ele>
        <time>2020-10-25T07:49:04Z</time>
      </trkpt>
      <trkpt lat="43.38087" lon="5.40567">
        <ele>342.88</ele>
        <time>2020-10-25T07:49:08Z</time>
      </trkpt>
      <trkpt lat="43.38088" lon="5.40538">
        <ele>342.53</ele>
        <time>2020-10-25T07:49:12Z</time>
      </trkpt>
      <trkpt lat="43.3808" lon="5.40508">
        <ele>342.62</ele>
        <time>2020-10-25T07:49:16Z</time>
      </trkpt>
      <trkpt lat="43.38072" lon="5.40485">
        <ele>342.71</ele>
        <time>2020-10-25T07:49:19Z</time>
      </trkpt>
      <trkpt lat="43.38065" lon="5.4046">
        <ele>342.33</ele>
        <time>2020-10-25T07:49:22Z</time>
      </trkpt>
      <trkpt lat="43.38063" lon="5.40431">
        <ele>341.82</ele>
        <time>2020-10-25T07:49:25Z</time>
      </trkpt>
      <trkpt lat="43.38063" lon="5.40403">
        <ele>341.47</ele>
        <time>2020-10-25T07:49:28Z</time>
      </trkpt>
      <trkpt lat="43.38063" lon="5.40372">
        <ele>341.06</ele>
        <time>2020-10-25T07:49:31Z</time>
      </trkpt>
      <trkpt lat="43.38064" lon="5.40343">
        <ele>340.33</ele>
        <time>2020-10-25T07:49:34Z</time>
      </trkpt>
      <trkpt lat="43.38065" lon="5.40316">
        <ele>341.4</ele>
        <time>2020-10-25T07:49:37Z</time>
      </trkpt>
      <trkpt lat="43.38067" lon="5.40289">
        <ele>340.66</ele>
        <time>2020-10-25T07:49:40Z</time>
      </trkpt>
      <trkpt lat="43.38071" lon="5.40263">
        <ele>340.8</ele>
        <time>2020-10-25T07:49:43Z</time>
      </trkpt>
      <trkpt lat="43.38081" lon="5.4024">
        <ele>340.87</ele>
        <time>2020-10-25T07:49:46Z</time>
      </trkpt>
      <trkpt lat="43.38098" lon="5.40223">
        <ele>340.02</ele>
        <time>2020-10-25T07:49:49Z</time>
      </trkpt>
      <trkpt lat="43.38117" lon="5.40212">
        <ele>339.46</ele>
        <time>2020-10-25T07:49:52Z</time>
      </trkpt>
      <trkpt lat="43.38138" lon="5.40199">
        <ele>338.41</ele>
        <time>2020-10-25T07:49:55Z</time>
      </trkpt>
      <trkpt lat="43.38155" lon="5.4018">
        <ele>338.39</ele>
        <time>2020-10-25T07:49:58Z</time>
      </trkpt>
      <trkpt lat="43.38167" lon="5.40152">
        <ele>337.37</ele>
        <time>2020-10-25T07:50:01Z</time>
      </trkpt>
      <trkpt lat="43.38172" lon="5.40124">
        <ele>337.12</ele>
        <time>2020-10-25T07:50:04Z</time>
      </trkpt>
      <trkpt lat="43.38176" lon="5.40096">
        <ele>337.42</ele>
        <time>2020-10-25T07:50:07Z</time>
      </trkpt>
      <trkpt lat="43.38179" lon="5.40068">
        <ele>337.42</ele>
        <time>2020-10-25T07:50:10Z</time>
      </trkpt>
      <trkpt lat="43.38181" lon="5.40039">
        <ele>336.94</ele>
        <time>2020-10-25T07:50:13Z</time>
      </trkpt>
      <trkpt lat="43.38184" lon="5.4001">
        <ele>336.26</ele>
        <time>2020-10-25T07:50:16Z</time>
      </trkpt>
      <trkpt lat="43.38187" lon="5.39981">
        <ele>335.59</ele>
        <time>2020-10-25T07:50:19Z</time>
      </trkpt>
      <trkpt lat="43.3819" lon="5.39954">
        <ele>335.38</ele>
        <time>2020-10-25T07:50:22Z</time>
      </trkpt>
      <trkpt lat="43.38196" lon="5.39925">
        <ele>335.08</ele>
        <time>2020-10-25T07:50:26Z</time>
      </trkpt>
      <trkpt lat="43.38208" lon="5.39904">
        <ele>333.61</ele>
        <time>2020-10-25T07:50:29Z</time>
      </trkpt>
      <trkpt lat="43.38227" lon="5.39895">
        <ele>332.81</ele>
        <time>2020-10-25T07:50:32Z</time>
      </trkpt>
      <trkpt lat="43.38246" lon="5.39901">
        <ele>331.32</ele>
        <time>2020-10-25T07:50:35Z</time>
      </trkpt>
      <trkpt lat="43.38261" lon="5.3992">
        <ele>331.39</ele>
        <time>2020-10-25T07:50:38Z</time>
      </trkpt>
      <trkpt lat="43.38275" lon="5.3994">
        <ele>330.83</ele>
        <time>2020-10-25T07:50:41Z</time>
      </trkpt>
      <trkpt lat="43.38288" lon="5.39959">
        <ele>330.7</ele>
        <time>2020-10-25T07:50:44Z</time>
      </trkpt>
      <trkpt lat="43.38303" lon="5.39976">
        <ele>329.88</ele>
        <time>2020-10-25T07:50:47Z</time>
      </trkpt>
      <trkpt lat="43.38317" lon="5.39993">
        <ele>329.83</ele>
        <time>2020-10-25T07:50:50Z</time>
      </trkpt>
      <trkpt lat="43.38333" lon="5.40005">
        <ele>329.27</ele>
        <time>2020-10-25T07:50:53Z</time>
      </trkpt>
      <trkpt lat="43.38357" lon="5.40009">
        <ele>329.23</ele>
        <time>2020-10-25T07:50:57Z</time>
      </trkpt>
      <trkpt lat="43.38373" lon="5.39988">
        <ele>328.91</ele>
        <time>2020-10-25T07:51:01Z</time>
      </trkpt>
      <trkpt lat="43.38375" lon="5.39955">
        <ele>328.59</ele>
        <time>2020-10-25T07:51:05Z</time>
      </trkpt>
      <trkpt lat="43.38369" lon="5.39931">
        <ele>328.69</ele>
        <time>2020-10-25T07:51:08Z</time>
      </trkpt>
      <trkpt lat="43.38359" lon="5.39902">
        <ele>329.17</ele>
        <time>2020-10-25T07:51:12Z</time>
      </trkpt>
      <trkpt lat="43.38359" lon="5.39875">
        <ele>328.17</ele>
        <time>2020-10-25T07:51:15Z</time>
      </trkpt>
      <trkpt lat="43.38373" lon="5.39852">
        <ele>327.4</ele>
        <time>2020-10-25T07:51:18Z</time>
      </trkpt>
      <trkpt lat="43.38387" lon="5.39829">
        <ele>327.35</ele>
        <time>2020-10-25T07:51:21Z</time>
      </trkpt>
      <trkpt lat="43.38402" lon="5.39808">
        <ele>326.69</ele>
        <time>2020-10-25T07:51:24Z</time>
      </trkpt>
      <trkpt lat="43.38416" lon="5.39789">
        <ele>327.06</ele>
        <time>2020-10-25T07:51:27Z</time>
      </trkpt>
      <trkpt lat="43.3843" lon="5.39771">
        <ele>327.09</ele>
        <time>2020-10-25T07:51:30Z</time>
      </trkpt>
      <trkpt lat="43.38446" lon="5.39757">
        <ele>326.93</ele>
        <time>2020-10-25T07:51:33Z</time>
      </trkpt>
      <trkpt lat="43.38463" lon="5.39748">
        <ele>326.54</ele>
        <time>2020-10-25T07:51:36Z</time>
      </trkpt>
      <trkpt lat="43.38483" lon="5.3975">
        <ele>325.63</ele>
        <time>2020-10-25T07:51:39Z</time>
      </trkpt>
      <trkpt lat="43.38505" lon="5.39757">
        <ele>325.42</ele>
        <time>2020-10-25T07:51:42Z</time>
      </trkpt>
      <trkpt lat="43.38526" lon="5.39764">
        <ele>324.91</ele>
        <time>2020-10-25T07:51:45Z</time>
      </trkpt>
      <trkpt lat="43.38548" lon="5.39759">
        <ele>324.32</ele>
        <time>2020-10-25T07:51:48Z</time>
      </trkpt>
      <trkpt lat="43.38564" lon="5.39739">
        <ele>323.4</ele>
        <time>2020-10-25T07:51:51Z</time>
      </trkpt>
      <trkpt lat="43.38573" lon="5.39716">
        <ele>323.18</ele>
        <time>2020-10-25T07:51:54Z</time>
      </trkpt>
      <trkpt lat="43.3858" lon="5.3969">
        <ele>323.27</ele>
        <time>2020-10-25T07:51:57Z</time>
      </trkpt>
      <trkpt lat="43.38585" lon="5.39664">
        <ele>323.71</ele>
        <time>2020-10-25T07:52:00Z</time>
      </trkpt>
      <trkpt lat="43.38591" lon="5.39639">
        <ele>322.95</ele>
        <time>2020-10-25T07:52:03Z</time>
      </trkpt>
      <trkpt lat="43.38599" lon="5.39612">
        <ele>322.29</ele>
        <time>2020-10-25T07:52:06Z</time>
      </trkpt>
      <trkpt lat="43.38607" lon="5.39582">
        <ele>321.1</ele>
        <time>2020-10-25T07:52:09Z</time>
      </trkpt>
      <trkpt lat="43.38613" lon="5.39551">
        <ele>319.87</ele>
        <time>2020-10-25T07:52:12Z</time>
      </trkpt>
      <trkpt lat="43.3862" lon="5.39527">
        <ele>318.94</ele>
        <time>2020-10-25T07:52:14Z</time>
      </trkpt>
      <trkpt lat="43.38626" lon="5.39502">
        <ele>317.52</ele>
        <time>2020-10-25T07:52:16Z</time>
      </trkpt>
      <trkpt lat="43.38634" lon="5.39476">
        <ele>316.27</ele>
        <time>2020-10-25T07:52:18Z</time>
      </trkpt>
      <trkpt lat="43.38643" lon="5.39448">
        <ele>314.91</ele>
        <time>2020-10-25T07:52:20Z</time>
      </trkpt>
      <trkpt lat="43.38657" lon="5.39424">
        <ele>313.03</ele>
        <time>2020-10-25T07:52:22Z</time>
      </trkpt>
      <trkpt lat="43.38671" lon="5.39407">
        <ele>311.44</ele>
        <time>2020-10-25T07:52:24Z</time>
      </trkpt>
      <trkpt lat="43.38693" lon="5.3939">
        <ele>309.89</ele>
        <time>2020-10-25T07:52:27Z</time>
      </trkpt>
      <trkpt lat="43.3871" lon="5.39382">
        <ele>309.28</ele>
        <time>2020-10-25T07:52:29Z</time>
      </trkpt>
      <trkpt lat="43.38734" lon="5.39377">
        <ele>307.81</ele>
        <time>2020-10-25T07:52:32Z</time>
      </trkpt>
      <trkpt lat="43.3876" lon="5.39372">
        <ele>306.27</ele>
        <time>2020-10-25T07:52:35Z</time>
      </trkpt>
      <trkpt lat="43.38784" lon="5.39355">
        <ele>304.72</ele>
        <time>2020-10-25T07:52:38Z</time>
      </trkpt>
      <trkpt lat="43.38792" lon="5.39322">
        <ele>303.49</ele>
        <time>2020-10-25T07:52:41Z</time>
      </trkpt>
      <trkpt lat="43.38783" lon="5.3929">
        <ele>303.03</ele>
        <time>2020-10-25T07:52:44Z</time>
      </trkpt>
      <trkpt lat="43.38773" lon="5.39262">
        <ele>303.15</ele>
        <time>2020-10-25T07:52:47Z</time>
      </trkpt>
      <trkpt lat="43.3877" lon="5.39232">
        <ele>304.05</ele>
        <time>2020-10-25T07:52:50Z</time>
      </trkpt>
      <trkpt lat="43.38777" lon="5.39203">
        <ele>305.14</ele>
        <time>2020-10-25T07:52:54Z</time>
      </trkpt>
      <trkpt lat="43.38787" lon="5.39179">
        <ele>306.64</ele>
        <time>2020-10-25T07:52:58Z</time>
      </trkpt>
      <trkpt lat="43.38797" lon="5.39157">
        <ele>308.05</ele>
        <time>2020-10-25T07:53:03Z</time>
      </trkpt>
      <trkpt lat="43.38809" lon="5.39133">
        <ele>309.85</ele>
        <time>2020-10-25T07:53:09Z</time>
      </trkpt>
      <trkpt lat="43.3882" lon="5.39111">
        <ele>313.04</ele>
        <time>2020-10-25T07:53:15Z</time>
      </trkpt>
      <trkpt lat="43.38831" lon="5.39086">
        <ele>314.43</ele>
        <time>2020-10-25T07:53:21Z</time>
      </trkpt>
      <trkpt lat="43.3885" lon="5.39086">
        <ele>314.1</ele>
        <time>2020-10-25T07:53:35Z</time>
      </trkpt>
      <trkpt lat="43.38867" lon="5.39097">
        <ele>314.2</ele>
        <time>2020-10-25T07:53:42Z</time>
      </trkpt>
      <trkpt lat="43.38883" lon="5.39108">
        <ele>313.75</ele>
        <time>2020-10-25T07:53:49Z</time>
      </trkpt>
      <trkpt lat="43.38901" lon="5.3912">
        <ele>313.54</ele>
        <time>2020-10-25T07:53:54Z</time>
      </trkpt>
      <trkpt lat="43.38919" lon="5.39131">
        <ele>312.79</ele>
        <time>2020-10-25T07:53:59Z</time>
      </trkpt>
      <trkpt lat="43.38939" lon="5.39137">
        <ele>312.7</ele>
        <time>2020-10-25T07:54:04Z</time>
      </trkpt>
      <trkpt lat="43.38957" lon="5.39145">
        <ele>313.98</ele>
        <time>2020-10-25T07:54:09Z</time>
      </trkpt>
      <trkpt lat="43.38977" lon="5.39149">
        <ele>315.73</ele>
        <time>2020-10-25T07:54:16Z</time>
      </trkpt>
      <trkpt lat="43.38998" lon="5.39144">
        <ele>316.17</ele>
        <time>2020-10-25T07:54:23Z</time>
      </trkpt>
      <trkpt lat="43.39017" lon="5.3914">
        <ele>317.95</ele>
        <time>2020-10-25T07:54:29Z</time>
      </trkpt>
      <trkpt lat="43.39036" lon="5.39142">
        <ele>316.93</ele>
        <time>2020-10-25T07:54:35Z</time>
      </trkpt>
      <trkpt lat="43.39045" lon="5.39119">
        <ele>315.92</ele>
        <time>2020-10-25T07:54:39Z</time>
      </trkpt>
      <trkpt lat="43.39056" lon="5.39097">
        <ele>315.21</ele>
        <time>2020-10-25T07:54:43Z</time>
      </trkpt>
      <trkpt lat="43.39068" lon="5.39072">
        <ele>313.2</ele>
        <time>2020-10-25T07:54:48Z</time>
      </trkpt>
      <trkpt lat="43.39076" lon="5.39044">
        <ele>310.51</ele>
        <time>2020-10-25T07:54:53Z</time>
      </trkpt>
      <trkpt lat="43.39083" lon="5.39016">
        <ele>308.26</ele>
        <time>2020-10-25T07:54:57Z</time>
      </trkpt>
      <trkpt lat="43.39086" lon="5.38987">
        <ele>303.96</ele>
        <time>2020-10-25T07:55:02Z</time>
      </trkpt>
      <trkpt lat="43.39075" lon="5.38966">
        <ele>299.87</ele>
        <time>2020-10-25T07:55:06Z</time>
      </trkpt>
      <trkpt lat="43.39089" lon="5.38948">
        <ele>295.06</ele>
        <time>2020-10-25T07:55:16Z</time>
      </trkpt>
      <trkpt lat="43.39109" lon="5.38944">
        <ele>291.63</ele>
        <time>2020-10-25T07:55:21Z</time>
      </trkpt>
      <trkpt lat="43.39128" lon="5.38953">
        <ele>288.45</ele>
        <time>2020-10-25T07:55:26Z</time>
      </trkpt>
      <trkpt lat="43.39148" lon="5.38946">
        <ele>285.06</ele>
        <time>2020-10-25T07:55:31Z</time>
      </trkpt>
      <trkpt lat="43.39166" lon="5.38938">
        <ele>281.74</ele>
        <time>2020-10-25T07:55:38Z</time>
      </trkpt>
      <trkpt lat="43.39172" lon="5.38963">
        <ele>282.44</ele>
        <time>2020-10-25T07:55:44Z</time>
      </trkpt>
      <trkpt lat="43.39176" lon="5.38989">
        <ele>283.83</ele>
        <time>2020-10-25T07:55:50Z</time>
      </trkpt>
      <trkpt lat="43.39181" lon="5.39017">
        <ele>285.61</ele>
        <time>2020-10-25T07:55:57Z</time>
      </trkpt>
      <trkpt lat="43.39185" lon="5.39043">
        <ele>287</ele>
        <time>2020-10-25T07:56:04Z</time>
      </trkpt>
      <trkpt lat="43.39187" lon="5.39068">
        <ele>288.75</ele>
        <time>2020-10-25T07:56:11Z</time>
      </trkpt>
      <trkpt lat="43.39198" lon="5.39046">
        <ele>291.79</ele>
        <time>2020-10-25T07:56:37Z</time>
      </trkpt>
      <trkpt lat="43.39207" lon="5.39025">
        <ele>293.86</ele>
        <time>2020-10-25T07:56:45Z</time>
      </trkpt>
      <trkpt lat="43.39214" lon="5.39">
        <ele>296.99</ele>
        <time>2020-10-25T07:56:54Z</time>
      </trkpt>
      <trkpt lat="43.39221" lon="5.38976">
        <ele>299.7</ele>
        <time>2020-10-25T07:57:03Z</time>
      </trkpt>
      <trkpt lat="43.39234" lon="5.38956">
        <ele>303.28</ele>
        <time>2020-10-25T07:57:13Z</time>
      </trkpt>
      <trkpt lat="43.39251" lon="5.38969">
        <ele>305.39</ele>
        <time>2020-10-25T07:57:22Z</time>
      </trkpt>
      <trkpt lat="43.39266" lon="5.38983">
        <ele>306.8</ele>
        <time>2020-10-25T07:57:36Z</time>
      </trkpt>
      <trkpt lat="43.39281" lon="5.38998">
        <ele>307.87</ele>
        <time>2020-10-25T07:57:45Z</time>
      </trkpt>
      <trkpt lat="43.39294" lon="5.39017">
        <ele>307.55</ele>
        <time>2020-10-25T07:57:53Z</time>
      </trkpt>
      <trkpt lat="43.3931" lon="5.39031">
        <ele>305.84</ele>
        <time>2020-10-25T07:57:59Z</time>
      </trkpt>
      <trkpt lat="43.39323" lon="5.39051">
        <ele>305.42</ele>
        <time>2020-10-25T07:58:04Z</time>
      </trkpt>
      <trkpt lat="43.39337" lon="5.39072">
        <ele>303.59</ele>
        <time>2020-10-25T07:58:09Z</time>
      </trkpt>
      <trkpt lat="43.39352" lon="5.39088">
        <ele>301.97</ele>
        <time>2020-10-25T07:58:15Z</time>
      </trkpt>
      <trkpt lat="43.39364" lon="5.39065">
        <ele>299.2</ele>
        <time>2020-10-25T07:58:21Z</time>
      </trkpt>
      <trkpt lat="43.39372" lon="5.39038">
        <ele>296.53</ele>
        <time>2020-10-25T07:58:26Z</time>
      </trkpt>
      <trkpt lat="43.39387" lon="5.39016">
        <ele>294.43</ele>
        <time>2020-10-25T07:58:30Z</time>
      </trkpt>
      <trkpt lat="43.39403" lon="5.38994">
        <ele>292.58</ele>
        <time>2020-10-25T07:58:34Z</time>
      </trkpt>
      <trkpt lat="43.39418" lon="5.38981">
        <ele>290.99</ele>
        <time>2020-10-25T07:58:38Z</time>
      </trkpt>
      <trkpt lat="43.39435" lon="5.38968">
        <ele>288.45</ele>
        <time>2020-10-25T07:58:42Z</time>
      </trkpt>
      <trkpt lat="43.39454" lon="5.38958">
        <ele>285.71</ele>
        <time>2020-10-25T07:58:47Z</time>
      </trkpt>
      <trkpt lat="43.39472" lon="5.38948">
        <ele>283.68</ele>
        <time>2020-10-25T07:58:53Z</time>
      </trkpt>
      <trkpt lat="43.39492" lon="5.38939">
        <ele>282.55</ele>
        <time>2020-10-25T07:58:58Z</time>
      </trkpt>
      <trkpt lat="43.3951" lon="5.3893">
        <ele>281.13</ele>
        <time>2020-10-25T07:59:02Z</time>
      </trkpt>
      <trkpt lat="43.39533" lon="5.38924">
        <ele>279.56</ele>
        <time>2020-10-25T07:59:06Z</time>
      </trkpt>
      <trkpt lat="43.39554" lon="5.38914">
        <ele>278.17</ele>
        <time>2020-10-25T07:59:10Z</time>
      </trkpt>
      <trkpt lat="43.39576" lon="5.38902">
        <ele>278.29</ele>
        <time>2020-10-25T07:59:14Z</time>
      </trkpt>
      <trkpt lat="43.39595" lon="5.38895">
        <ele>278.56</ele>
        <time>2020-10-25T07:59:18Z</time>
      </trkpt>
      <trkpt lat="43.39614" lon="5.38888">
        <ele>280.71</ele>
        <time>2020-10-25T07:59:23Z</time>
      </trkpt>
      <trkpt lat="43.39628" lon="5.38871">
        <ele>284.99</ele>
        <time>2020-10-25T07:59:30Z</time>
      </trkpt>
      <trkpt lat="43.3963" lon="5.38845">
        <ele>287.4</ele>
        <time>2020-10-25T07:59:37Z</time>
      </trkpt>
      <trkpt lat="43.3965" lon="5.38851">
        <ele>290.25</ele>
        <time>2020-10-25T07:59:43Z</time>
      </trkpt>
      <trkpt lat="43.39667" lon="5.38862">
        <ele>292.82</ele>
        <time>2020-10-25T07:59:48Z</time>
      </trkpt>
      <trkpt lat="43.39684" lon="5.38852">
        <ele>293.86</ele>
        <time>2020-10-25T07:59:53Z</time>
      </trkpt>
      <trkpt lat="43.39703" lon="5.38841">
        <ele>295.95</ele>
        <time>2020-10-25T07:59:59Z</time>
      </trkpt>
      <trkpt lat="43.39722" lon="5.38829">
        <ele>297.62</ele>
        <time>2020-10-25T08:00:05Z</time>
      </trkpt>
      <trkpt lat="43.39739" lon="5.38818">
        <ele>298.12</ele>
        <time>2020-10-25T08:00:11Z</time>
      </trkpt>
      <trkpt lat="43.39748" lon="5.38843">
        <ele>299.28</ele>
        <time>2020-10-25T08:00:22Z</time>
      </trkpt>
      <trkpt lat="43.39757" lon="5.38866">
        <ele>300.15</ele>
        <time>2020-10-25T08:00:28Z</time>
      </trkpt>
      <trkpt lat="43.39768" lon="5.38889">
        <ele>300.81</ele>
        <time>2020-10-25T08:00:34Z</time>
      </trkpt>
      <trkpt lat="43.39772" lon="5.38916">
        <ele>301.35</ele>
        <time>2020-10-25T08:00:43Z</time>
      </trkpt>
      <trkpt lat="43.39771" lon="5.38944">
        <ele>301.58</ele>
        <time>2020-10-25T08:00:52Z</time>
      </trkpt>
      <trkpt lat="43.39772" lon="5.38972">
        <ele>301.93</ele>
        <time>2020-10-25T08:00:58Z</time>
      </trkpt>
      <trkpt lat="43.39777" lon="5.38998">
        <ele>303.36</ele>
        <time>2020-10-25T08:01:04Z</time>
      </trkpt>
      <trkpt lat="43.39781" lon="5.39026">
        <ele>303.34</ele>
        <time>2020-10-25T08:01:10Z</time>
      </trkpt>
      <trkpt lat="43.39792" lon="5.39048">
        <ele>304.31</ele>
        <time>2020-10-25T08:01:16Z</time>
      </trkpt>
      <trkpt lat="43.39807" lon="5.39067">
        <ele>306.05</ele>
        <time>2020-10-25T08:01:22Z</time>
      </trkpt>
      <trkpt lat="43.39821" lon="5.39085">
        <ele>306.51</ele>
        <time>2020-10-25T08:01:27Z</time>
      </trkpt>
      <trkpt lat="43.39835" lon="5.39104">
        <ele>307.96</ele>
        <time>2020-10-25T08:01:33Z</time>
      </trkpt>
      <trkpt lat="43.39841" lon="5.3913">
        <ele>309.15</ele>
        <time>2020-10-25T08:01:40Z</time>
      </trkpt>
      <trkpt lat="43.39848" lon="5.39155">
        <ele>309.88</ele>
        <time>2020-10-25T08:01:47Z</time>
      </trkpt>
      <trkpt lat="43.39854" lon="5.39178">
        <ele>310.56</ele>
        <time>2020-10-25T08:01:53Z</time>
      </trkpt>
      <trkpt lat="43.39861" lon="5.39205">
        <ele>312.97</ele>
        <time>2020-10-25T08:02:01Z</time>
      </trkpt>
      <trkpt lat="43.39869" lon="5.3923">
        <ele>314.81</ele>
        <time>2020-10-25T08:02:09Z</time>
      </trkpt>
      <trkpt lat="43.39873" lon="5.39256">
        <ele>316.2</ele>
        <time>2020-10-25T08:02:16Z</time>
      </trkpt>
      <trkpt lat="43.39874" lon="5.39282">
        <ele>317.59</ele>
        <time>2020-10-25T08:02:23Z</time>
      </trkpt>
      <trkpt lat="43.39875" lon="5.39309">
        <ele>318.22</ele>
        <time>2020-10-25T08:02:30Z</time>
      </trkpt>
      <trkpt lat="43.39875" lon="5.39335">
        <ele>319.12</ele>
        <time>2020-10-25T08:02:37Z</time>
      </trkpt>
      <trkpt lat="43.39874" lon="5.3936">
        <ele>318.66</ele>
        <time>2020-10-25T08:02:43Z</time>
      </trkpt>
      <trkpt lat="43.39884" lon="5.39383">
        <ele>317.09</ele>
        <time>2020-10-25T08:02:49Z</time>
      </trkpt>
      <trkpt lat="43.39899" lon="5.39402">
        <ele>314.1</ele>
        <time>2020-10-25T08:02:55Z</time>
      </trkpt>
      <trkpt lat="43.39917" lon="5.39415">
        <ele>310.78</ele>
        <time>2020-10-25T08:03:01Z</time>
      </trkpt>
      <trkpt lat="43.39931" lon="5.39394">
        <ele>307.39</ele>
        <time>2020-10-25T08:03:07Z</time>
      </trkpt>
      <trkpt lat="43.39944" lon="5.39374">
        <ele>304.13</ele>
        <time>2020-10-25T08:03:12Z</time>
      </trkpt>
      <trkpt lat="43.39964" lon="5.39383">
        <ele>301.09</ele>
        <time>2020-10-25T08:03:16Z</time>
      </trkpt>
      <trkpt lat="43.39982" lon="5.39393">
        <ele>300.85</ele>
        <time>2020-10-25T08:03:21Z</time>
      </trkpt>
      <trkpt lat="43.4" lon="5.39386">
        <ele>301.39</ele>
        <time>2020-10-25T08:03:26Z</time>
      </trkpt>
      <trkpt lat="43.4002" lon="5.39375">
        <ele>302.9</ele>
        <time>2020-10-25T08:03:32Z</time>
      </trkpt>
      <trkpt lat="43.40038" lon="5.39381">
        <ele>304.56</ele>
        <time>2020-10-25T08:03:41Z</time>
      </trkpt>
      <trkpt lat="43.40047" lon="5.39407">
        <ele>301.54</ele>
        <time>2020-10-25T08:03:47Z</time>
      </trkpt>
      <trkpt lat="43.40057" lon="5.39434">
        <ele>299.08</ele>
        <time>2020-10-25T08:03:52Z</time>
      </trkpt>
      <trkpt lat="43.40066" lon="5.39457">
        <ele>296.51</ele>
        <time>2020-10-25T08:03:57Z</time>
      </trkpt>
      <trkpt lat="43.40084" lon="5.39474">
        <ele>294.14</ele>
        <time>2020-10-25T08:04:02Z</time>
      </trkpt>
      <trkpt lat="43.40089" lon="5.39501">
        <ele>293.07</ele>
        <time>2020-10-25T08:04:08Z</time>
      </trkpt>
      <trkpt lat="43.40101" lon="5.3948">
        <ele>288.97</ele>
        <time>2020-10-25T08:04:19Z</time>
      </trkpt>
      <trkpt lat="43.40096" lon="5.39453">
        <ele>288.02</ele>
        <time>2020-10-25T08:04:23Z</time>
      </trkpt>
      <trkpt lat="43.40089" lon="5.39425">
        <ele>286.76</ele>
        <time>2020-10-25T08:04:28Z</time>
      </trkpt>
      <trkpt lat="43.40098" lon="5.39398">
        <ele>285.7</ele>
        <time>2020-10-25T08:04:33Z</time>
      </trkpt>
      <trkpt lat="43.40114" lon="5.39384">
        <ele>285.29</ele>
        <time>2020-10-25T08:04:37Z</time>
      </trkpt>
      <trkpt lat="43.40129" lon="5.39367">
        <ele>284.39</ele>
        <time>2020-10-25T08:04:40Z</time>
      </trkpt>
      <trkpt lat="43.40152" lon="5.39368">
        <ele>283.65</ele>
        <time>2020-10-25T08:04:44Z</time>
      </trkpt>
      <trkpt lat="43.40169" lon="5.39385">
        <ele>285.36</ele>
        <time>2020-10-25T08:04:48Z</time>
      </trkpt>
      <trkpt lat="43.40178" lon="5.39408">
        <ele>288.02</ele>
        <time>2020-10-25T08:04:54Z</time>
      </trkpt>
      <trkpt lat="43.4019" lon="5.39428">
        <ele>290.19</ele>
        <time>2020-10-25T08:05:02Z</time>
      </trkpt>
      <trkpt lat="43.40194" lon="5.39401">
        <ele>291.25</ele>
        <time>2020-10-25T08:05:09Z</time>
      </trkpt>
      <trkpt lat="43.40192" lon="5.39376">
        <ele>292.78</ele>
        <time>2020-10-25T08:05:16Z</time>
      </trkpt>
      <trkpt lat="43.40189" lon="5.39351">
        <ele>294.19</ele>
        <time>2020-10-25T08:05:24Z</time>
      </trkpt>
      <trkpt lat="43.40186" lon="5.39323">
        <ele>294.19</ele>
        <time>2020-10-25T08:05:32Z</time>
      </trkpt>
      <trkpt lat="43.40186" lon="5.39298">
        <ele>297.28</ele>
        <time>2020-10-25T08:05:40Z</time>
      </trkpt>
      <trkpt lat="43.40198" lon="5.39319">
        <ele>299.32</ele>
        <time>2020-10-25T08:05:58Z</time>
      </trkpt>
      <trkpt lat="43.40204" lon="5.39346">
        <ele>297.82</ele>
        <time>2020-10-25T08:06:05Z</time>
      </trkpt>
      <trkpt lat="43.40211" lon="5.39373">
        <ele>297.85</ele>
        <time>2020-10-25T08:06:12Z</time>
      </trkpt>
      <trkpt lat="43.40221" lon="5.39397">
        <ele>299.48</ele>
        <time>2020-10-25T08:06:19Z</time>
      </trkpt>
      <trkpt lat="43.4023" lon="5.39423">
        <ele>301.48</ele>
        <time>2020-10-25T08:06:27Z</time>
      </trkpt>
      <trkpt lat="43.40233" lon="5.39449">
        <ele>301.41</ele>
        <time>2020-10-25T08:06:33Z</time>
      </trkpt>
      <trkpt lat="43.40234" lon="5.39478">
        <ele>301.18</ele>
        <time>2020-10-25T08:06:39Z</time>
      </trkpt>
      <trkpt lat="43.40239" lon="5.39504">
        <ele>301.93</ele>
        <time>2020-10-25T08:06:45Z</time>
      </trkpt>
      <trkpt lat="43.4024" lon="5.39531">
        <ele>304.6</ele>
        <time>2020-10-25T08:06:52Z</time>
      </trkpt>
      <trkpt lat="43.40237" lon="5.39559">
        <ele>307.81</ele>
        <time>2020-10-25T08:07:00Z</time>
      </trkpt>
      <trkpt lat="43.40238" lon="5.39584">
        <ele>308.93</ele>
        <time>2020-10-25T08:07:07Z</time>
      </trkpt>
      <trkpt lat="43.40241" lon="5.39612">
        <ele>311.07</ele>
        <time>2020-10-25T08:07:14Z</time>
      </trkpt>
      <trkpt lat="43.40242" lon="5.39638">
        <ele>312.46</ele>
        <time>2020-10-25T08:07:21Z</time>
      </trkpt>
      <trkpt lat="43.40245" lon="5.39665">
        <ele>314.67</ele>
        <time>2020-10-25T08:07:29Z</time>
      </trkpt>
      <trkpt lat="43.40241" lon="5.39692">
        <ele>316.14</ele>
        <time>2020-10-25T08:07:36Z</time>
      </trkpt>
      <trkpt lat="43.4024" lon="5.39717">
        <ele>318.43</ele>
        <time>2020-10-25T08:07:43Z</time>
      </trkpt>
      <trkpt lat="43.40234" lon="5.39742">
        <ele>320.32</ele>
        <time>2020-10-25T08:07:50Z</time>
      </trkpt>
      <trkpt lat="43.40225" lon="5.39764">
        <ele>322.08</ele>
        <time>2020-10-25T08:07:57Z</time>
      </trkpt>
      <trkpt lat="43.4022" lon="5.39788">
        <ele>322.85</ele>
        <time>2020-10-25T08:08:04Z</time>
      </trkpt>
      <trkpt lat="43.4022" lon="5.39815">
        <ele>324.77</ele>
        <time>2020-10-25T08:08:11Z</time>
      </trkpt>
      <trkpt lat="43.40223" lon="5.39841">
        <ele>326.25</ele>
        <time>2020-10-25T08:08:18Z</time>
      </trkpt>
      <trkpt lat="43.40227" lon="5.39867">
        <ele>327.9</ele>
        <time>2020-10-25T08:08:25Z</time>
      </trkpt>
      <trkpt lat="43.40229" lon="5.39893">
        <ele>329.34</ele>
        <time>2020-10-25T08:08:32Z</time>
      </trkpt>
      <trkpt lat="43.4023" lon="5.39918">
        <ele>329.97</ele>
        <time>2020-10-25T08:08:39Z</time>
      </trkpt>
      <trkpt lat="43.40231" lon="5.39947">
        <ele>331.51</ele>
        <time>2020-10-25T08:08:46Z</time>
      </trkpt>
      <trkpt lat="43.40227" lon="5.39971">
        <ele>331.94</ele>
        <time>2020-10-25T08:08:52Z</time>
      </trkpt>
      <trkpt lat="43.40225" lon="5.39999">
        <ele>331.79</ele>
        <time>2020-10-25T08:08:58Z</time>
      </trkpt>
      <trkpt lat="43.40225" lon="5.40026">
        <ele>331.81</ele>
        <time>2020-10-25T08:09:03Z</time>
      </trkpt>
      <trkpt lat="43.40225" lon="5.40052">
        <ele>332.04</ele>
        <time>2020-10-25T08:09:08Z</time>
      </trkpt>
      <trkpt lat="43.40224" lon="5.40078">
        <ele>332.66</ele>
        <time>2020-10-25T08:09:13Z</time>
      </trkpt>
      <trkpt lat="43.40225" lon="5.40104">
        <ele>334.16</ele>
        <time>2020-10-25T08:09:18Z</time>
      </trkpt>
      <trkpt lat="43.40226" lon="5.4013">
        <ele>335.22</ele>
        <time>2020-10-25T08:09:24Z</time>
      </trkpt>
      <trkpt lat="43.40224" lon="5.40157">
        <ele>336.33</ele>
        <time>2020-10-25T08:09:30Z</time>
      </trkpt>
      <trkpt lat="43.40224" lon="5.40183">
        <ele>338.12</ele>
        <time>2020-10-25T08:09:36Z</time>
      </trkpt>
      <trkpt lat="43.40223" lon="5.4021">
        <ele>339.57</ele>
        <time>2020-10-25T08:09:43Z</time>
      </trkpt>
      <trkpt lat="43.40223" lon="5.40236">
        <ele>340.67</ele>
        <time>2020-10-25T08:09:49Z</time>
      </trkpt>
      <trkpt lat="43.4022" lon="5.40263">
        <ele>342.4</ele>
        <time>2020-10-25T08:09:55Z</time>
      </trkpt>
      <trkpt lat="43.40216" lon="5.40289">
        <ele>344.06</ele>
        <time>2020-10-25T08:10:01Z</time>
      </trkpt>
      <trkpt lat="43.40206" lon="5.40313">
        <ele>345.8</ele>
        <time>2020-10-25T08:10:07Z</time>
      </trkpt>
      <trkpt lat="43.40196" lon="5.40339">
        <ele>346.02</ele>
        <time>2020-10-25T08:10:13Z</time>
      </trkpt>
      <trkpt lat="43.40189" lon="5.40366">
        <ele>346.05</ele>
        <time>2020-10-25T08:10:19Z</time>
      </trkpt>
      <trkpt lat="43.40185" lon="5.40395">
        <ele>346.67</ele>
        <time>2020-10-25T08:10:25Z</time>
      </trkpt>
      <trkpt lat="43.40182" lon="5.40421">
        <ele>346.68</ele>
        <time>2020-10-25T08:10:30Z</time>
      </trkpt>
      <trkpt lat="43.40179" lon="5.4045">
        <ele>346.75</ele>
        <time>2020-10-25T08:10:36Z</time>
      </trkpt>
      <trkpt lat="43.40177" lon="5.40477">
        <ele>347.01</ele>
        <time>2020-10-25T08:10:41Z</time>
      </trkpt>
      <trkpt lat="43.4017" lon="5.40503">
        <ele>348.16</ele>
        <time>2020-10-25T08:10:46Z</time>
      </trkpt>
      <trkpt lat="43.40162" lon="5.40527">
        <ele>348.14</ele>
        <time>2020-10-25T08:10:51Z</time>
      </trkpt>
      <trkpt lat="43.40153" lon="5.40549">
        <ele>349.56</ele>
        <time>2020-10-25T08:10:56Z</time>
      </trkpt>
      <trkpt lat="43.40141" lon="5.40571">
        <ele>350.11</ele>
        <time>2020-10-25T08:11:02Z</time>
      </trkpt>
      <trkpt lat="43.40134" lon="5.406">
        <ele>350.76</ele>
        <time>2020-10-25T08:11:08Z</time>
      </trkpt>
      <trkpt lat="43.4013" lon="5.40629">
        <ele>351.22</ele>
        <time>2020-10-25T08:11:14Z</time>
      </trkpt>
      <trkpt lat="43.40127" lon="5.40653">
        <ele>351.33</ele>
        <time>2020-10-25T08:11:19Z</time>
      </trkpt>
      <trkpt lat="43.40125" lon="5.40682">
        <ele>352.16</ele>
        <time>2020-10-25T08:11:25Z</time>
      </trkpt>
      <trkpt lat="43.40122" lon="5.40712">
        <ele>353.4</ele>
        <time>2020-10-25T08:11:31Z</time>
      </trkpt>
      <trkpt lat="43.40121" lon="5.40739">
        <ele>353.6</ele>
        <time>2020-10-25T08:11:37Z</time>
      </trkpt>
      <trkpt lat="43.40126" lon="5.40767">
        <ele>355.02</ele>
        <time>2020-10-25T08:11:43Z</time>
      </trkpt>
      <trkpt lat="43.40128" lon="5.40792">
        <ele>355.48</ele>
        <time>2020-10-25T08:11:49Z</time>
      </trkpt>
      <trkpt lat="43.40126" lon="5.40821">
        <ele>355.94</ele>
        <time>2020-10-25T08:11:55Z</time>
      </trkpt>
      <trkpt lat="43.40122" lon="5.40847">
        <ele>356.53</ele>
        <time>2020-10-25T08:12:00Z</time>
      </trkpt>
      <trkpt lat="43.40115" lon="5.40871">
        <ele>357.19</ele>
        <time>2020-10-25T08:12:05Z</time>
      </trkpt>
      <trkpt lat="43.40103" lon="5.40893">
        <ele>358.71</ele>
        <time>2020-10-25T08:12:11Z</time>
      </trkpt>
      <trkpt lat="43.40087" lon="5.40906">
        <ele>360.45</ele>
        <time>2020-10-25T08:12:19Z</time>
      </trkpt>
      <trkpt lat="43.40082" lon="5.40931">
        <ele>359.2</ele>
        <time>2020-10-25T08:12:27Z</time>
      </trkpt>
      <trkpt lat="43.40081" lon="5.40956">
        <ele>356.88</ele>
        <time>2020-10-25T08:12:31Z</time>
      </trkpt>
      <trkpt lat="43.40082" lon="5.40985">
        <ele>352.31</ele>
        <time>2020-10-25T08:12:35Z</time>
      </trkpt>
      <trkpt lat="43.40081" lon="5.4101">
        <ele>350.1</ele>
        <time>2020-10-25T08:12:38Z</time>
      </trkpt>
      <trkpt lat="43.40076" lon="5.41038">
        <ele>348.1</ele>
        <time>2020-10-25T08:12:41Z</time>
      </trkpt>
      <trkpt lat="43.40074" lon="5.41064">
        <ele>347.23</ele>
        <time>2020-10-25T08:12:44Z</time>
      </trkpt>
      <trkpt lat="43.40083" lon="5.41088">
        <ele>347.93</ele>
        <time>2020-10-25T08:12:47Z</time>
      </trkpt>
      <trkpt lat="43.40087" lon="5.41115">
        <ele>348.75</ele>
        <time>2020-10-25T08:12:52Z</time>
      </trkpt>
      <trkpt lat="43.40085" lon="5.41142">
        <ele>347.92</ele>
        <time>2020-10-25T08:12:56Z</time>
      </trkpt>
      <trkpt lat="43.40094" lon="5.41164">
        <ele>349.16</ele>
        <time>2020-10-25T08:13:03Z</time>
      </trkpt>
      <trkpt lat="43.40097" lon="5.41192">
        <ele>352.26</ele>
        <time>2020-10-25T08:13:09Z</time>
      </trkpt>
      <trkpt lat="43.401" lon="5.41219">
        <ele>352.58</ele>
        <time>2020-10-25T08:13:15Z</time>
      </trkpt>
      <trkpt lat="43.40098" lon="5.41244">
        <ele>350.54</ele>
        <time>2020-10-25T08:13:22Z</time>
      </trkpt>
      <trkpt lat="43.40099" lon="5.41276">
        <ele>348.01</ele>
        <time>2020-10-25T08:13:27Z</time>
      </trkpt>
      <trkpt lat="43.40099" lon="5.41304">
        <ele>346.58</ele>
        <time>2020-10-25T08:13:33Z</time>
      </trkpt>
      <trkpt lat="43.40093" lon="5.41329">
        <ele>342.57</ele>
        <time>2020-10-25T08:13:42Z</time>
      </trkpt>
      <trkpt lat="43.40088" lon="5.41357">
        <ele>337.76</ele>
        <time>2020-10-25T08:13:50Z</time>
      </trkpt>
      <trkpt lat="43.40095" lon="5.41381">
        <ele>335.08</ele>
        <time>2020-10-25T08:13:56Z</time>
      </trkpt>
      <trkpt lat="43.40112" lon="5.41373">
        <ele>333.47</ele>
        <time>2020-10-25T08:14:07Z</time>
      </trkpt>
      <trkpt lat="43.40128" lon="5.41361">
        <ele>332.56</ele>
        <time>2020-10-25T08:14:14Z</time>
      </trkpt>
      <trkpt lat="43.40147" lon="5.41351">
        <ele>331.22</ele>
        <time>2020-10-25T08:14:20Z</time>
      </trkpt>
      <trkpt lat="43.40154" lon="5.41328">
        <ele>331.06</ele>
        <time>2020-10-25T08:14:28Z</time>
      </trkpt>
      <trkpt lat="43.40144" lon="5.4135">
        <ele>331.1</ele>
        <time>2020-10-25T08:14:54Z</time>
      </trkpt>
      <trkpt lat="43.40127" lon="5.41361">
        <ele>332.61</ele>
        <time>2020-10-25T08:15:00Z</time>
      </trkpt>
      <trkpt lat="43.40109" lon="5.41371">
        <ele>332.96</ele>
        <time>2020-10-25T08:15:05Z</time>
      </trkpt>
      <trkpt lat="43.40092" lon="5.41387">
        <ele>334.41</ele>
        <time>2020-10-25T08:15:11Z</time>
      </trkpt>
      <trkpt lat="43.40078" lon="5.4141">
        <ele>335.34</ele>
        <time>2020-10-25T08:15:17Z</time>
      </trkpt>
      <trkpt lat="43.40067" lon="5.41433">
        <ele>336.17</ele>
        <time>2020-10-25T08:15:24Z</time>
      </trkpt>
      <trkpt lat="43.40079" lon="5.41453">
        <ele>338.33</ele>
        <time>2020-10-25T08:15:34Z</time>
      </trkpt>
      <trkpt lat="43.40098" lon="5.41446">
        <ele>339.84</ele>
        <time>2020-10-25T08:15:49Z</time>
      </trkpt>
      <trkpt lat="43.40115" lon="5.41455">
        <ele>340.15</ele>
        <time>2020-10-25T08:15:55Z</time>
      </trkpt>
      <trkpt lat="43.40134" lon="5.41452">
        <ele>340.34</ele>
        <time>2020-10-25T08:16:01Z</time>
      </trkpt>
      <trkpt lat="43.4015" lon="5.41439">
        <ele>340.93</ele>
        <time>2020-10-25T08:16:06Z</time>
      </trkpt>
      <trkpt lat="43.40171" lon="5.4144">
        <ele>343.34</ele>
        <time>2020-10-25T08:16:13Z</time>
      </trkpt>
      <trkpt lat="43.40187" lon="5.41424">
        <ele>346.98</ele>
        <time>2020-10-25T08:16:21Z</time>
      </trkpt>
      <trkpt lat="43.402" lon="5.41406">
        <ele>348.16</ele>
        <time>2020-10-25T08:16:27Z</time>
      </trkpt>
      <trkpt lat="43.40208" lon="5.41383">
        <ele>350.01</ele>
        <time>2020-10-25T08:16:34Z</time>
      </trkpt>
      <trkpt lat="43.40221" lon="5.41362">
        <ele>352.63</ele>
        <time>2020-10-25T08:16:41Z</time>
      </trkpt>
      <trkpt lat="43.40241" lon="5.41356">
        <ele>353.85</ele>
        <time>2020-10-25T08:16:48Z</time>
      </trkpt>
      <trkpt lat="43.40258" lon="5.41345">
        <ele>353.33</ele>
        <time>2020-10-25T08:16:54Z</time>
      </trkpt>
      <trkpt lat="43.40258" lon="5.41373">
        <ele>353.11</ele>
        <time>2020-10-25T08:17:02Z</time>
      </trkpt>
      <trkpt lat="43.40246" lon="5.41395">
        <ele>352.21</ele>
        <time>2020-10-25T08:17:06Z</time>
      </trkpt>
      <trkpt lat="43.40232" lon="5.41411">
        <ele>351.66</ele>
        <time>2020-10-25T08:17:10Z</time>
      </trkpt>
      <trkpt lat="43.40214" lon="5.41427">
        <ele>352.09</ele>
        <time>2020-10-25T08:17:15Z</time>
      </trkpt>
      <trkpt lat="43.402" lon="5.41447">
        <ele>352.67</ele>
        <time>2020-10-25T08:17:20Z</time>
      </trkpt>
      <trkpt lat="43.40188" lon="5.41467">
        <ele>354.57</ele>
        <time>2020-10-25T08:17:25Z</time>
      </trkpt>
      <trkpt lat="43.40177" lon="5.41489">
        <ele>357.31</ele>
        <time>2020-10-25T08:17:31Z</time>
      </trkpt>
      <trkpt lat="43.40165" lon="5.41508">
        <ele>357.76</ele>
        <time>2020-10-25T08:17:36Z</time>
      </trkpt>
      <trkpt lat="43.40159" lon="5.41533">
        <ele>357.63</ele>
        <time>2020-10-25T08:17:42Z</time>
      </trkpt>
      <trkpt lat="43.40155" lon="5.41565">
        <ele>356.05</ele>
        <time>2020-10-25T08:17:47Z</time>
      </trkpt>
      <trkpt lat="43.40145" lon="5.41587">
        <ele>354.26</ele>
        <time>2020-10-25T08:17:50Z</time>
      </trkpt>
      <trkpt lat="43.40132" lon="5.41609">
        <ele>353.62</ele>
        <time>2020-10-25T08:17:53Z</time>
      </trkpt>
      <trkpt lat="43.4012" lon="5.41627">
        <ele>353.05</ele>
        <time>2020-10-25T08:17:56Z</time>
      </trkpt>
      <trkpt lat="43.40107" lon="5.4165">
        <ele>354.27</ele>
        <time>2020-10-25T08:18:00Z</time>
      </trkpt>
      <trkpt lat="43.401" lon="5.41678">
        <ele>355.43</ele>
        <time>2020-10-25T08:18:05Z</time>
      </trkpt>
      <trkpt lat="43.40102" lon="5.41703">
        <ele>357.05</ele>
        <time>2020-10-25T08:18:09Z</time>
      </trkpt>
      <trkpt lat="43.40109" lon="5.41726">
        <ele>357</ele>
        <time>2020-10-25T08:18:13Z</time>
      </trkpt>
      <trkpt lat="43.4012" lon="5.41753">
        <ele>358.5</ele>
        <time>2020-10-25T08:18:18Z</time>
      </trkpt>
      <trkpt lat="43.40126" lon="5.41778">
        <ele>361.47</ele>
        <time>2020-10-25T08:18:24Z</time>
      </trkpt>
      <trkpt lat="43.40134" lon="5.41801">
        <ele>361.69</ele>
        <time>2020-10-25T08:18:29Z</time>
      </trkpt>
      <trkpt lat="43.4014" lon="5.41824">
        <ele>366.29</ele>
        <time>2020-10-25T08:18:39Z</time>
      </trkpt>
      <trkpt lat="43.40142" lon="5.41851">
        <ele>370.62</ele>
        <time>2020-10-25T08:18:49Z</time>
      </trkpt>
      <trkpt lat="43.40146" lon="5.41878">
        <ele>374.59</ele>
        <time>2020-10-25T08:18:58Z</time>
      </trkpt>
      <trkpt lat="43.40148" lon="5.41904">
        <ele>377.92</ele>
        <time>2020-10-25T08:19:08Z</time>
      </trkpt>
      <trkpt lat="43.40149" lon="5.41931">
        <ele>379.44</ele>
        <time>2020-10-25T08:19:16Z</time>
      </trkpt>
      <trkpt lat="43.40142" lon="5.41954">
        <ele>379.89</ele>
        <time>2020-10-25T08:19:54Z</time>
      </trkpt>
      <trkpt lat="43.40143" lon="5.41981">
        <ele>380.45</ele>
        <time>2020-10-25T08:20:03Z</time>
      </trkpt>
      <trkpt lat="43.40145" lon="5.42009">
        <ele>381.62</ele>
        <time>2020-10-25T08:20:10Z</time>
      </trkpt>
      <trkpt lat="43.40145" lon="5.42034">
        <ele>382.1</ele>
        <time>2020-10-25T08:20:16Z</time>
      </trkpt>
      <trkpt lat="43.40146" lon="5.42063">
        <ele>382.41</ele>
        <time>2020-10-25T08:20:23Z</time>
      </trkpt>
      <trkpt lat="43.40142" lon="5.4209">
        <ele>383.4</ele>
        <time>2020-10-25T08:20:29Z</time>
      </trkpt>
      <trkpt lat="43.40148" lon="5.42117">
        <ele>385.89</ele>
        <time>2020-10-25T08:20:35Z</time>
      </trkpt>
      <trkpt lat="43.40152" lon="5.42142">
        <ele>386.95</ele>
        <time>2020-10-25T08:20:40Z</time>
      </trkpt>
      <trkpt lat="43.40154" lon="5.42174">
        <ele>387.99</ele>
        <time>2020-10-25T08:20:44Z</time>
      </trkpt>
      <trkpt lat="43.40158" lon="5.42203">
        <ele>389.1</ele>
        <time>2020-10-25T08:20:48Z</time>
      </trkpt>
      <trkpt lat="43.40161" lon="5.42231">
        <ele>390.2</ele>
        <time>2020-10-25T08:20:52Z</time>
      </trkpt>
      <trkpt lat="43.40164" lon="5.42256">
        <ele>392.02</ele>
        <time>2020-10-25T08:20:57Z</time>
      </trkpt>
      <trkpt lat="43.40173" lon="5.42281">
        <ele>388.62</ele>
        <time>2020-10-25T08:21:03Z</time>
      </trkpt>
      <trkpt lat="43.40184" lon="5.42306">
        <ele>386.01</ele>
        <time>2020-10-25T08:21:07Z</time>
      </trkpt>
      <trkpt lat="43.402" lon="5.42324">
        <ele>385.68</ele>
        <time>2020-10-25T08:21:11Z</time>
      </trkpt>
      <trkpt lat="43.40214" lon="5.42342">
        <ele>388.66</ele>
        <time>2020-10-25T08:21:19Z</time>
      </trkpt>
      <trkpt lat="43.40231" lon="5.42353">
        <ele>390.86</ele>
        <time>2020-10-25T08:21:47Z</time>
      </trkpt>
      <trkpt lat="43.40246" lon="5.4237">
        <ele>390.13</ele>
        <time>2020-10-25T08:21:53Z</time>
      </trkpt>
      <trkpt lat="43.40252" lon="5.42395">
        <ele>388.13</ele>
        <time>2020-10-25T08:21:58Z</time>
      </trkpt>
      <trkpt lat="43.40256" lon="5.42423">
        <ele>386.87</ele>
        <time>2020-10-25T08:22:02Z</time>
      </trkpt>
      <trkpt lat="43.40264" lon="5.42447">
        <ele>386.31</ele>
        <time>2020-10-25T08:22:05Z</time>
      </trkpt>
      <trkpt lat="43.40268" lon="5.42471">
        <ele>386.55</ele>
        <time>2020-10-25T08:22:08Z</time>
      </trkpt>
      <trkpt lat="43.40278" lon="5.42499">
        <ele>384.98</ele>
        <time>2020-10-25T08:22:12Z</time>
      </trkpt>
      <trkpt lat="43.40288" lon="5.42521">
        <ele>382.35</ele>
        <time>2020-10-25T08:22:15Z</time>
      </trkpt>
      <trkpt lat="43.403" lon="5.4254">
        <ele>380.54</ele>
        <time>2020-10-25T08:22:18Z</time>
      </trkpt>
      <trkpt lat="43.40316" lon="5.42556">
        <ele>379.9</ele>
        <time>2020-10-25T08:22:21Z</time>
      </trkpt>
      <trkpt lat="43.40334" lon="5.42556">
        <ele>381.19</ele>
        <time>2020-10-25T08:22:25Z</time>
      </trkpt>
      <trkpt lat="43.40353" lon="5.42541">
        <ele>380.07</ele>
        <time>2020-10-25T08:22:29Z</time>
      </trkpt>
      <trkpt lat="43.40373" lon="5.42524">
        <ele>380.02</ele>
        <time>2020-10-25T08:22:33Z</time>
      </trkpt>
      <trkpt lat="43.40393" lon="5.42517">
        <ele>379.28</ele>
        <time>2020-10-25T08:22:37Z</time>
      </trkpt>
      <trkpt lat="43.40411" lon="5.42503">
        <ele>379.91</ele>
        <time>2020-10-25T08:22:41Z</time>
      </trkpt>
      <trkpt lat="43.40428" lon="5.42495">
        <ele>377.77</ele>
        <time>2020-10-25T08:22:47Z</time>
      </trkpt>
      <trkpt lat="43.40447" lon="5.42503">
        <ele>374.9</ele>
        <time>2020-10-25T08:22:55Z</time>
      </trkpt>
      <trkpt lat="43.40466" lon="5.42515">
        <ele>370.12</ele>
        <time>2020-10-25T08:23:03Z</time>
      </trkpt>
      <trkpt lat="43.40486" lon="5.42522">
        <ele>367.88</ele>
        <time>2020-10-25T08:23:06Z</time>
      </trkpt>
      <trkpt lat="43.40502" lon="5.42535">
        <ele>365.59</ele>
        <time>2020-10-25T08:23:09Z</time>
      </trkpt>
      <trkpt lat="43.40512" lon="5.42556">
        <ele>364.47</ele>
        <time>2020-10-25T08:23:44Z</time>
      </trkpt>
      <trkpt lat="43.40521" lon="5.42581">
        <ele>360.74</ele>
        <time>2020-10-25T08:23:54Z</time>
      </trkpt>
      <trkpt lat="43.40523" lon="5.42608">
        <ele>350.94</ele>
        <time>2020-10-25T08:24:10Z</time>
      </trkpt>
      <trkpt lat="43.40523" lon="5.42634">
        <ele>343.61</ele>
        <time>2020-10-25T08:24:39Z</time>
      </trkpt>
      <trkpt lat="43.40514" lon="5.42656">
        <ele>337.99</ele>
        <time>2020-10-25T08:24:50Z</time>
      </trkpt>
      <trkpt lat="43.40525" lon="5.42676">
        <ele>335.11</ele>
        <time>2020-10-25T08:25:00Z</time>
      </trkpt>
      <trkpt lat="43.40543" lon="5.42698">
        <ele>332.83</ele>
        <time>2020-10-25T08:25:06Z</time>
      </trkpt>
      <trkpt lat="43.40555" lon="5.42721">
        <ele>331.08</ele>
        <time>2020-10-25T08:25:10Z</time>
      </trkpt>
      <trkpt lat="43.40567" lon="5.42742">
        <ele>329.76</ele>
        <time>2020-10-25T08:25:14Z</time>
      </trkpt>
      <trkpt lat="43.4058" lon="5.42766">
        <ele>328.15</ele>
        <time>2020-10-25T08:25:18Z</time>
      </trkpt>
      <trkpt lat="43.40588" lon="5.42796">
        <ele>327.41</ele>
        <time>2020-10-25T08:25:22Z</time>
      </trkpt>
      <trkpt lat="43.40603" lon="5.42819">
        <ele>327</ele>
        <time>2020-10-25T08:25:26Z</time>
      </trkpt>
      <trkpt lat="43.40625" lon="5.42828">
        <ele>325.51</ele>
        <time>2020-10-25T08:25:30Z</time>
      </trkpt>
      <trkpt lat="43.40644" lon="5.42818">
        <ele>325.03</ele>
        <time>2020-10-25T08:25:38Z</time>
      </trkpt>
      <trkpt lat="43.40664" lon="5.42801">
        <ele>322.72</ele>
        <time>2020-10-25T08:25:43Z</time>
      </trkpt>
      <trkpt lat="43.40681" lon="5.42792">
        <ele>320.82</ele>
        <time>2020-10-25T08:25:46Z</time>
      </trkpt>
      <trkpt lat="43.40698" lon="5.42777">
        <ele>320.9</ele>
        <time>2020-10-25T08:25:49Z</time>
      </trkpt>
      <trkpt lat="43.40716" lon="5.42762">
        <ele>318.54</ele>
        <time>2020-10-25T08:25:52Z</time>
      </trkpt>
      <trkpt lat="43.40736" lon="5.4275">
        <ele>317.07</ele>
        <time>2020-10-25T08:25:55Z</time>
      </trkpt>
      <trkpt lat="43.4076" lon="5.42742">
        <ele>316.39</ele>
        <time>2020-10-25T08:25:58Z</time>
      </trkpt>
      <trkpt lat="43.40785" lon="5.42738">
        <ele>316.4</ele>
        <time>2020-10-25T08:26:01Z</time>
      </trkpt>
      <trkpt lat="43.4081" lon="5.42737">
        <ele>314.55</ele>
        <time>2020-10-25T08:26:04Z</time>
      </trkpt>
      <trkpt lat="43.4083" lon="5.42741">
        <ele>314.62</ele>
        <time>2020-10-25T08:26:07Z</time>
      </trkpt>
      <trkpt lat="43.40853" lon="5.42746">
        <ele>313.48</ele>
        <time>2020-10-25T08:26:11Z</time>
      </trkpt>
      <trkpt lat="43.40871" lon="5.42744">
        <ele>313.58</ele>
        <time>2020-10-25T08:26:14Z</time>
      </trkpt>
      <trkpt lat="43.40889" lon="5.42743">
        <ele>312.12</ele>
        <time>2020-10-25T08:26:17Z</time>
      </trkpt>
      <trkpt lat="43.40912" lon="5.42743">
        <ele>312.85</ele>
        <time>2020-10-25T08:26:21Z</time>
      </trkpt>
      <trkpt lat="43.40936" lon="5.42739">
        <ele>310.46</ele>
        <time>2020-10-25T08:26:25Z</time>
      </trkpt>
      <trkpt lat="43.40956" lon="5.42736">
        <ele>308.35</ele>
        <time>2020-10-25T08:26:28Z</time>
      </trkpt>
      <trkpt lat="43.40977" lon="5.42732">
        <ele>308.34</ele>
        <time>2020-10-25T08:26:31Z</time>
      </trkpt>
      <trkpt lat="43.40998" lon="5.42728">
        <ele>306.88</ele>
        <time>2020-10-25T08:26:34Z</time>
      </trkpt>
      <trkpt lat="43.41019" lon="5.42725">
        <ele>307.58</ele>
        <time>2020-10-25T08:26:37Z</time>
      </trkpt>
      <trkpt lat="43.41038" lon="5.4272">
        <ele>306</ele>
        <time>2020-10-25T08:26:40Z</time>
      </trkpt>
      <trkpt lat="43.41059" lon="5.42705">
        <ele>305.35</ele>
        <time>2020-10-25T08:26:44Z</time>
      </trkpt>
      <trkpt lat="43.41081" lon="5.42705">
        <ele>304.49</ele>
        <time>2020-10-25T08:26:49Z</time>
      </trkpt>
      <trkpt lat="43.41101" lon="5.42708">
        <ele>302.66</ele>
        <time>2020-10-25T08:26:53Z</time>
      </trkpt>
      <trkpt lat="43.41112" lon="5.42728">
        <ele>304.63</ele>
        <time>2020-10-25T08:27:49Z</time>
      </trkpt>
      <trkpt lat="43.4111" lon="5.42753">
        <ele>306.42</ele>
        <time>2020-10-25T08:28:10Z</time>
      </trkpt>
      <trkpt lat="43.41109" lon="5.42778">
        <ele>308.56</ele>
        <time>2020-10-25T08:28:19Z</time>
      </trkpt>
      <trkpt lat="43.41108" lon="5.42804">
        <ele>309.56</ele>
        <time>2020-10-25T08:28:26Z</time>
      </trkpt>
      <trkpt lat="43.41106" lon="5.42829">
        <ele>311.09</ele>
        <time>2020-10-25T08:28:34Z</time>
      </trkpt>
      <trkpt lat="43.41099" lon="5.42855">
        <ele>313.53</ele>
        <time>2020-10-25T08:28:41Z</time>
      </trkpt>
      <trkpt lat="43.41088" lon="5.42876">
        <ele>315.66</ele>
        <time>2020-10-25T08:28:48Z</time>
      </trkpt>
      <trkpt lat="43.41076" lon="5.42898">
        <ele>318.18</ele>
        <time>2020-10-25T08:28:56Z</time>
      </trkpt>
      <trkpt lat="43.41061" lon="5.42915">
        <ele>318.46</ele>
        <time>2020-10-25T08:29:03Z</time>
      </trkpt>
      <trkpt lat="43.41048" lon="5.42934">
        <ele>321.67</ele>
        <time>2020-10-25T08:29:10Z</time>
      </trkpt>
      <trkpt lat="43.41039" lon="5.42956">
        <ele>325.72</ele>
        <time>2020-10-25T08:29:18Z</time>
      </trkpt>
      <trkpt lat="43.41025" lon="5.42974">
        <ele>326.58</ele>
        <time>2020-10-25T08:29:25Z</time>
      </trkpt>
      <trkpt lat="43.41008" lon="5.42984">
        <ele>328.12</ele>
        <time>2020-10-25T08:29:32Z</time>
      </trkpt>
      <trkpt lat="43.4099" lon="5.42996">
        <ele>328.68</ele>
        <time>2020-10-25T08:29:38Z</time>
      </trkpt>
      <trkpt lat="43.40982" lon="5.43019">
        <ele>330.4</ele>
        <time>2020-10-25T08:29:44Z</time>
      </trkpt>
      <trkpt lat="43.40973" lon="5.43042">
        <ele>330.94</ele>
        <time>2020-10-25T08:29:50Z</time>
      </trkpt>
      <trkpt lat="43.40972" lon="5.4307">
        <ele>333.32</ele>
        <time>2020-10-25T08:29:57Z</time>
      </trkpt>
      <trkpt lat="43.40977" lon="5.43098">
        <ele>334.24</ele>
        <time>2020-10-25T08:30:03Z</time>
      </trkpt>
      <trkpt lat="43.40965" lon="5.43119">
        <ele>336.2</ele>
        <time>2020-10-25T08:30:10Z</time>
      </trkpt>
      <trkpt lat="43.40945" lon="5.4311">
        <ele>338.34</ele>
        <time>2020-10-25T08:30:16Z</time>
      </trkpt>
      <trkpt lat="43.40926" lon="5.43098">
        <ele>339.46</ele>
        <time>2020-10-25T08:30:22Z</time>
      </trkpt>
      <trkpt lat="43.40905" lon="5.43095">
        <ele>340.61</ele>
        <time>2020-10-25T08:30:28Z</time>
      </trkpt>
      <trkpt lat="43.40885" lon="5.43096">
        <ele>341.33</ele>
        <time>2020-10-25T08:30:33Z</time>
      </trkpt>
      <trkpt lat="43.40863" lon="5.431">
        <ele>342.52</ele>
        <time>2020-10-25T08:30:39Z</time>
      </trkpt>
      <trkpt lat="43.40853" lon="5.43122">
        <ele>344.56</ele>
        <time>2020-10-25T08:30:46Z</time>
      </trkpt>
      <trkpt lat="43.40859" lon="5.43148">
        <ele>345.27</ele>
        <time>2020-10-25T08:30:52Z</time>
      </trkpt>
      <trkpt lat="43.40864" lon="5.43175">
        <ele>346.71</ele>
        <time>2020-10-25T08:30:59Z</time>
      </trkpt>
      <trkpt lat="43.40868" lon="5.432">
        <ele>348.44</ele>
        <time>2020-10-25T08:31:06Z</time>
      </trkpt>
      <trkpt lat="43.40871" lon="5.43227">
        <ele>350.37</ele>
        <time>2020-10-25T08:31:13Z</time>
      </trkpt>
      <trkpt lat="43.4086" lon="5.4325">
        <ele>352.28</ele>
        <time>2020-10-25T08:31:21Z</time>
      </trkpt>
      <trkpt lat="43.40843" lon="5.43257">
        <ele>354.62</ele>
        <time>2020-10-25T08:31:27Z</time>
      </trkpt>
      <trkpt lat="43.40825" lon="5.43269">
        <ele>357.23</ele>
        <time>2020-10-25T08:31:33Z</time>
      </trkpt>
      <trkpt lat="43.40808" lon="5.43286">
        <ele>358.83</ele>
        <time>2020-10-25T08:31:40Z</time>
      </trkpt>
      <trkpt lat="43.40788" lon="5.43286">
        <ele>361.25</ele>
        <time>2020-10-25T08:31:46Z</time>
      </trkpt>
      <trkpt lat="43.40766" lon="5.43286">
        <ele>361.98</ele>
        <time>2020-10-25T08:31:52Z</time>
      </trkpt>
      <trkpt lat="43.40751" lon="5.43301">
        <ele>364.55</ele>
        <time>2020-10-25T08:31:58Z</time>
      </trkpt>
      <trkpt lat="43.40748" lon="5.4333">
        <ele>366.25</ele>
        <time>2020-10-25T08:32:04Z</time>
      </trkpt>
      <trkpt lat="43.40749" lon="5.43356">
        <ele>366.62</ele>
        <time>2020-10-25T08:32:10Z</time>
      </trkpt>
      <trkpt lat="43.40758" lon="5.43382">
        <ele>367.44</ele>
        <time>2020-10-25T08:32:16Z</time>
      </trkpt>
      <trkpt lat="43.40766" lon="5.43408">
        <ele>370.43</ele>
        <time>2020-10-25T08:32:22Z</time>
      </trkpt>
      <trkpt lat="43.4077" lon="5.43435">
        <ele>372.58</ele>
        <time>2020-10-25T08:32:29Z</time>
      </trkpt>
      <trkpt lat="43.40777" lon="5.43458">
        <ele>371.77</ele>
        <time>2020-10-25T08:32:35Z</time>
      </trkpt>
      <trkpt lat="43.40796" lon="5.43466">
        <ele>372.82</ele>
        <time>2020-10-25T08:32:43Z</time>
      </trkpt>
      <trkpt lat="43.40817" lon="5.43468">
        <ele>373.94</ele>
        <time>2020-10-25T08:32:50Z</time>
      </trkpt>
      <trkpt lat="43.40837" lon="5.43472">
        <ele>374.38</ele>
        <time>2020-10-25T08:32:56Z</time>
      </trkpt>
      <trkpt lat="43.40855" lon="5.43471">
        <ele>376.56</ele>
        <time>2020-10-25T08:33:02Z</time>
      </trkpt>
      <trkpt lat="43.40871" lon="5.43485">
        <ele>378.25</ele>
        <time>2020-10-25T08:33:08Z</time>
      </trkpt>
      <trkpt lat="43.40871" lon="5.4351">
        <ele>379.54</ele>
        <time>2020-10-25T08:33:13Z</time>
      </trkpt>
      <trkpt lat="43.40874" lon="5.43534">
        <ele>379.54</ele>
        <time>2020-10-25T08:33:18Z</time>
      </trkpt>
      <trkpt lat="43.40881" lon="5.43561">
        <ele>382.37</ele>
        <time>2020-10-25T08:33:24Z</time>
      </trkpt>
      <trkpt lat="43.40862" lon="5.43574">
        <ele>386.45</ele>
        <time>2020-10-25T08:33:31Z</time>
      </trkpt>
      <trkpt lat="43.40846" lon="5.43587">
        <ele>388.67</ele>
        <time>2020-10-25T08:33:37Z</time>
      </trkpt>
      <trkpt lat="43.40835" lon="5.43607">
        <ele>388.76</ele>
        <time>2020-10-25T08:33:43Z</time>
      </trkpt>
      <trkpt lat="43.40834" lon="5.43635">
        <ele>388.45</ele>
        <time>2020-10-25T08:33:49Z</time>
      </trkpt>
      <trkpt lat="43.40844" lon="5.43656">
        <ele>389.29</ele>
        <time>2020-10-25T08:33:56Z</time>
      </trkpt>
      <trkpt lat="43.40853" lon="5.4368">
        <ele>391.53</ele>
        <time>2020-10-25T08:34:04Z</time>
      </trkpt>
      <trkpt lat="43.40854" lon="5.43706">
        <ele>394.96</ele>
        <time>2020-10-25T08:34:11Z</time>
      </trkpt>
      <trkpt lat="43.40859" lon="5.4373">
        <ele>396.44</ele>
        <time>2020-10-25T08:34:18Z</time>
      </trkpt>
      <trkpt lat="43.40873" lon="5.4375">
        <ele>397.66</ele>
        <time>2020-10-25T08:34:26Z</time>
      </trkpt>
      <trkpt lat="43.40881" lon="5.43775">
        <ele>399.91</ele>
        <time>2020-10-25T08:34:34Z</time>
      </trkpt>
      <trkpt lat="43.4089" lon="5.43799">
        <ele>403.89</ele>
        <time>2020-10-25T08:34:42Z</time>
      </trkpt>
      <trkpt lat="43.4089" lon="5.43828">
        <ele>405.47</ele>
        <time>2020-10-25T08:34:50Z</time>
      </trkpt>
      <trkpt lat="43.40882" lon="5.43852">
        <ele>406.39</ele>
        <time>2020-10-25T08:34:56Z</time>
      </trkpt>
      <trkpt lat="43.40865" lon="5.43861">
        <ele>407.02</ele>
        <time>2020-10-25T08:35:01Z</time>
      </trkpt>
      <trkpt lat="43.40846" lon="5.43861">
        <ele>408.23</ele>
        <time>2020-10-25T08:35:07Z</time>
      </trkpt>
      <trkpt lat="43.4084" lon="5.43887">
        <ele>409.95</ele>
        <time>2020-10-25T08:35:15Z</time>
      </trkpt>
      <trkpt lat="43.40856" lon="5.43904">
        <ele>411.06</ele>
        <time>2020-10-25T08:35:21Z</time>
      </trkpt>
      <trkpt lat="43.40871" lon="5.43919">
        <ele>413.57</ele>
        <time>2020-10-25T08:35:27Z</time>
      </trkpt>
      <trkpt lat="43.40884" lon="5.43941">
        <ele>414.92</ele>
        <time>2020-10-25T08:35:34Z</time>
      </trkpt>
      <trkpt lat="43.40886" lon="5.4397">
        <ele>416.19</ele>
        <time>2020-10-25T08:35:40Z</time>
      </trkpt>
      <trkpt lat="43.4088" lon="5.43993">
        <ele>417.24</ele>
        <time>2020-10-25T08:35:46Z</time>
      </trkpt>
      <trkpt lat="43.40866" lon="5.44014">
        <ele>419.09</ele>
        <time>2020-10-25T08:35:52Z</time>
      </trkpt>
      <trkpt lat="43.40857" lon="5.44038">
        <ele>420.73</ele>
        <time>2020-10-25T08:35:58Z</time>
      </trkpt>
      <trkpt lat="43.40865" lon="5.44062">
        <ele>422.14</ele>
        <time>2020-10-25T08:36:04Z</time>
      </trkpt>
      <trkpt lat="43.40869" lon="5.44089">
        <ele>423.96</ele>
        <time>2020-10-25T08:36:11Z</time>
      </trkpt>
      <trkpt lat="43.40871" lon="5.44115">
        <ele>425.3</ele>
        <time>2020-10-25T08:36:17Z</time>
      </trkpt>
      <trkpt lat="43.40867" lon="5.44142">
        <ele>426.41</ele>
        <time>2020-10-25T08:36:23Z</time>
      </trkpt>
      <trkpt lat="43.40859" lon="5.44165">
        <ele>428.25</ele>
        <time>2020-10-25T08:36:29Z</time>
      </trkpt>
      <trkpt lat="43.40865" lon="5.44191">
        <ele>430.87</ele>
        <time>2020-10-25T08:36:37Z</time>
      </trkpt>
      <trkpt lat="43.40876" lon="5.44213">
        <ele>433.72</ele>
        <time>2020-10-25T08:36:45Z</time>
      </trkpt>
      <trkpt lat="43.40879" lon="5.44238">
        <ele>437.12</ele>
        <time>2020-10-25T08:36:54Z</time>
      </trkpt>
      <trkpt lat="43.40882" lon="5.44264">
        <ele>437.09</ele>
        <time>2020-10-25T08:37:02Z</time>
      </trkpt>
      <trkpt lat="43.40885" lon="5.4429">
        <ele>436.53</ele>
        <time>2020-10-25T08:37:08Z</time>
      </trkpt>
      <trkpt lat="43.40886" lon="5.44315">
        <ele>438.09</ele>
        <time>2020-10-25T08:37:14Z</time>
      </trkpt>
      <trkpt lat="43.40896" lon="5.4434">
        <ele>439.82</ele>
        <time>2020-10-25T08:37:20Z</time>
      </trkpt>
      <trkpt lat="43.40909" lon="5.4436">
        <ele>442.65</ele>
        <time>2020-10-25T08:37:27Z</time>
      </trkpt>
      <trkpt lat="43.40913" lon="5.44387">
        <ele>445.2</ele>
        <time>2020-10-25T08:37:34Z</time>
      </trkpt>
      <trkpt lat="43.40909" lon="5.44413">
        <ele>445.94</ele>
        <time>2020-10-25T08:37:40Z</time>
      </trkpt>
      <trkpt lat="43.40904" lon="5.44438">
        <ele>447.38</ele>
        <time>2020-10-25T08:37:47Z</time>
      </trkpt>
      <trkpt lat="43.40897" lon="5.44463">
        <ele>448.38</ele>
        <time>2020-10-25T08:37:55Z</time>
      </trkpt>
      <trkpt lat="43.40891" lon="5.44488">
        <ele>452.01</ele>
        <time>2020-10-25T08:38:03Z</time>
      </trkpt>
      <trkpt lat="43.40884" lon="5.44513">
        <ele>452.32</ele>
        <time>2020-10-25T08:38:11Z</time>
      </trkpt>
      <trkpt lat="43.40876" lon="5.44537">
        <ele>455.58</ele>
        <time>2020-10-25T08:38:19Z</time>
      </trkpt>
      <trkpt lat="43.40875" lon="5.44565">
        <ele>457.81</ele>
        <time>2020-10-25T08:38:28Z</time>
      </trkpt>
      <trkpt lat="43.40874" lon="5.4459">
        <ele>460.5</ele>
        <time>2020-10-25T08:38:36Z</time>
      </trkpt>
      <trkpt lat="43.40869" lon="5.44615">
        <ele>460.81</ele>
        <time>2020-10-25T08:38:43Z</time>
      </trkpt>
      <trkpt lat="43.40859" lon="5.44637">
        <ele>462.56</ele>
        <time>2020-10-25T08:38:50Z</time>
      </trkpt>
      <trkpt lat="43.40843" lon="5.44654">
        <ele>464.59</ele>
        <time>2020-10-25T08:38:58Z</time>
      </trkpt>
      <trkpt lat="43.40828" lon="5.4467">
        <ele>467.16</ele>
        <time>2020-10-25T08:39:06Z</time>
      </trkpt>
      <trkpt lat="43.40814" lon="5.44689">
        <ele>470.27</ele>
        <time>2020-10-25T08:39:15Z</time>
      </trkpt>
      <trkpt lat="43.40816" lon="5.44715">
        <ele>470.46</ele>
        <time>2020-10-25T08:39:22Z</time>
      </trkpt>
      <trkpt lat="43.40821" lon="5.44742">
        <ele>471.03</ele>
        <time>2020-10-25T08:39:29Z</time>
      </trkpt>
      <trkpt lat="43.40825" lon="5.44769">
        <ele>472.79</ele>
        <time>2020-10-25T08:39:36Z</time>
      </trkpt>
      <trkpt lat="43.40824" lon="5.44795">
        <ele>472.24</ele>
        <time>2020-10-25T08:39:42Z</time>
      </trkpt>
      <trkpt lat="43.4082" lon="5.4482">
        <ele>474.74</ele>
        <time>2020-10-25T08:39:49Z</time>
      </trkpt>
      <trkpt lat="43.40814" lon="5.44846">
        <ele>477.9</ele>
        <time>2020-10-25T08:39:57Z</time>
      </trkpt>
      <trkpt lat="43.40808" lon="5.44871">
        <ele>479.43</ele>
        <time>2020-10-25T08:40:05Z</time>
      </trkpt>
      <trkpt lat="43.40802" lon="5.44894">
        <ele>479.95</ele>
        <time>2020-10-25T08:40:12Z</time>
      </trkpt>
      <trkpt lat="43.40798" lon="5.44919">
        <ele>481.42</ele>
        <time>2020-10-25T08:40:21Z</time>
      </trkpt>
      <trkpt lat="43.40799" lon="5.44944">
        <ele>484</ele>
        <time>2020-10-25T08:40:29Z</time>
      </trkpt>
      <trkpt lat="43.40794" lon="5.44971">
        <ele>488.44</ele>
        <time>2020-10-25T08:40:38Z</time>
      </trkpt>
      <trkpt lat="43.40783" lon="5.44992">
        <ele>491.69</ele>
        <time>2020-10-25T08:40:46Z</time>
      </trkpt>
      <trkpt lat="43.40772" lon="5.45013">
        <ele>494.63</ele>
        <time>2020-10-25T08:40:54Z</time>
      </trkpt>
      <trkpt lat="43.40758" lon="5.4503">
        <ele>497.28</ele>
        <time>2020-10-25T08:41:02Z</time>
      </trkpt>
      <trkpt lat="43.40746" lon="5.45051">
        <ele>498.54</ele>
        <time>2020-10-25T08:41:11Z</time>
      </trkpt>
      <trkpt lat="43.40729" lon="5.45067">
        <ele>500.25</ele>
        <time>2020-10-25T08:41:20Z</time>
      </trkpt>
      <trkpt lat="43.40713" lon="5.45082">
        <ele>501.73</ele>
        <time>2020-10-25T08:41:28Z</time>
      </trkpt>
      <trkpt lat="43.40696" lon="5.45094">
        <ele>504.1</ele>
        <time>2020-10-25T08:41:36Z</time>
      </trkpt>
      <trkpt lat="43.40677" lon="5.45107">
        <ele>506.1</ele>
        <time>2020-10-25T08:41:44Z</time>
      </trkpt>
      <trkpt lat="43.4066" lon="5.45116">
        <ele>508.2</ele>
        <time>2020-10-25T08:41:52Z</time>
      </trkpt>
      <trkpt lat="43.40641" lon="5.45125">
        <ele>510.4</ele>
        <time>2020-10-25T08:42:00Z</time>
      </trkpt>
      <trkpt lat="43.40629" lon="5.45145">
        <ele>511.28</ele>
        <time>2020-10-25T08:42:08Z</time>
      </trkpt>
      <trkpt lat="43.40632" lon="5.45171">
        <ele>510.25</ele>
        <time>2020-10-25T08:42:15Z</time>
      </trkpt>
      <trkpt lat="43.40635" lon="5.45199">
        <ele>512.77</ele>
        <time>2020-10-25T08:42:22Z</time>
      </trkpt>
      <trkpt lat="43.40627" lon="5.45222">
        <ele>515.59</ele>
        <time>2020-10-25T08:42:29Z</time>
      </trkpt>
      <trkpt lat="43.40618" lon="5.45245">
        <ele>514.59</ele>
        <time>2020-10-25T08:42:37Z</time>
      </trkpt>
      <trkpt lat="43.40607" lon="5.45269">
        <ele>515.62</ele>
        <time>2020-10-25T08:42:44Z</time>
      </trkpt>
      <trkpt lat="43.40603" lon="5.45295">
        <ele>520.16</ele>
        <time>2020-10-25T08:42:53Z</time>
      </trkpt>
      <trkpt lat="43.40613" lon="5.45317">
        <ele>518.63</ele>
        <time>2020-10-25T08:43:00Z</time>
      </trkpt>
      <trkpt lat="43.40629" lon="5.45333">
        <ele>518.43</ele>
        <time>2020-10-25T08:43:07Z</time>
      </trkpt>
      <trkpt lat="43.40643" lon="5.45352">
        <ele>518.1</ele>
        <time>2020-10-25T08:43:15Z</time>
      </trkpt>
      <trkpt lat="43.40651" lon="5.45375">
        <ele>520.19</ele>
        <time>2020-10-25T08:43:22Z</time>
      </trkpt>
      <trkpt lat="43.4066" lon="5.45398">
        <ele>522.74</ele>
        <time>2020-10-25T08:43:29Z</time>
      </trkpt>
      <trkpt lat="43.4067" lon="5.45424">
        <ele>523.49</ele>
        <time>2020-10-25T08:43:35Z</time>
      </trkpt>
      <trkpt lat="43.40673" lon="5.45449">
        <ele>524.92</ele>
        <time>2020-10-25T08:43:40Z</time>
      </trkpt>
      <trkpt lat="43.40678" lon="5.45474">
        <ele>525.74</ele>
        <time>2020-10-25T08:43:45Z</time>
      </trkpt>
      <trkpt lat="43.40684" lon="5.45502">
        <ele>524.14</ele>
        <time>2020-10-25T08:43:51Z</time>
      </trkpt>
      <trkpt lat="43.40683" lon="5.45527">
        <ele>526.3</ele>
        <time>2020-10-25T08:43:56Z</time>
      </trkpt>
      <trkpt lat="43.40676" lon="5.45555">
        <ele>528.77</ele>
        <time>2020-10-25T08:44:02Z</time>
      </trkpt>
      <trkpt lat="43.40665" lon="5.45576">
        <ele>528.24</ele>
        <time>2020-10-25T08:44:07Z</time>
      </trkpt>
      <trkpt lat="43.4065" lon="5.45594">
        <ele>530.96</ele>
        <time>2020-10-25T08:44:12Z</time>
      </trkpt>
      <trkpt lat="43.4063" lon="5.45604">
        <ele>533.3</ele>
        <time>2020-10-25T08:44:18Z</time>
      </trkpt>
      <trkpt lat="43.40612" lon="5.45607">
        <ele>535.48</ele>
        <time>2020-10-25T08:44:24Z</time>
      </trkpt>
      <trkpt lat="43.40597" lon="5.45623">
        <ele>537.57</ele>
        <time>2020-10-25T08:44:31Z</time>
      </trkpt>
      <trkpt lat="43.406" lon="5.45649">
        <ele>540.18</ele>
        <time>2020-10-25T08:44:37Z</time>
      </trkpt>
      <trkpt lat="43.40601" lon="5.45674">
        <ele>543.2</ele>
        <time>2020-10-25T08:44:44Z</time>
      </trkpt>
      <trkpt lat="43.40601" lon="5.45701">
        <ele>541.12</ele>
        <time>2020-10-25T08:44:50Z</time>
      </trkpt>
      <trkpt lat="43.40598" lon="5.45728">
        <ele>544.4</ele>
        <time>2020-10-25T08:44:57Z</time>
      </trkpt>
      <trkpt lat="43.40593" lon="5.45753">
        <ele>547</ele>
        <time>2020-10-25T08:45:04Z</time>
      </trkpt>
      <trkpt lat="43.40584" lon="5.45777">
        <ele>548.32</ele>
        <time>2020-10-25T08:45:11Z</time>
      </trkpt>
      <trkpt lat="43.40568" lon="5.45792">
        <ele>550.78</ele>
        <time>2020-10-25T08:45:17Z</time>
      </trkpt>
      <trkpt lat="43.40573" lon="5.45819">
        <ele>554.4</ele>
        <time>2020-10-25T08:45:24Z</time>
      </trkpt>
      <trkpt lat="43.40573" lon="5.45846">
        <ele>555.13</ele>
        <time>2020-10-25T08:45:30Z</time>
      </trkpt>
      <trkpt lat="43.4056" lon="5.45864">
        <ele>557.99</ele>
        <time>2020-10-25T08:45:36Z</time>
      </trkpt>
      <trkpt lat="43.40541" lon="5.45874">
        <ele>561.81</ele>
        <time>2020-10-25T08:45:43Z</time>
      </trkpt>
      <trkpt lat="43.40535" lon="5.459">
        <ele>563.44</ele>
        <time>2020-10-25T08:45:51Z</time>
      </trkpt>
      <trkpt lat="43.40542" lon="5.45924">
        <ele>564.19</ele>
        <time>2020-10-25T08:45:58Z</time>
      </trkpt>
      <trkpt lat="43.40541" lon="5.45949">
        <ele>567.08</ele>
        <time>2020-10-25T08:46:05Z</time>
      </trkpt>
      <trkpt lat="43.40554" lon="5.45929">
        <ele>568</ele>
        <time>2020-10-25T08:46:14Z</time>
      </trkpt>
      <trkpt lat="43.40554" lon="5.45899">
        <ele>569.59</ele>
        <time>2020-10-25T08:46:22Z</time>
      </trkpt>
      <trkpt lat="43.40571" lon="5.45882">
        <ele>570.1</ele>
        <time>2020-10-25T08:46:28Z</time>
      </trkpt>
      <trkpt lat="43.40586" lon="5.45866">
        <ele>568.64</ele>
        <time>2020-10-25T08:46:34Z</time>
      </trkpt>
      <trkpt lat="43.40598" lon="5.45846">
        <ele>566.66</ele>
        <time>2020-10-25T08:46:40Z</time>
      </trkpt>
      <trkpt lat="43.40604" lon="5.45822">
        <ele>568.62</ele>
        <time>2020-10-25T08:46:46Z</time>
      </trkpt>
      <trkpt lat="43.4061" lon="5.45797">
        <ele>571.13</ele>
        <time>2020-10-25T08:46:53Z</time>
      </trkpt>
      <trkpt lat="43.40625" lon="5.45782">
        <ele>573.72</ele>
        <time>2020-10-25T08:47:00Z</time>
      </trkpt>
      <trkpt lat="43.40635" lon="5.45762">
        <ele>573.67</ele>
        <time>2020-10-25T08:47:07Z</time>
      </trkpt>
      <trkpt lat="43.4064" lon="5.45735">
        <ele>574.21</ele>
        <time>2020-10-25T08:47:14Z</time>
      </trkpt>
      <trkpt lat="43.4065" lon="5.45712">
        <ele>573.73</ele>
        <time>2020-10-25T08:47:20Z</time>
      </trkpt>
      <trkpt lat="43.4066" lon="5.45687">
        <ele>572.55</ele>
        <time>2020-10-25T08:47:25Z</time>
      </trkpt>
      <trkpt lat="43.40676" lon="5.45668">
        <ele>574.99</ele>
        <time>2020-10-25T08:47:31Z</time>
      </trkpt>
      <trkpt lat="43.40691" lon="5.45653">
        <ele>575.35</ele>
        <time>2020-10-25T08:47:37Z</time>
      </trkpt>
      <trkpt lat="43.40707" lon="5.4564">
        <ele>577.85</ele>
        <time>2020-10-25T08:47:43Z</time>
      </trkpt>
      <trkpt lat="43.40724" lon="5.45627">
        <ele>578.87</ele>
        <time>2020-10-25T08:47:49Z</time>
      </trkpt>
      <trkpt lat="43.40738" lon="5.45606">
        <ele>579.75</ele>
        <time>2020-10-25T08:47:55Z</time>
      </trkpt>
      <trkpt lat="43.40749" lon="5.45585">
        <ele>586.77</ele>
        <time>2020-10-25T08:48:01Z</time>
      </trkpt>
      <trkpt lat="43.40763" lon="5.45566">
        <ele>590.62</ele>
        <time>2020-10-25T08:48:07Z</time>
      </trkpt>
      <trkpt lat="43.40782" lon="5.45568">
        <ele>591.32</ele>
        <time>2020-10-25T08:48:14Z</time>
      </trkpt>
      <trkpt lat="43.40796" lon="5.45583">
        <ele>591.8</ele>
        <time>2020-10-25T08:48:20Z</time>
      </trkpt>
      <trkpt lat="43.40813" lon="5.45596">
        <ele>591.69</ele>
        <time>2020-10-25T08:48:27Z</time>
      </trkpt>
      <trkpt lat="43.4083" lon="5.45605">
        <ele>589.53</ele>
        <time>2020-10-25T08:48:39Z</time>
      </trkpt>
      <trkpt lat="43.40844" lon="5.4562">
        <ele>588.77</ele>
        <time>2020-10-25T08:48:55Z</time>
      </trkpt>
      <trkpt lat="43.40859" lon="5.4564">
        <ele>587.33</ele>
        <time>2020-10-25T08:49:01Z</time>
      </trkpt>
      <trkpt lat="43.40863" lon="5.45667">
        <ele>588.31</ele>
        <time>2020-10-25T08:49:08Z</time>
      </trkpt>
      <trkpt lat="43.40861" lon="5.45693">
        <ele>588.84</ele>
        <time>2020-10-25T08:49:13Z</time>
      </trkpt>
      <trkpt lat="43.40855" lon="5.4572">
        <ele>587.86</ele>
        <time>2020-10-25T08:49:17Z</time>
      </trkpt>
      <trkpt lat="43.40842" lon="5.4574">
        <ele>587.97</ele>
        <time>2020-10-25T08:49:21Z</time>
      </trkpt>
      <trkpt lat="43.40827" lon="5.45761">
        <ele>590.89</ele>
        <time>2020-10-25T08:49:28Z</time>
      </trkpt>
      <trkpt lat="43.40814" lon="5.45782">
        <ele>590.97</ele>
        <time>2020-10-25T08:49:34Z</time>
      </trkpt>
      <trkpt lat="43.40801" lon="5.45802">
        <ele>590.34</ele>
        <time>2020-10-25T08:49:40Z</time>
      </trkpt>
      <trkpt lat="43.40789" lon="5.45823">
        <ele>590.81</ele>
        <time>2020-10-25T08:49:46Z</time>
      </trkpt>
      <trkpt lat="43.40783" lon="5.45848">
        <ele>591.12</ele>
        <time>2020-10-25T08:49:52Z</time>
      </trkpt>
      <trkpt lat="43.40781" lon="5.45873">
        <ele>592.56</ele>
        <time>2020-10-25T08:49:57Z</time>
      </trkpt>
      <trkpt lat="43.40784" lon="5.459">
        <ele>596.47</ele>
        <time>2020-10-25T08:50:03Z</time>
      </trkpt>
      <trkpt lat="43.40775" lon="5.45924">
        <ele>597.74</ele>
        <time>2020-10-25T08:50:10Z</time>
      </trkpt>
      <trkpt lat="43.40757" lon="5.45935">
        <ele>598.89</ele>
        <time>2020-10-25T08:50:16Z</time>
      </trkpt>
      <trkpt lat="43.4074" lon="5.45943">
        <ele>599.62</ele>
        <time>2020-10-25T08:50:22Z</time>
      </trkpt>
      <trkpt lat="43.40722" lon="5.45955">
        <ele>600.46</ele>
        <time>2020-10-25T08:50:29Z</time>
      </trkpt>
      <trkpt lat="43.40709" lon="5.45973">
        <ele>601.84</ele>
        <time>2020-10-25T08:50:35Z</time>
      </trkpt>
      <trkpt lat="43.40696" lon="5.45995">
        <ele>603.19</ele>
        <time>2020-10-25T08:50:42Z</time>
      </trkpt>
      <trkpt lat="43.40676" lon="5.46007">
        <ele>604.43</ele>
        <time>2020-10-25T08:50:49Z</time>
      </trkpt>
      <trkpt lat="43.40658" lon="5.46023">
        <ele>604.73</ele>
        <time>2020-10-25T08:50:55Z</time>
      </trkpt>
      <trkpt lat="43.40645" lon="5.46042">
        <ele>605.47</ele>
        <time>2020-10-25T08:51:00Z</time>
      </trkpt>
      <trkpt lat="43.40631" lon="5.46065">
        <ele>606.52</ele>
        <time>2020-10-25T08:51:06Z</time>
      </trkpt>
      <trkpt lat="43.40619" lon="5.46086">
        <ele>607.18</ele>
        <time>2020-10-25T08:51:12Z</time>
      </trkpt>
      <trkpt lat="43.4061" lon="5.46111">
        <ele>609.29</ele>
        <time>2020-10-25T08:51:19Z</time>
      </trkpt>
      <trkpt lat="43.40609" lon="5.46137">
        <ele>611.68</ele>
        <time>2020-10-25T08:51:25Z</time>
      </trkpt>
      <trkpt lat="43.40607" lon="5.46162">
        <ele>612.26</ele>
        <time>2020-10-25T08:51:31Z</time>
      </trkpt>
      <trkpt lat="43.4061" lon="5.46191">
        <ele>614.04</ele>
        <time>2020-10-25T08:51:38Z</time>
      </trkpt>
      <trkpt lat="43.40622" lon="5.46211">
        <ele>616.6</ele>
        <time>2020-10-25T08:51:44Z</time>
      </trkpt>
      <trkpt lat="43.40615" lon="5.46239">
        <ele>617.79</ele>
        <time>2020-10-25T08:51:51Z</time>
      </trkpt>
      <trkpt lat="43.40613" lon="5.46265">
        <ele>616.41</ele>
        <time>2020-10-25T08:51:55Z</time>
      </trkpt>
      <trkpt lat="43.40615" lon="5.46291">
        <ele>615.6</ele>
        <time>2020-10-25T08:51:59Z</time>
      </trkpt>
      <trkpt lat="43.40617" lon="5.46317">
        <ele>615.49</ele>
        <time>2020-10-25T08:52:03Z</time>
      </trkpt>
      <trkpt lat="43.40617" lon="5.46343">
        <ele>616.13</ele>
        <time>2020-10-25T08:52:07Z</time>
      </trkpt>
      <trkpt lat="43.40618" lon="5.46369">
        <ele>616.6</ele>
        <time>2020-10-25T08:52:11Z</time>
      </trkpt>
      <trkpt lat="43.40619" lon="5.46394">
        <ele>616.8</ele>
        <time>2020-10-25T08:52:15Z</time>
      </trkpt>
      <trkpt lat="43.40618" lon="5.46421">
        <ele>618.61</ele>
        <time>2020-10-25T08:52:20Z</time>
      </trkpt>
      <trkpt lat="43.40608" lon="5.4645">
        <ele>622.78</ele>
        <time>2020-10-25T08:52:25Z</time>
      </trkpt>
      <trkpt lat="43.40599" lon="5.46476">
        <ele>624.74</ele>
        <time>2020-10-25T08:52:29Z</time>
      </trkpt>
      <trkpt lat="43.40589" lon="5.465">
        <ele>628.53</ele>
        <time>2020-10-25T08:52:34Z</time>
      </trkpt>
      <trkpt lat="43.40586" lon="5.4653">
        <ele>630.02</ele>
        <time>2020-10-25T08:52:40Z</time>
      </trkpt>
      <trkpt lat="43.40591" lon="5.46555">
        <ele>630.92</ele>
        <time>2020-10-25T08:52:46Z</time>
      </trkpt>
      <trkpt lat="43.40592" lon="5.46581">
        <ele>632.18</ele>
        <time>2020-10-25T08:52:53Z</time>
      </trkpt>
      <trkpt lat="43.40597" lon="5.46607">
        <ele>634.25</ele>
        <time>2020-10-25T08:52:58Z</time>
      </trkpt>
      <trkpt lat="43.40588" lon="5.46631">
        <ele>634.82</ele>
        <time>2020-10-25T08:53:03Z</time>
      </trkpt>
      <trkpt lat="43.40573" lon="5.46649">
        <ele>636.37</ele>
        <time>2020-10-25T08:53:08Z</time>
      </trkpt>
      <trkpt lat="43.4056" lon="5.46669">
        <ele>638.08</ele>
        <time>2020-10-25T08:53:13Z</time>
      </trkpt>
      <trkpt lat="43.40555" lon="5.46697">
        <ele>640.67</ele>
        <time>2020-10-25T08:53:21Z</time>
      </trkpt>
      <trkpt lat="43.40562" lon="5.46724">
        <ele>641.57</ele>
        <time>2020-10-25T08:53:28Z</time>
      </trkpt>
      <trkpt lat="43.40569" lon="5.46749">
        <ele>640.2</ele>
        <time>2020-10-25T08:53:34Z</time>
      </trkpt>
      <trkpt lat="43.40578" lon="5.46773">
        <ele>637.36</ele>
        <time>2020-10-25T08:53:39Z</time>
      </trkpt>
      <trkpt lat="43.40595" lon="5.46787">
        <ele>634.36</ele>
        <time>2020-10-25T08:53:43Z</time>
      </trkpt>
      <trkpt lat="43.40614" lon="5.46803">
        <ele>633.02</ele>
        <time>2020-10-25T08:53:47Z</time>
      </trkpt>
      <trkpt lat="43.40628" lon="5.4682">
        <ele>633.01</ele>
        <time>2020-10-25T08:53:51Z</time>
      </trkpt>
      <trkpt lat="43.40611" lon="5.46834">
        <ele>632.11</ele>
        <time>2020-10-25T08:54:09Z</time>
      </trkpt>
      <trkpt lat="43.40592" lon="5.46833">
        <ele>632.57</ele>
        <time>2020-10-25T08:54:15Z</time>
      </trkpt>
      <trkpt lat="43.40571" lon="5.46834">
        <ele>631.9</ele>
        <time>2020-10-25T08:54:20Z</time>
      </trkpt>
      <trkpt lat="43.40551" lon="5.46841">
        <ele>632.48</ele>
        <time>2020-10-25T08:54:25Z</time>
      </trkpt>
      <trkpt lat="43.4054" lon="5.46864">
        <ele>633.62</ele>
        <time>2020-10-25T08:54:30Z</time>
      </trkpt>
      <trkpt lat="43.40538" lon="5.4689">
        <ele>633.26</ele>
        <time>2020-10-25T08:54:34Z</time>
      </trkpt>
      <trkpt lat="43.4054" lon="5.46916">
        <ele>633.73</ele>
        <time>2020-10-25T08:54:38Z</time>
      </trkpt>
      <trkpt lat="43.40533" lon="5.4694">
        <ele>633.17</ele>
        <time>2020-10-25T08:54:45Z</time>
      </trkpt>
      <trkpt lat="43.40522" lon="5.46962">
        <ele>632.39</ele>
        <time>2020-10-25T08:54:50Z</time>
      </trkpt>
      <trkpt lat="43.40516" lon="5.46987">
        <ele>629.73</ele>
        <time>2020-10-25T08:54:55Z</time>
      </trkpt>
      <trkpt lat="43.40521" lon="5.47013">
        <ele>628.52</ele>
        <time>2020-10-25T08:54:59Z</time>
      </trkpt>
      <trkpt lat="43.40524" lon="5.47041">
        <ele>626.69</ele>
        <time>2020-10-25T08:55:04Z</time>
      </trkpt>
      <trkpt lat="43.40514" lon="5.47065">
        <ele>625.57</ele>
        <time>2020-10-25T08:55:09Z</time>
      </trkpt>
      <trkpt lat="43.40503" lon="5.47088">
        <ele>623.52</ele>
        <time>2020-10-25T08:55:13Z</time>
      </trkpt>
      <trkpt lat="43.40501" lon="5.47113">
        <ele>622.09</ele>
        <time>2020-10-25T08:55:17Z</time>
      </trkpt>
      <trkpt lat="43.40489" lon="5.47132">
        <ele>621</ele>
        <time>2020-10-25T08:55:22Z</time>
      </trkpt>
      <trkpt lat="43.40468" lon="5.4714">
        <ele>618.92</ele>
        <time>2020-10-25T08:55:27Z</time>
      </trkpt>
      <trkpt lat="43.40449" lon="5.47145">
        <ele>615.93</ele>
        <time>2020-10-25T08:55:32Z</time>
      </trkpt>
      <trkpt lat="43.40436" lon="5.4717">
        <ele>614.07</ele>
        <time>2020-10-25T08:55:37Z</time>
      </trkpt>
      <trkpt lat="43.40425" lon="5.4719">
        <ele>612.12</ele>
        <time>2020-10-25T08:55:41Z</time>
      </trkpt>
      <trkpt lat="43.40421" lon="5.47218">
        <ele>611.82</ele>
        <time>2020-10-25T08:55:46Z</time>
      </trkpt>
      <trkpt lat="43.40434" lon="5.47243">
        <ele>611.75</ele>
        <time>2020-10-25T08:55:50Z</time>
      </trkpt>
      <trkpt lat="43.40444" lon="5.47267">
        <ele>611.6</ele>
        <time>2020-10-25T08:55:54Z</time>
      </trkpt>
      <trkpt lat="43.40451" lon="5.47293">
        <ele>612.51</ele>
        <time>2020-10-25T08:55:58Z</time>
      </trkpt>
      <trkpt lat="43.40458" lon="5.47322">
        <ele>613.73</ele>
        <time>2020-10-25T08:56:04Z</time>
      </trkpt>
      <trkpt lat="43.40467" lon="5.47346">
        <ele>614.32</ele>
        <time>2020-10-25T08:56:09Z</time>
      </trkpt>
      <trkpt lat="43.40476" lon="5.4737">
        <ele>615.6</ele>
        <time>2020-10-25T08:56:14Z</time>
      </trkpt>
      <trkpt lat="43.4048" lon="5.47397">
        <ele>616.04</ele>
        <time>2020-10-25T08:56:19Z</time>
      </trkpt>
      <trkpt lat="43.40494" lon="5.47419">
        <ele>615.67</ele>
        <time>2020-10-25T08:56:24Z</time>
      </trkpt>
      <trkpt lat="43.40506" lon="5.47439">
        <ele>613.88</ele>
        <time>2020-10-25T08:56:29Z</time>
      </trkpt>
      <trkpt lat="43.40502" lon="5.47464">
        <ele>613.99</ele>
        <time>2020-10-25T08:56:33Z</time>
      </trkpt>
      <trkpt lat="43.405" lon="5.4749">
        <ele>612.18</ele>
        <time>2020-10-25T08:56:37Z</time>
      </trkpt>
      <trkpt lat="43.40509" lon="5.47514">
        <ele>610.7</ele>
        <time>2020-10-25T08:56:41Z</time>
      </trkpt>
      <trkpt lat="43.40516" lon="5.47538">
        <ele>610.09</ele>
        <time>2020-10-25T08:56:45Z</time>
      </trkpt>
      <trkpt lat="43.40528" lon="5.4756">
        <ele>608.17</ele>
        <time>2020-10-25T08:56:49Z</time>
      </trkpt>
      <trkpt lat="43.40547" lon="5.47571">
        <ele>604.71</ele>
        <time>2020-10-25T08:56:53Z</time>
      </trkpt>
      <trkpt lat="43.40569" lon="5.47579">
        <ele>600.54</ele>
        <time>2020-10-25T08:56:57Z</time>
      </trkpt>
      <trkpt lat="43.40581" lon="5.47599">
        <ele>600.01</ele>
        <time>2020-10-25T08:57:01Z</time>
      </trkpt>
      <trkpt lat="43.40594" lon="5.47621">
        <ele>598.84</ele>
        <time>2020-10-25T08:57:05Z</time>
      </trkpt>
      <trkpt lat="43.40609" lon="5.47646">
        <ele>597.49</ele>
        <time>2020-10-25T08:57:09Z</time>
      </trkpt>
      <trkpt lat="43.4062" lon="5.47666">
        <ele>596.73</ele>
        <time>2020-10-25T08:57:12Z</time>
      </trkpt>
      <trkpt lat="43.40635" lon="5.47689">
        <ele>595.85</ele>
        <time>2020-10-25T08:57:16Z</time>
      </trkpt>
      <trkpt lat="43.40653" lon="5.47707">
        <ele>594.51</ele>
        <time>2020-10-25T08:57:20Z</time>
      </trkpt>
      <trkpt lat="43.4067" lon="5.47723">
        <ele>593.05</ele>
        <time>2020-10-25T08:57:24Z</time>
      </trkpt>
      <trkpt lat="43.40686" lon="5.47743">
        <ele>590.96</ele>
        <time>2020-10-25T08:57:28Z</time>
      </trkpt>
      <trkpt lat="43.40701" lon="5.47763">
        <ele>588.21</ele>
        <time>2020-10-25T08:57:32Z</time>
      </trkpt>
      <trkpt lat="43.40716" lon="5.47785">
        <ele>585.82</ele>
        <time>2020-10-25T08:57:36Z</time>
      </trkpt>
      <trkpt lat="43.40729" lon="5.47812">
        <ele>584.05</ele>
        <time>2020-10-25T08:57:40Z</time>
      </trkpt>
      <trkpt lat="43.4074" lon="5.47836">
        <ele>582.34</ele>
        <time>2020-10-25T08:57:43Z</time>
      </trkpt>
      <trkpt lat="43.40748" lon="5.47864">
        <ele>582.06</ele>
        <time>2020-10-25T08:57:47Z</time>
      </trkpt>
      <trkpt lat="43.40754" lon="5.47894">
        <ele>581.7</ele>
        <time>2020-10-25T08:57:52Z</time>
      </trkpt>
      <trkpt lat="43.40761" lon="5.47918">
        <ele>581.27</ele>
        <time>2020-10-25T08:57:56Z</time>
      </trkpt>
      <trkpt lat="43.40769" lon="5.47946">
        <ele>580.5</ele>
        <time>2020-10-25T08:58:01Z</time>
      </trkpt>
      <trkpt lat="43.40778" lon="5.47973">
        <ele>580.24</ele>
        <time>2020-10-25T08:58:06Z</time>
      </trkpt>
      <trkpt lat="43.40786" lon="5.47995">
        <ele>579.49</ele>
        <time>2020-10-25T08:58:10Z</time>
      </trkpt>
      <trkpt lat="43.40789" lon="5.4802">
        <ele>579.68</ele>
        <time>2020-10-25T08:58:14Z</time>
      </trkpt>
      <trkpt lat="43.40793" lon="5.48047">
        <ele>580.32</ele>
        <time>2020-10-25T08:58:18Z</time>
      </trkpt>
      <trkpt lat="43.40795" lon="5.48074">
        <ele>580.76</ele>
        <time>2020-10-25T08:58:22Z</time>
      </trkpt>
      <trkpt lat="43.40794" lon="5.48103">
        <ele>580.29</ele>
        <time>2020-10-25T08:58:26Z</time>
      </trkpt>
      <trkpt lat="43.40793" lon="5.48129">
        <ele>580.82</ele>
        <time>2020-10-25T08:58:30Z</time>
      </trkpt>
      <trkpt lat="43.40793" lon="5.48157">
        <ele>580.75</ele>
        <time>2020-10-25T08:58:34Z</time>
      </trkpt>
      <trkpt lat="43.40791" lon="5.48182">
        <ele>580.73</ele>
        <time>2020-10-25T08:58:38Z</time>
      </trkpt>
      <trkpt lat="43.40793" lon="5.48212">
        <ele>582.29</ele>
        <time>2020-10-25T08:58:43Z</time>
      </trkpt>
      <trkpt lat="43.40797" lon="5.48238">
        <ele>583.02</ele>
        <time>2020-10-25T08:58:48Z</time>
      </trkpt>
      <trkpt lat="43.40801" lon="5.48266">
        <ele>583.81</ele>
        <time>2020-10-25T08:58:53Z</time>
      </trkpt>
      <trkpt lat="43.40807" lon="5.48293">
        <ele>584.46</ele>
        <time>2020-10-25T08:58:58Z</time>
      </trkpt>
      <trkpt lat="43.40814" lon="5.4832">
        <ele>584.29</ele>
        <time>2020-10-25T08:59:03Z</time>
      </trkpt>
      <trkpt lat="43.40821" lon="5.48344">
        <ele>585.96</ele>
        <time>2020-10-25T08:59:08Z</time>
      </trkpt>
      <trkpt lat="43.40837" lon="5.48357">
        <ele>586.48</ele>
        <time>2020-10-25T08:59:16Z</time>
      </trkpt>
      <trkpt lat="43.40846" lon="5.48385">
        <ele>583.34</ele>
        <time>2020-10-25T08:59:22Z</time>
      </trkpt>
      <trkpt lat="43.40852" lon="5.48411">
        <ele>579.59</ele>
        <time>2020-10-25T08:59:29Z</time>
      </trkpt>
      <trkpt lat="43.40858" lon="5.4844">
        <ele>576.85</ele>
        <time>2020-10-25T08:59:34Z</time>
      </trkpt>
      <trkpt lat="43.40866" lon="5.48466">
        <ele>574.31</ele>
        <time>2020-10-25T08:59:37Z</time>
      </trkpt>
      <trkpt lat="43.40876" lon="5.48495">
        <ele>571.2</ele>
        <time>2020-10-25T08:59:40Z</time>
      </trkpt>
      <trkpt lat="43.40885" lon="5.48524">
        <ele>568.86</ele>
        <time>2020-10-25T08:59:43Z</time>
      </trkpt>
      <trkpt lat="43.409" lon="5.48545">
        <ele>566.96</ele>
        <time>2020-10-25T08:59:46Z</time>
      </trkpt>
      <trkpt lat="43.40907" lon="5.4857">
        <ele>566.57</ele>
        <time>2020-10-25T08:59:49Z</time>
      </trkpt>
      <trkpt lat="43.40911" lon="5.48599">
        <ele>565.49</ele>
        <time>2020-10-25T08:59:52Z</time>
      </trkpt>
      <trkpt lat="43.40919" lon="5.48625">
        <ele>562.96</ele>
        <time>2020-10-25T08:59:55Z</time>
      </trkpt>
      <trkpt lat="43.40928" lon="5.48652">
        <ele>560.67</ele>
        <time>2020-10-25T08:59:58Z</time>
      </trkpt>
      <trkpt lat="43.40933" lon="5.48682">
        <ele>558.42</ele>
        <time>2020-10-25T09:00:01Z</time>
      </trkpt>
      <trkpt lat="43.40938" lon="5.4871">
        <ele>555.74</ele>
        <time>2020-10-25T09:00:04Z</time>
      </trkpt>
      <trkpt lat="43.40951" lon="5.48731">
        <ele>553.9</ele>
        <time>2020-10-25T09:00:07Z</time>
      </trkpt>
      <trkpt lat="43.40958" lon="5.48755">
        <ele>552.27</ele>
        <time>2020-10-25T09:00:10Z</time>
      </trkpt>
      <trkpt lat="43.40961" lon="5.48781">
        <ele>550.03</ele>
        <time>2020-10-25T09:00:13Z</time>
      </trkpt>
      <trkpt lat="43.40961" lon="5.48808">
        <ele>547.93</ele>
        <time>2020-10-25T09:00:16Z</time>
      </trkpt>
      <trkpt lat="43.4097" lon="5.48833">
        <ele>546.34</ele>
        <time>2020-10-25T09:00:19Z</time>
      </trkpt>
      <trkpt lat="43.40981" lon="5.48856">
        <ele>544.27</ele>
        <time>2020-10-25T09:00:22Z</time>
      </trkpt>
      <trkpt lat="43.40989" lon="5.48884">
        <ele>542.43</ele>
        <time>2020-10-25T09:00:25Z</time>
      </trkpt>
      <trkpt lat="43.40991" lon="5.48912">
        <ele>541.62</ele>
        <time>2020-10-25T09:00:28Z</time>
      </trkpt>
      <trkpt lat="43.40995" lon="5.48938">
        <ele>539.91</ele>
        <time>2020-10-25T09:00:31Z</time>
      </trkpt>
      <trkpt lat="43.41012" lon="5.48959">
        <ele>537.56</ele>
        <time>2020-10-25T09:00:35Z</time>
      </trkpt>
      <trkpt lat="43.41023" lon="5.4898">
        <ele>535.47</ele>
        <time>2020-10-25T09:00:38Z</time>
      </trkpt>
      <trkpt lat="43.41029" lon="5.49009">
        <ele>533.57</ele>
        <time>2020-10-25T09:00:42Z</time>
      </trkpt>
      <trkpt lat="43.41029" lon="5.49038">
        <ele>532.04</ele>
        <time>2020-10-25T09:00:46Z</time>
      </trkpt>
      <trkpt lat="43.41038" lon="5.49062">
        <ele>535.22</ele>
        <time>2020-10-25T09:00:54Z</time>
      </trkpt>
      <trkpt lat="43.41045" lon="5.49088">
        <ele>537</ele>
        <time>2020-10-25T09:01:01Z</time>
      </trkpt>
      <trkpt lat="43.41046" lon="5.49115">
        <ele>540.04</ele>
        <time>2020-10-25T09:01:09Z</time>
      </trkpt>
      <trkpt lat="43.41045" lon="5.49143">
        <ele>542.39</ele>
        <time>2020-10-25T09:01:16Z</time>
      </trkpt>
      <trkpt lat="43.41047" lon="5.49168">
        <ele>544.21</ele>
        <time>2020-10-25T09:01:23Z</time>
      </trkpt>
      <trkpt lat="43.41043" lon="5.49194">
        <ele>546.64</ele>
        <time>2020-10-25T09:01:30Z</time>
      </trkpt>
      <trkpt lat="43.41047" lon="5.49221">
        <ele>549.32</ele>
        <time>2020-10-25T09:01:37Z</time>
      </trkpt>
      <trkpt lat="43.41041" lon="5.49246">
        <ele>551.77</ele>
        <time>2020-10-25T09:01:45Z</time>
      </trkpt>
      <trkpt lat="43.41031" lon="5.49269">
        <ele>555.27</ele>
        <time>2020-10-25T09:01:54Z</time>
      </trkpt>
      <trkpt lat="43.4103" lon="5.49296">
        <ele>556.49</ele>
        <time>2020-10-25T09:02:01Z</time>
      </trkpt>
      <trkpt lat="43.41031" lon="5.49323">
        <ele>557.81</ele>
        <time>2020-10-25T09:02:08Z</time>
      </trkpt>
      <trkpt lat="43.41027" lon="5.49348">
        <ele>557.5</ele>
        <time>2020-10-25T09:02:14Z</time>
      </trkpt>
      <trkpt lat="43.41017" lon="5.49371">
        <ele>559.23</ele>
        <time>2020-10-25T09:02:21Z</time>
      </trkpt>
      <trkpt lat="43.41005" lon="5.4939">
        <ele>561.33</ele>
        <time>2020-10-25T09:02:28Z</time>
      </trkpt>
      <trkpt lat="43.40993" lon="5.4941">
        <ele>564.07</ele>
        <time>2020-10-25T09:02:36Z</time>
      </trkpt>
      <trkpt lat="43.4098" lon="5.4943">
        <ele>566.78</ele>
        <time>2020-10-25T09:02:44Z</time>
      </trkpt>
      <trkpt lat="43.40968" lon="5.49451">
        <ele>568.31</ele>
        <time>2020-10-25T09:02:51Z</time>
      </trkpt>
      <trkpt lat="43.40968" lon="5.49476">
        <ele>570.45</ele>
        <time>2020-10-25T09:02:58Z</time>
      </trkpt>
      <trkpt lat="43.40959" lon="5.49499">
        <ele>572.32</ele>
        <time>2020-10-25T09:03:05Z</time>
      </trkpt>
      <trkpt lat="43.40944" lon="5.49517">
        <ele>572.71</ele>
        <time>2020-10-25T09:03:11Z</time>
      </trkpt>
      <trkpt lat="43.40927" lon="5.49527">
        <ele>574.59</ele>
        <time>2020-10-25T09:03:17Z</time>
      </trkpt>
      <trkpt lat="43.4092" lon="5.4955">
        <ele>574.59</ele>
        <time>2020-10-25T09:03:23Z</time>
      </trkpt>
      <trkpt lat="43.40921" lon="5.49579">
        <ele>574.56</ele>
        <time>2020-10-25T09:03:28Z</time>
      </trkpt>
      <trkpt lat="43.40919" lon="5.49606">
        <ele>573.6</ele>
        <time>2020-10-25T09:03:32Z</time>
      </trkpt>
      <trkpt lat="43.4091" lon="5.49631">
        <ele>573.33</ele>
        <time>2020-10-25T09:03:36Z</time>
      </trkpt>
      <trkpt lat="43.40899" lon="5.49651">
        <ele>573.57</ele>
        <time>2020-10-25T09:03:40Z</time>
      </trkpt>
      <trkpt lat="43.40878" lon="5.49661">
        <ele>573.72</ele>
        <time>2020-10-25T09:03:44Z</time>
      </trkpt>
      <trkpt lat="43.40869" lon="5.4969">
        <ele>573.23</ele>
        <time>2020-10-25T09:03:48Z</time>
      </trkpt>
      <trkpt lat="43.40867" lon="5.49717">
        <ele>572.04</ele>
        <time>2020-10-25T09:03:51Z</time>
      </trkpt>
      <trkpt lat="43.40866" lon="5.49745">
        <ele>570.91</ele>
        <time>2020-10-25T09:03:54Z</time>
      </trkpt>
      <trkpt lat="43.40859" lon="5.49774">
        <ele>569.45</ele>
        <time>2020-10-25T09:03:58Z</time>
      </trkpt>
      <trkpt lat="43.4084" lon="5.49792">
        <ele>568.15</ele>
        <time>2020-10-25T09:04:02Z</time>
      </trkpt>
      <trkpt lat="43.40847" lon="5.49821">
        <ele>567.96</ele>
        <time>2020-10-25T09:04:06Z</time>
      </trkpt>
      <trkpt lat="43.40856" lon="5.4985">
        <ele>568.86</ele>
        <time>2020-10-25T09:04:10Z</time>
      </trkpt>
      <trkpt lat="43.40841" lon="5.49871">
        <ele>568.34</ele>
        <time>2020-10-25T09:04:15Z</time>
      </trkpt>
      <trkpt lat="43.40828" lon="5.4989">
        <ele>568.4</ele>
        <time>2020-10-25T09:04:19Z</time>
      </trkpt>
      <trkpt lat="43.40835" lon="5.49918">
        <ele>569.09</ele>
        <time>2020-10-25T09:04:23Z</time>
      </trkpt>
      <trkpt lat="43.40841" lon="5.49948">
        <ele>569.09</ele>
        <time>2020-10-25T09:04:27Z</time>
      </trkpt>
      <trkpt lat="43.40824" lon="5.49968">
        <ele>568.93</ele>
        <time>2020-10-25T09:04:31Z</time>
      </trkpt>
      <trkpt lat="43.40804" lon="5.4998">
        <ele>569.31</ele>
        <time>2020-10-25T09:04:35Z</time>
      </trkpt>
      <trkpt lat="43.40784" lon="5.49995">
        <ele>569.24</ele>
        <time>2020-10-25T09:04:39Z</time>
      </trkpt>
      <trkpt lat="43.40764" lon="5.50011">
        <ele>569.33</ele>
        <time>2020-10-25T09:04:43Z</time>
      </trkpt>
      <trkpt lat="43.40743" lon="5.50017">
        <ele>569.59</ele>
        <time>2020-10-25T09:04:47Z</time>
      </trkpt>
      <trkpt lat="43.40724" lon="5.5003">
        <ele>571.07</ele>
        <time>2020-10-25T09:04:51Z</time>
      </trkpt>
      <trkpt lat="43.40711" lon="5.50054">
        <ele>571.95</ele>
        <time>2020-10-25T09:04:55Z</time>
      </trkpt>
      <trkpt lat="43.4071" lon="5.50079">
        <ele>572.5</ele>
        <time>2020-10-25T09:04:58Z</time>
      </trkpt>
      <trkpt lat="43.40707" lon="5.50109">
        <ele>572.84</ele>
        <time>2020-10-25T09:05:02Z</time>
      </trkpt>
      <trkpt lat="43.40707" lon="5.50137">
        <ele>573.38</ele>
        <time>2020-10-25T09:05:06Z</time>
      </trkpt>
      <trkpt lat="43.40706" lon="5.50166">
        <ele>574</ele>
        <time>2020-10-25T09:05:11Z</time>
      </trkpt>
      <trkpt lat="43.40697" lon="5.50192">
        <ele>574.85</ele>
        <time>2020-10-25T09:05:16Z</time>
      </trkpt>
      <trkpt lat="43.4069" lon="5.50219">
        <ele>576.28</ele>
        <time>2020-10-25T09:05:20Z</time>
      </trkpt>
      <trkpt lat="43.40684" lon="5.50247">
        <ele>576.07</ele>
        <time>2020-10-25T09:05:24Z</time>
      </trkpt>
      <trkpt lat="43.4068" lon="5.50274">
        <ele>577.65</ele>
        <time>2020-10-25T09:05:28Z</time>
      </trkpt>
      <trkpt lat="43.40675" lon="5.503">
        <ele>578.79</ele>
        <time>2020-10-25T09:05:32Z</time>
      </trkpt>
      <trkpt lat="43.40675" lon="5.50328">
        <ele>581.08</ele>
        <time>2020-10-25T09:05:37Z</time>
      </trkpt>
      <trkpt lat="43.40664" lon="5.5035">
        <ele>584.07</ele>
        <time>2020-10-25T09:05:43Z</time>
      </trkpt>
      <trkpt lat="43.40651" lon="5.50369">
        <ele>587.47</ele>
        <time>2020-10-25T09:05:50Z</time>
      </trkpt>
      <trkpt lat="43.40658" lon="5.50396">
        <ele>590.16</ele>
        <time>2020-10-25T09:05:57Z</time>
      </trkpt>
      <trkpt lat="43.4067" lon="5.50418">
        <ele>593.03</ele>
        <time>2020-10-25T09:06:04Z</time>
      </trkpt>
      <trkpt lat="43.40664" lon="5.50445">
        <ele>595.87</ele>
        <time>2020-10-25T09:06:11Z</time>
      </trkpt>
      <trkpt lat="43.40667" lon="5.50472">
        <ele>597.38</ele>
        <time>2020-10-25T09:06:18Z</time>
      </trkpt>
      <trkpt lat="43.40669" lon="5.50499">
        <ele>599.37</ele>
        <time>2020-10-25T09:06:25Z</time>
      </trkpt>
      <trkpt lat="43.40661" lon="5.50522">
        <ele>600.53</ele>
        <time>2020-10-25T09:06:31Z</time>
      </trkpt>
      <trkpt lat="43.40661" lon="5.50547">
        <ele>602.51</ele>
        <time>2020-10-25T09:06:37Z</time>
      </trkpt>
      <trkpt lat="43.40665" lon="5.50573">
        <ele>603.56</ele>
        <time>2020-10-25T09:06:43Z</time>
      </trkpt>
      <trkpt lat="43.40656" lon="5.50596">
        <ele>605.72</ele>
        <time>2020-10-25T09:06:50Z</time>
      </trkpt>
      <trkpt lat="43.40652" lon="5.50623">
        <ele>608.93</ele>
        <time>2020-10-25T09:06:58Z</time>
      </trkpt>
      <trkpt lat="43.40657" lon="5.5065">
        <ele>611.81</ele>
        <time>2020-10-25T09:07:06Z</time>
      </trkpt>
      <trkpt lat="43.40658" lon="5.50675">
        <ele>613.93</ele>
        <time>2020-10-25T09:07:13Z</time>
      </trkpt>
      <trkpt lat="43.40657" lon="5.50701">
        <ele>616.76</ele>
        <time>2020-10-25T09:07:21Z</time>
      </trkpt>
      <trkpt lat="43.40652" lon="5.50726">
        <ele>619.25</ele>
        <time>2020-10-25T09:07:30Z</time>
      </trkpt>
      <trkpt lat="43.40654" lon="5.50751">
        <ele>620.26</ele>
        <time>2020-10-25T09:07:37Z</time>
      </trkpt>
      <trkpt lat="43.40658" lon="5.50779">
        <ele>622.23</ele>
        <time>2020-10-25T09:07:46Z</time>
      </trkpt>
      <trkpt lat="43.4066" lon="5.50804">
        <ele>624.51</ele>
        <time>2020-10-25T09:07:54Z</time>
      </trkpt>
      <trkpt lat="43.40664" lon="5.5083">
        <ele>627.48</ele>
        <time>2020-10-25T09:08:03Z</time>
      </trkpt>
      <trkpt lat="43.40682" lon="5.50828">
        <ele>629.31</ele>
        <time>2020-10-25T09:08:11Z</time>
      </trkpt>
      <trkpt lat="43.40698" lon="5.50815">
        <ele>631.2</ele>
        <time>2020-10-25T09:08:18Z</time>
      </trkpt>
      <trkpt lat="43.40714" lon="5.50802">
        <ele>634.95</ele>
        <time>2020-10-25T09:08:26Z</time>
      </trkpt>
      <trkpt lat="43.4073" lon="5.50788">
        <ele>637.02</ele>
        <time>2020-10-25T09:08:34Z</time>
      </trkpt>
      <trkpt lat="43.40747" lon="5.50776">
        <ele>639.49</ele>
        <time>2020-10-25T09:08:42Z</time>
      </trkpt>
      <trkpt lat="43.40764" lon="5.50768">
        <ele>641.53</ele>
        <time>2020-10-25T09:08:50Z</time>
      </trkpt>
      <trkpt lat="43.40783" lon="5.50775">
        <ele>644.33</ele>
        <time>2020-10-25T09:08:58Z</time>
      </trkpt>
      <trkpt lat="43.40798" lon="5.50793">
        <ele>646.84</ele>
        <time>2020-10-25T09:09:06Z</time>
      </trkpt>
      <trkpt lat="43.4081" lon="5.50812">
        <ele>648.6</ele>
        <time>2020-10-25T09:09:13Z</time>
      </trkpt>
      <trkpt lat="43.40825" lon="5.50826">
        <ele>650.56</ele>
        <time>2020-10-25T09:09:20Z</time>
      </trkpt>
      <trkpt lat="43.40836" lon="5.50848">
        <ele>650.68</ele>
        <time>2020-10-25T09:09:28Z</time>
      </trkpt>
      <trkpt lat="43.40834" lon="5.50872">
        <ele>650.37</ele>
        <time>2020-10-25T09:09:36Z</time>
      </trkpt>
      <trkpt lat="43.40841" lon="5.50895">
        <ele>652.07</ele>
        <time>2020-10-25T09:09:43Z</time>
      </trkpt>
      <trkpt lat="43.40837" lon="5.5092">
        <ele>654.04</ele>
        <time>2020-10-25T09:09:51Z</time>
      </trkpt>
      <trkpt lat="43.40837" lon="5.50945">
        <ele>655.59</ele>
        <time>2020-10-25T09:09:59Z</time>
      </trkpt>
      <trkpt lat="43.40854" lon="5.50955">
        <ele>655.88</ele>
        <time>2020-10-25T09:10:07Z</time>
      </trkpt>
      <trkpt lat="43.40868" lon="5.50972">
        <ele>657.43</ele>
        <time>2020-10-25T09:10:14Z</time>
      </trkpt>
      <trkpt lat="43.40882" lon="5.5099">
        <ele>658.98</ele>
        <time>2020-10-25T09:10:21Z</time>
      </trkpt>
      <trkpt lat="43.4089" lon="5.51013">
        <ele>660.64</ele>
        <time>2020-10-25T09:10:30Z</time>
      </trkpt>
      <trkpt lat="43.40895" lon="5.51037">
        <ele>663.51</ele>
        <time>2020-10-25T09:10:38Z</time>
      </trkpt>
      <trkpt lat="43.40903" lon="5.51064">
        <ele>668.65</ele>
        <time>2020-10-25T09:10:47Z</time>
      </trkpt>
      <trkpt lat="43.40909" lon="5.51088">
        <ele>669.81</ele>
        <time>2020-10-25T09:10:54Z</time>
      </trkpt>
      <trkpt lat="43.40912" lon="5.51113">
        <ele>671.77</ele>
        <time>2020-10-25T09:11:02Z</time>
      </trkpt>
      <trkpt lat="43.40914" lon="5.51141">
        <ele>673.98</ele>
        <time>2020-10-25T09:11:11Z</time>
      </trkpt>
      <trkpt lat="43.4092" lon="5.51165">
        <ele>676.21</ele>
        <time>2020-10-25T09:11:21Z</time>
      </trkpt>
      <trkpt lat="43.40903" lon="5.51154">
        <ele>680.16</ele>
        <time>2020-10-25T09:11:40Z</time>
      </trkpt>
      <trkpt lat="43.40894" lon="5.5113">
        <ele>682.36</ele>
        <time>2020-10-25T09:11:48Z</time>
      </trkpt>
      <trkpt lat="43.40885" lon="5.51106">
        <ele>683.69</ele>
        <time>2020-10-25T09:11:55Z</time>
      </trkpt>
      <trkpt lat="43.40876" lon="5.51085">
        <ele>684.81</ele>
        <time>2020-10-25T09:12:02Z</time>
      </trkpt>
      <trkpt lat="43.40865" lon="5.51065">
        <ele>686.37</ele>
        <time>2020-10-25T09:12:09Z</time>
      </trkpt>
      <trkpt lat="43.40851" lon="5.51045">
        <ele>689.66</ele>
        <time>2020-10-25T09:12:16Z</time>
      </trkpt>
      <trkpt lat="43.40833" lon="5.51036">
        <ele>692.41</ele>
        <time>2020-10-25T09:12:24Z</time>
      </trkpt>
      <trkpt lat="43.40813" lon="5.51027">
        <ele>693.22</ele>
        <time>2020-10-25T09:12:37Z</time>
      </trkpt>
      <trkpt lat="43.40795" lon="5.51018">
        <ele>697.65</ele>
        <time>2020-10-25T09:12:46Z</time>
      </trkpt>
      <trkpt lat="43.4078" lon="5.51003">
        <ele>698.36</ele>
        <time>2020-10-25T09:12:54Z</time>
      </trkpt>
      <trkpt lat="43.40767" lon="5.50982">
        <ele>700.6</ele>
        <time>2020-10-25T09:13:01Z</time>
      </trkpt>
      <trkpt lat="43.40754" lon="5.50964">
        <ele>702.43</ele>
        <time>2020-10-25T09:13:09Z</time>
      </trkpt>
      <trkpt lat="43.40737" lon="5.50972">
        <ele>704.98</ele>
        <time>2020-10-25T09:13:18Z</time>
      </trkpt>
      <trkpt lat="43.40722" lon="5.50989">
        <ele>707.53</ele>
        <time>2020-10-25T09:13:27Z</time>
      </trkpt>
      <trkpt lat="43.40706" lon="5.51004">
        <ele>709.43</ele>
        <time>2020-10-25T09:13:35Z</time>
      </trkpt>
      <trkpt lat="43.40695" lon="5.51025">
        <ele>710.52</ele>
        <time>2020-10-25T09:13:43Z</time>
      </trkpt>
      <trkpt lat="43.40682" lon="5.51044">
        <ele>709.89</ele>
        <time>2020-10-25T09:13:51Z</time>
      </trkpt>
      <trkpt lat="43.40672" lon="5.51067">
        <ele>715.46</ele>
        <time>2020-10-25T09:14:00Z</time>
      </trkpt>
      <trkpt lat="43.40664" lon="5.5109">
        <ele>718.42</ele>
        <time>2020-10-25T09:14:09Z</time>
      </trkpt>
      <trkpt lat="43.40655" lon="5.51112">
        <ele>719.26</ele>
        <time>2020-10-25T09:14:17Z</time>
      </trkpt>
      <trkpt lat="43.40643" lon="5.5113">
        <ele>722.46</ele>
        <time>2020-10-25T09:14:26Z</time>
      </trkpt>
      <trkpt lat="43.40628" lon="5.51148">
        <ele>727.17</ele>
        <time>2020-10-25T09:14:36Z</time>
      </trkpt>
      <trkpt lat="43.40614" lon="5.51165">
        <ele>729.08</ele>
        <time>2020-10-25T09:14:45Z</time>
      </trkpt>
      <trkpt lat="43.40596" lon="5.51172">
        <ele>731.35</ele>
        <time>2020-10-25T09:14:55Z</time>
      </trkpt>
      <trkpt lat="43.40612" lon="5.51185">
        <ele>734.51</ele>
        <time>2020-10-25T09:15:13Z</time>
      </trkpt>
      <trkpt lat="43.40628" lon="5.51172">
        <ele>734.59</ele>
        <time>2020-10-25T09:15:21Z</time>
      </trkpt>
      <trkpt lat="43.40646" lon="5.51158">
        <ele>735.86</ele>
        <time>2020-10-25T09:15:29Z</time>
      </trkpt>
      <trkpt lat="43.40663" lon="5.51144">
        <ele>736.14</ele>
        <time>2020-10-25T09:15:35Z</time>
      </trkpt>
      <trkpt lat="43.40678" lon="5.51126">
        <ele>736.36</ele>
        <time>2020-10-25T09:15:40Z</time>
      </trkpt>
      <trkpt lat="43.4069" lon="5.51102">
        <ele>736.6</ele>
        <time>2020-10-25T09:15:45Z</time>
      </trkpt>
      <trkpt lat="43.40704" lon="5.51086">
        <ele>739.42</ele>
        <time>2020-10-25T09:15:50Z</time>
      </trkpt>
      <trkpt lat="43.40725" lon="5.51087">
        <ele>741.05</ele>
        <time>2020-10-25T09:15:57Z</time>
      </trkpt>
      <trkpt lat="43.4074" lon="5.51104">
        <ele>742.83</ele>
        <time>2020-10-25T09:16:03Z</time>
      </trkpt>
      <trkpt lat="43.40754" lon="5.51122">
        <ele>746.08</ele>
        <time>2020-10-25T09:16:09Z</time>
      </trkpt>
      <trkpt lat="43.40768" lon="5.5114">
        <ele>747.63</ele>
        <time>2020-10-25T09:16:15Z</time>
      </trkpt>
      <trkpt lat="43.40779" lon="5.51162">
        <ele>748.38</ele>
        <time>2020-10-25T09:16:21Z</time>
      </trkpt>
      <trkpt lat="43.40783" lon="5.5119">
        <ele>750.95</ele>
        <time>2020-10-25T09:16:27Z</time>
      </trkpt>
      <trkpt lat="43.40777" lon="5.51217">
        <ele>750.28</ele>
        <time>2020-10-25T09:16:33Z</time>
      </trkpt>
      <trkpt lat="43.40761" lon="5.51235">
        <ele>751.46</ele>
        <time>2020-10-25T09:16:40Z</time>
      </trkpt>
      <trkpt lat="43.40746" lon="5.51249">
        <ele>755.95</ele>
        <time>2020-10-25T09:16:47Z</time>
      </trkpt>
      <trkpt lat="43.40732" lon="5.51266">
        <ele>757.03</ele>
        <time>2020-10-25T09:16:53Z</time>
      </trkpt>
      <trkpt lat="43.40717" lon="5.51281">
        <ele>758.34</ele>
        <time>2020-10-25T09:17:00Z</time>
      </trkpt>
      <trkpt lat="43.40699" lon="5.51292">
        <ele>760.09</ele>
        <time>2020-10-25T09:17:08Z</time>
      </trkpt>
      <trkpt lat="43.40706" lon="5.51266">
        <ele>762.2</ele>
        <time>2020-10-25T09:17:19Z</time>
      </trkpt>
      <trkpt lat="43.40718" lon="5.51246">
        <ele>763.44</ele>
        <time>2020-10-25T09:17:27Z</time>
      </trkpt>
      <trkpt lat="43.40722" lon="5.51221">
        <ele>765.93</ele>
        <time>2020-10-25T09:17:34Z</time>
      </trkpt>
      <trkpt lat="43.40727" lon="5.51197">
        <ele>767.08</ele>
        <time>2020-10-25T09:17:41Z</time>
      </trkpt>
      <trkpt lat="43.40708" lon="5.51207">
        <ele>771.09</ele>
        <time>2020-10-25T09:18:05Z</time>
      </trkpt>
      <trkpt lat="43.40695" lon="5.51225">
        <ele>773.1</ele>
        <time>2020-10-25T09:18:12Z</time>
      </trkpt>
      <trkpt lat="43.40679" lon="5.51238">
        <ele>776.62</ele>
        <time>2020-10-25T09:18:20Z</time>
      </trkpt>
      <trkpt lat="43.40669" lon="5.51259">
        <ele>777.78</ele>
        <time>2020-10-25T09:22:55Z</time>
      </trkpt>
      <trkpt lat="43.40653" lon="5.51274">
        <ele>775.74</ele>
        <time>2020-10-25T09:23:04Z</time>
      </trkpt>
      <trkpt lat="43.40632" lon="5.51285">
        <ele>775.28</ele>
        <time>2020-10-25T09:23:10Z</time>
      </trkpt>
      <trkpt lat="43.40614" lon="5.51287">
        <ele>775.87</ele>
        <time>2020-10-25T09:23:14Z</time>
      </trkpt>
      <trkpt lat="43.40596" lon="5.51292">
        <ele>772.72</ele>
        <time>2020-10-25T09:23:19Z</time>
      </trkpt>
      <trkpt lat="43.40578" lon="5.5128">
        <ele>775.83</ele>
        <time>2020-10-25T09:23:26Z</time>
      </trkpt>
      <trkpt lat="43.40559" lon="5.51278">
        <ele>777.28</ele>
        <time>2020-10-25T09:24:42Z</time>
      </trkpt>
      <trkpt lat="43.40542" lon="5.5127">
        <ele>781.57</ele>
        <time>2020-10-25T09:25:13Z</time>
      </trkpt>
      <trkpt lat="43.40531" lon="5.51291">
        <ele>775.9</ele>
        <time>2020-10-25T09:26:03Z</time>
      </trkpt>
      <trkpt lat="43.4052" lon="5.51313">
        <ele>767.03</ele>
        <time>2020-10-25T09:26:35Z</time>
      </trkpt>
      <trkpt lat="43.40527" lon="5.51336">
        <ele>756.32</ele>
        <time>2020-10-25T09:30:06Z</time>
      </trkpt>
      <trkpt lat="43.40545" lon="5.5134">
        <ele>752.27</ele>
        <time>2020-10-25T09:30:29Z</time>
      </trkpt>
      <trkpt lat="43.40559" lon="5.51356">
        <ele>741.52</ele>
        <time>2020-10-25T09:30:59Z</time>
      </trkpt>
      <trkpt lat="43.40575" lon="5.51369">
        <ele>738.95</ele>
        <time>2020-10-25T09:31:30Z</time>
      </trkpt>
      <trkpt lat="43.40587" lon="5.51388">
        <ele>734.32</ele>
        <time>2020-10-25T09:32:18Z</time>
      </trkpt>
      <trkpt lat="43.40597" lon="5.5141">
        <ele>726.77</ele>
        <time>2020-10-25T09:32:47Z</time>
      </trkpt>
      <trkpt lat="43.40603" lon="5.51434">
        <ele>717.34</ele>
        <time>2020-10-25T09:33:27Z</time>
      </trkpt>
      <trkpt lat="43.40609" lon="5.51459">
        <ele>714.02</ele>
        <time>2020-10-25T09:33:43Z</time>
      </trkpt>
      <trkpt lat="43.40616" lon="5.51483">
        <ele>708.65</ele>
        <time>2020-10-25T09:34:08Z</time>
      </trkpt>
      <trkpt lat="43.4063" lon="5.51501">
        <ele>703.52</ele>
        <time>2020-10-25T09:34:20Z</time>
      </trkpt>
      <trkpt lat="43.40611" lon="5.51491">
        <ele>700.03</ele>
        <time>2020-10-25T09:35:18Z</time>
      </trkpt>
      <trkpt lat="43.40597" lon="5.51473">
        <ele>701.03</ele>
        <time>2020-10-25T09:35:26Z</time>
      </trkpt>
      <trkpt lat="43.40583" lon="5.51454">
        <ele>702.39</ele>
        <time>2020-10-25T09:35:33Z</time>
      </trkpt>
      <trkpt lat="43.40569" lon="5.51436">
        <ele>701.18</ele>
        <time>2020-10-25T09:35:39Z</time>
      </trkpt>
      <trkpt lat="43.40551" lon="5.51428">
        <ele>701.2</ele>
        <time>2020-10-25T09:35:44Z</time>
      </trkpt>
      <trkpt lat="43.40533" lon="5.51435">
        <ele>702.47</ele>
        <time>2020-10-25T09:35:56Z</time>
      </trkpt>
      <trkpt lat="43.40517" lon="5.5145">
        <ele>701.28</ele>
        <time>2020-10-25T09:36:02Z</time>
      </trkpt>
      <trkpt lat="43.40502" lon="5.51474">
        <ele>699.47</ele>
        <time>2020-10-25T09:36:06Z</time>
      </trkpt>
      <trkpt lat="43.40492" lon="5.51497">
        <ele>697.49</ele>
        <time>2020-10-25T09:36:09Z</time>
      </trkpt>
      <trkpt lat="43.40478" lon="5.51521">
        <ele>695.23</ele>
        <time>2020-10-25T09:36:12Z</time>
      </trkpt>
      <trkpt lat="43.4046" lon="5.51549">
        <ele>692.39</ele>
        <time>2020-10-25T09:36:15Z</time>
      </trkpt>
      <trkpt lat="43.40447" lon="5.51581">
        <ele>689.57</ele>
        <time>2020-10-25T09:36:18Z</time>
      </trkpt>
      <trkpt lat="43.40438" lon="5.51604">
        <ele>687.71</ele>
        <time>2020-10-25T09:36:20Z</time>
      </trkpt>
      <trkpt lat="43.4043" lon="5.51628">
        <ele>686.9</ele>
        <time>2020-10-25T09:36:22Z</time>
      </trkpt>
      <trkpt lat="43.40425" lon="5.51652">
        <ele>686.71</ele>
        <time>2020-10-25T09:36:24Z</time>
      </trkpt>
      <trkpt lat="43.40416" lon="5.51681">
        <ele>687.57</ele>
        <time>2020-10-25T09:36:27Z</time>
      </trkpt>
      <trkpt lat="43.40406" lon="5.51706">
        <ele>689.58</ele>
        <time>2020-10-25T09:36:31Z</time>
      </trkpt>
      <trkpt lat="43.40387" lon="5.5172">
        <ele>690.29</ele>
        <time>2020-10-25T09:36:36Z</time>
      </trkpt>
      <trkpt lat="43.40372" lon="5.51739">
        <ele>688.69</ele>
        <time>2020-10-25T09:36:41Z</time>
      </trkpt>
      <trkpt lat="43.40361" lon="5.51766">
        <ele>685.47</ele>
        <time>2020-10-25T09:36:45Z</time>
      </trkpt>
      <trkpt lat="43.40346" lon="5.51787">
        <ele>683.35</ele>
        <time>2020-10-25T09:36:48Z</time>
      </trkpt>
      <trkpt lat="43.40327" lon="5.51797">
        <ele>682.71</ele>
        <time>2020-10-25T09:36:51Z</time>
      </trkpt>
      <trkpt lat="43.40308" lon="5.51809">
        <ele>682.6</ele>
        <time>2020-10-25T09:36:55Z</time>
      </trkpt>
      <trkpt lat="43.40307" lon="5.51836">
        <ele>680.34</ele>
        <time>2020-10-25T09:36:59Z</time>
      </trkpt>
      <trkpt lat="43.40313" lon="5.51867">
        <ele>678.54</ele>
        <time>2020-10-25T09:37:03Z</time>
      </trkpt>
      <trkpt lat="43.40317" lon="5.51891">
        <ele>678.67</ele>
        <time>2020-10-25T09:37:06Z</time>
      </trkpt>
      <trkpt lat="43.40322" lon="5.5192">
        <ele>677.48</ele>
        <time>2020-10-25T09:37:09Z</time>
      </trkpt>
      <trkpt lat="43.40326" lon="5.51953">
        <ele>676.21</ele>
        <time>2020-10-25T09:37:12Z</time>
      </trkpt>
      <trkpt lat="43.40319" lon="5.51984">
        <ele>674.24</ele>
        <time>2020-10-25T09:37:15Z</time>
      </trkpt>
      <trkpt lat="43.40303" lon="5.52005">
        <ele>672.4</ele>
        <time>2020-10-25T09:37:18Z</time>
      </trkpt>
      <trkpt lat="43.40286" lon="5.52021">
        <ele>670</ele>
        <time>2020-10-25T09:37:21Z</time>
      </trkpt>
      <trkpt lat="43.40268" lon="5.52037">
        <ele>668.11</ele>
        <time>2020-10-25T09:37:24Z</time>
      </trkpt>
      <trkpt lat="43.40251" lon="5.52058">
        <ele>667.25</ele>
        <time>2020-10-25T09:37:27Z</time>
      </trkpt>
      <trkpt lat="43.40237" lon="5.52079">
        <ele>665.97</ele>
        <time>2020-10-25T09:37:30Z</time>
      </trkpt>
      <trkpt lat="43.40224" lon="5.521">
        <ele>663.64</ele>
        <time>2020-10-25T09:37:33Z</time>
      </trkpt>
      <trkpt lat="43.40209" lon="5.52118">
        <ele>661.11</ele>
        <time>2020-10-25T09:37:36Z</time>
      </trkpt>
      <trkpt lat="43.402" lon="5.5214">
        <ele>658.55</ele>
        <time>2020-10-25T09:37:41Z</time>
      </trkpt>
      <trkpt lat="43.40217" lon="5.52154">
        <ele>656.98</ele>
        <time>2020-10-25T09:37:45Z</time>
      </trkpt>
      <trkpt lat="43.40233" lon="5.52166">
        <ele>655.99</ele>
        <time>2020-10-25T09:37:48Z</time>
      </trkpt>
      <trkpt lat="43.40251" lon="5.52177">
        <ele>655.61</ele>
        <time>2020-10-25T09:37:51Z</time>
      </trkpt>
      <trkpt lat="43.40268" lon="5.52185">
        <ele>655.6</ele>
        <time>2020-10-25T09:37:54Z</time>
      </trkpt>
      <trkpt lat="43.40286" lon="5.52194">
        <ele>652.52</ele>
        <time>2020-10-25T09:37:59Z</time>
      </trkpt>
      <trkpt lat="43.40268" lon="5.52197">
        <ele>651.05</ele>
        <time>2020-10-25T09:38:11Z</time>
      </trkpt>
      <trkpt lat="43.40249" lon="5.52192">
        <ele>650.44</ele>
        <time>2020-10-25T09:38:16Z</time>
      </trkpt>
      <trkpt lat="43.40229" lon="5.52187">
        <ele>649.81</ele>
        <time>2020-10-25T09:38:21Z</time>
      </trkpt>
      <trkpt lat="43.40208" lon="5.52177">
        <ele>647.42</ele>
        <time>2020-10-25T09:38:26Z</time>
      </trkpt>
      <trkpt lat="43.40186" lon="5.52168">
        <ele>645.6</ele>
        <time>2020-10-25T09:38:31Z</time>
      </trkpt>
      <trkpt lat="43.40167" lon="5.5216">
        <ele>643.37</ele>
        <time>2020-10-25T09:38:35Z</time>
      </trkpt>
      <trkpt lat="43.40145" lon="5.5216">
        <ele>642.2</ele>
        <time>2020-10-25T09:38:39Z</time>
      </trkpt>
      <trkpt lat="43.40126" lon="5.52157">
        <ele>637.97</ele>
        <time>2020-10-25T09:38:43Z</time>
      </trkpt>
      <trkpt lat="43.40124" lon="5.52132">
        <ele>635.44</ele>
        <time>2020-10-25T09:38:53Z</time>
      </trkpt>
      <trkpt lat="43.40139" lon="5.52108">
        <ele>633.04</ele>
        <time>2020-10-25T09:38:57Z</time>
      </trkpt>
      <trkpt lat="43.40146" lon="5.52082">
        <ele>632.13</ele>
        <time>2020-10-25T09:39:00Z</time>
      </trkpt>
      <trkpt lat="43.40154" lon="5.52055">
        <ele>629.57</ele>
        <time>2020-10-25T09:39:03Z</time>
      </trkpt>
      <trkpt lat="43.40161" lon="5.52023">
        <ele>626.61</ele>
        <time>2020-10-25T09:39:06Z</time>
      </trkpt>
      <trkpt lat="43.40168" lon="5.51991">
        <ele>624.13</ele>
        <time>2020-10-25T09:39:09Z</time>
      </trkpt>
      <trkpt lat="43.40172" lon="5.51961">
        <ele>623.14</ele>
        <time>2020-10-25T09:39:12Z</time>
      </trkpt>
      <trkpt lat="43.40157" lon="5.51944">
        <ele>621.66</ele>
        <time>2020-10-25T09:39:16Z</time>
      </trkpt>
      <trkpt lat="43.40136" lon="5.51942">
        <ele>621.86</ele>
        <time>2020-10-25T09:39:20Z</time>
      </trkpt>
      <trkpt lat="43.40113" lon="5.51937">
        <ele>620.1</ele>
        <time>2020-10-25T09:39:24Z</time>
      </trkpt>
      <trkpt lat="43.40093" lon="5.51936">
        <ele>618.39</ele>
        <time>2020-10-25T09:39:27Z</time>
      </trkpt>
      <trkpt lat="43.40072" lon="5.51939">
        <ele>616.26</ele>
        <time>2020-10-25T09:39:30Z</time>
      </trkpt>
      <trkpt lat="43.40053" lon="5.51935">
        <ele>613.35</ele>
        <time>2020-10-25T09:39:34Z</time>
      </trkpt>
      <trkpt lat="43.40034" lon="5.51928">
        <ele>610.7</ele>
        <time>2020-10-25T09:39:38Z</time>
      </trkpt>
      <trkpt lat="43.40016" lon="5.51933">
        <ele>609.04</ele>
        <time>2020-10-25T09:39:41Z</time>
      </trkpt>
      <trkpt lat="43.39993" lon="5.51935">
        <ele>607.15</ele>
        <time>2020-10-25T09:39:45Z</time>
      </trkpt>
      <trkpt lat="43.39982" lon="5.51914">
        <ele>605.39</ele>
        <time>2020-10-25T09:39:49Z</time>
      </trkpt>
      <trkpt lat="43.39974" lon="5.51891">
        <ele>602.04</ele>
        <time>2020-10-25T09:39:52Z</time>
      </trkpt>
      <trkpt lat="43.39956" lon="5.51878">
        <ele>601.06</ele>
        <time>2020-10-25T09:39:55Z</time>
      </trkpt>
      <trkpt lat="43.39941" lon="5.51862">
        <ele>597.25</ele>
        <time>2020-10-25T09:39:58Z</time>
      </trkpt>
      <trkpt lat="43.39931" lon="5.51839">
        <ele>596.62</ele>
        <time>2020-10-25T09:40:03Z</time>
      </trkpt>
      <trkpt lat="43.39945" lon="5.51819">
        <ele>595.73</ele>
        <time>2020-10-25T09:40:14Z</time>
      </trkpt>
      <trkpt lat="43.39956" lon="5.51795">
        <ele>592.69</ele>
        <time>2020-10-25T09:40:18Z</time>
      </trkpt>
      <trkpt lat="43.39966" lon="5.51773">
        <ele>590.31</ele>
        <time>2020-10-25T09:40:22Z</time>
      </trkpt>
      <trkpt lat="43.39979" lon="5.51753">
        <ele>588.68</ele>
        <time>2020-10-25T09:40:26Z</time>
      </trkpt>
      <trkpt lat="43.39993" lon="5.51737">
        <ele>586.98</ele>
        <time>2020-10-25T09:40:30Z</time>
      </trkpt>
      <trkpt lat="43.40012" lon="5.51734">
        <ele>585.49</ele>
        <time>2020-10-25T09:40:35Z</time>
      </trkpt>
      <trkpt lat="43.40031" lon="5.51722">
        <ele>582.85</ele>
        <time>2020-10-25T09:40:40Z</time>
      </trkpt>
      <trkpt lat="43.40052" lon="5.51711">
        <ele>579.87</ele>
        <time>2020-10-25T09:41:45Z</time>
      </trkpt>
      <trkpt lat="43.40069" lon="5.51699">
        <ele>578.53</ele>
        <time>2020-10-25T09:41:49Z</time>
      </trkpt>
      <trkpt lat="43.40086" lon="5.51692">
        <ele>577.31</ele>
        <time>2020-10-25T09:41:53Z</time>
      </trkpt>
      <trkpt lat="43.40108" lon="5.51682">
        <ele>576.01</ele>
        <time>2020-10-25T09:41:57Z</time>
      </trkpt>
      <trkpt lat="43.40128" lon="5.51671">
        <ele>574.81</ele>
        <time>2020-10-25T09:42:00Z</time>
      </trkpt>
      <trkpt lat="43.40148" lon="5.51655">
        <ele>571.84</ele>
        <time>2020-10-25T09:42:03Z</time>
      </trkpt>
      <trkpt lat="43.40163" lon="5.51631">
        <ele>569.45</ele>
        <time>2020-10-25T09:42:06Z</time>
      </trkpt>
      <trkpt lat="43.40172" lon="5.516">
        <ele>567.18</ele>
        <time>2020-10-25T09:42:09Z</time>
      </trkpt>
      <trkpt lat="43.40176" lon="5.51568">
        <ele>564.57</ele>
        <time>2020-10-25T09:42:12Z</time>
      </trkpt>
      <trkpt lat="43.40172" lon="5.51534">
        <ele>561.11</ele>
        <time>2020-10-25T09:42:15Z</time>
      </trkpt>
      <trkpt lat="43.40157" lon="5.51503">
        <ele>559.37</ele>
        <time>2020-10-25T09:42:18Z</time>
      </trkpt>
      <trkpt lat="43.40147" lon="5.51477">
        <ele>556.26</ele>
        <time>2020-10-25T09:42:21Z</time>
      </trkpt>
      <trkpt lat="43.40143" lon="5.51448">
        <ele>554.4</ele>
        <time>2020-10-25T09:42:24Z</time>
      </trkpt>
      <trkpt lat="43.40131" lon="5.5142">
        <ele>552.31</ele>
        <time>2020-10-25T09:42:27Z</time>
      </trkpt>
      <trkpt lat="43.40118" lon="5.51391">
        <ele>550.09</ele>
        <time>2020-10-25T09:42:30Z</time>
      </trkpt>
      <trkpt lat="43.40096" lon="5.51382">
        <ele>547.95</ele>
        <time>2020-10-25T09:42:33Z</time>
      </trkpt>
      <trkpt lat="43.40079" lon="5.51372">
        <ele>545.81</ele>
        <time>2020-10-25T09:42:36Z</time>
      </trkpt>
      <trkpt lat="43.4007" lon="5.51347">
        <ele>545.37</ele>
        <time>2020-10-25T09:42:39Z</time>
      </trkpt>
      <trkpt lat="43.40056" lon="5.51324">
        <ele>544.1</ele>
        <time>2020-10-25T09:42:42Z</time>
      </trkpt>
      <trkpt lat="43.40033" lon="5.51308">
        <ele>540.72</ele>
        <time>2020-10-25T09:42:45Z</time>
      </trkpt>
      <trkpt lat="43.40011" lon="5.51301">
        <ele>537.95</ele>
        <time>2020-10-25T09:42:48Z</time>
      </trkpt>
      <trkpt lat="43.39994" lon="5.51289">
        <ele>535.84</ele>
        <time>2020-10-25T09:42:51Z</time>
      </trkpt>
      <trkpt lat="43.39985" lon="5.51263">
        <ele>533.56</ele>
        <time>2020-10-25T09:42:54Z</time>
      </trkpt>
      <trkpt lat="43.39972" lon="5.51235">
        <ele>531.11</ele>
        <time>2020-10-25T09:42:57Z</time>
      </trkpt>
      <trkpt lat="43.3996" lon="5.51215">
        <ele>528.95</ele>
        <time>2020-10-25T09:42:59Z</time>
      </trkpt>
      <trkpt lat="43.39948" lon="5.51196">
        <ele>526.95</ele>
        <time>2020-10-25T09:43:01Z</time>
      </trkpt>
      <trkpt lat="43.39928" lon="5.51172">
        <ele>526.53</ele>
        <time>2020-10-25T09:43:04Z</time>
      </trkpt>
      <trkpt lat="43.39905" lon="5.51164">
        <ele>526.93</ele>
        <time>2020-10-25T09:43:07Z</time>
      </trkpt>
      <trkpt lat="43.39883" lon="5.51162">
        <ele>527.1</ele>
        <time>2020-10-25T09:43:10Z</time>
      </trkpt>
      <trkpt lat="43.39868" lon="5.5114">
        <ele>526.48</ele>
        <time>2020-10-25T09:43:14Z</time>
      </trkpt>
      <trkpt lat="43.39862" lon="5.51113">
        <ele>525.52</ele>
        <time>2020-10-25T09:43:17Z</time>
      </trkpt>
      <trkpt lat="43.39856" lon="5.51088">
        <ele>524.59</ele>
        <time>2020-10-25T09:43:20Z</time>
      </trkpt>
      <trkpt lat="43.39853" lon="5.5106">
        <ele>523.64</ele>
        <time>2020-10-25T09:43:23Z</time>
      </trkpt>
      <trkpt lat="43.39847" lon="5.51031">
        <ele>521.86</ele>
        <time>2020-10-25T09:43:26Z</time>
      </trkpt>
      <trkpt lat="43.39835" lon="5.51001">
        <ele>520.6</ele>
        <time>2020-10-25T09:43:29Z</time>
      </trkpt>
      <trkpt lat="43.3982" lon="5.50977">
        <ele>521.49</ele>
        <time>2020-10-25T09:43:32Z</time>
      </trkpt>
      <trkpt lat="43.39801" lon="5.50956">
        <ele>520.18</ele>
        <time>2020-10-25T09:43:35Z</time>
      </trkpt>
      <trkpt lat="43.39779" lon="5.5094">
        <ele>519.17</ele>
        <time>2020-10-25T09:43:38Z</time>
      </trkpt>
      <trkpt lat="43.39764" lon="5.50914">
        <ele>518.16</ele>
        <time>2020-10-25T09:43:41Z</time>
      </trkpt>
      <trkpt lat="43.39754" lon="5.50892">
        <ele>517.95</ele>
        <time>2020-10-25T09:43:44Z</time>
      </trkpt>
      <trkpt lat="43.39739" lon="5.50869">
        <ele>518.05</ele>
        <time>2020-10-25T09:43:48Z</time>
      </trkpt>
      <trkpt lat="43.39727" lon="5.50846">
        <ele>517.82</ele>
        <time>2020-10-25T09:43:52Z</time>
      </trkpt>
      <trkpt lat="43.39712" lon="5.50826">
        <ele>517.71</ele>
        <time>2020-10-25T09:43:56Z</time>
      </trkpt>
      <trkpt lat="43.39695" lon="5.50811">
        <ele>519.99</ele>
        <time>2020-10-25T09:44:02Z</time>
      </trkpt>
      <trkpt lat="43.39677" lon="5.50812">
        <ele>523.47</ele>
        <time>2020-10-25T09:44:08Z</time>
      </trkpt>
      <trkpt lat="43.39659" lon="5.5082">
        <ele>525.66</ele>
        <time>2020-10-25T09:44:14Z</time>
      </trkpt>
      <trkpt lat="43.39641" lon="5.50824">
        <ele>529.29</ele>
        <time>2020-10-25T09:44:21Z</time>
      </trkpt>
      <trkpt lat="43.39623" lon="5.50824">
        <ele>531.69</ele>
        <time>2020-10-25T09:44:28Z</time>
      </trkpt>
      <trkpt lat="43.39604" lon="5.50815">
        <ele>535.12</ele>
        <time>2020-10-25T09:44:36Z</time>
      </trkpt>
      <trkpt lat="43.39592" lon="5.50795">
        <ele>536.92</ele>
        <time>2020-10-25T09:44:43Z</time>
      </trkpt>
      <trkpt lat="43.39583" lon="5.50772">
        <ele>538.59</ele>
        <time>2020-10-25T09:44:52Z</time>
      </trkpt>
      <trkpt lat="43.39567" lon="5.50759">
        <ele>536.08</ele>
        <time>2020-10-25T09:45:01Z</time>
      </trkpt>
      <trkpt lat="43.39548" lon="5.50751">
        <ele>532.55</ele>
        <time>2020-10-25T09:45:08Z</time>
      </trkpt>
      <trkpt lat="43.39532" lon="5.50741">
        <ele>529.97</ele>
        <time>2020-10-25T09:45:15Z</time>
      </trkpt>
      <trkpt lat="43.39513" lon="5.50735">
        <ele>527.43</ele>
        <time>2020-10-25T09:45:25Z</time>
      </trkpt>
      <trkpt lat="43.39532" lon="5.50739">
        <ele>532.44</ele>
        <time>2020-10-25T09:47:58Z</time>
      </trkpt>
      <trkpt lat="43.39549" lon="5.50751">
        <ele>534.78</ele>
        <time>2020-10-25T09:48:11Z</time>
      </trkpt>
      <trkpt lat="43.39566" lon="5.50761">
        <ele>537.66</ele>
        <time>2020-10-25T09:48:51Z</time>
      </trkpt>
      <trkpt lat="43.39584" lon="5.50772">
        <ele>541.18</ele>
        <time>2020-10-25T09:48:59Z</time>
      </trkpt>
      <trkpt lat="43.39591" lon="5.50797">
        <ele>540.41</ele>
        <time>2020-10-25T09:49:06Z</time>
      </trkpt>
      <trkpt lat="43.39605" lon="5.50818">
        <ele>537.91</ele>
        <time>2020-10-25T09:49:14Z</time>
      </trkpt>
      <trkpt lat="43.39625" lon="5.50829">
        <ele>533.61</ele>
        <time>2020-10-25T09:49:20Z</time>
      </trkpt>
      <trkpt lat="43.39644" lon="5.50829">
        <ele>530.28</ele>
        <time>2020-10-25T09:49:25Z</time>
      </trkpt>
      <trkpt lat="43.39663" lon="5.50823">
        <ele>527.4</ele>
        <time>2020-10-25T09:49:31Z</time>
      </trkpt>
      <trkpt lat="43.39681" lon="5.50815">
        <ele>524.76</ele>
        <time>2020-10-25T09:49:37Z</time>
      </trkpt>
      <trkpt lat="43.39702" lon="5.50816">
        <ele>522.26</ele>
        <time>2020-10-25T09:50:02Z</time>
      </trkpt>
      <trkpt lat="43.39718" lon="5.50832">
        <ele>519.83</ele>
        <time>2020-10-25T09:50:07Z</time>
      </trkpt>
      <trkpt lat="43.39697" lon="5.50835">
        <ele>518.99</ele>
        <time>2020-10-25T09:50:50Z</time>
      </trkpt>
      <trkpt lat="43.39677" lon="5.50831">
        <ele>518.43</ele>
        <time>2020-10-25T09:50:56Z</time>
      </trkpt>
      <trkpt lat="43.39658" lon="5.50838">
        <ele>519.77</ele>
        <time>2020-10-25T09:51:04Z</time>
      </trkpt>
      <trkpt lat="43.39642" lon="5.50847">
        <ele>521.24</ele>
        <time>2020-10-25T09:51:12Z</time>
      </trkpt>
      <trkpt lat="43.39624" lon="5.5085">
        <ele>525.35</ele>
        <time>2020-10-25T09:51:19Z</time>
      </trkpt>
      <trkpt lat="43.39604" lon="5.50858">
        <ele>524.52</ele>
        <time>2020-10-25T09:51:27Z</time>
      </trkpt>
      <trkpt lat="43.39584" lon="5.50851">
        <ele>526.01</ele>
        <time>2020-10-25T09:51:34Z</time>
      </trkpt>
      <trkpt lat="43.39566" lon="5.50844">
        <ele>524.61</ele>
        <time>2020-10-25T09:51:40Z</time>
      </trkpt>
      <trkpt lat="43.39549" lon="5.50832">
        <ele>521.23</ele>
        <time>2020-10-25T09:51:46Z</time>
      </trkpt>
      <trkpt lat="43.39532" lon="5.50816">
        <ele>519.43</ele>
        <time>2020-10-25T09:51:52Z</time>
      </trkpt>
      <trkpt lat="43.39516" lon="5.50801">
        <ele>518.15</ele>
        <time>2020-10-25T09:51:57Z</time>
      </trkpt>
      <trkpt lat="43.39501" lon="5.50788">
        <ele>513.86</ele>
        <time>2020-10-25T09:52:04Z</time>
      </trkpt>
      <trkpt lat="43.39486" lon="5.50767">
        <ele>512.23</ele>
        <time>2020-10-25T09:52:12Z</time>
      </trkpt>
      <trkpt lat="43.39469" lon="5.50754">
        <ele>509.57</ele>
        <time>2020-10-25T09:52:22Z</time>
      </trkpt>
      <trkpt lat="43.39453" lon="5.5074">
        <ele>504.48</ele>
        <time>2020-10-25T09:52:30Z</time>
      </trkpt>
      <trkpt lat="43.39436" lon="5.50733">
        <ele>506.2</ele>
        <time>2020-10-25T09:52:53Z</time>
      </trkpt>
      <trkpt lat="43.39418" lon="5.5074">
        <ele>504.12</ele>
        <time>2020-10-25T09:53:19Z</time>
      </trkpt>
      <trkpt lat="43.39401" lon="5.50746">
        <ele>499.93</ele>
        <time>2020-10-25T09:53:28Z</time>
      </trkpt>
      <trkpt lat="43.39383" lon="5.50733">
        <ele>492.74</ele>
        <time>2020-10-25T09:53:37Z</time>
      </trkpt>
      <trkpt lat="43.39366" lon="5.50719">
        <ele>488.95</ele>
        <time>2020-10-25T09:53:44Z</time>
      </trkpt>
      <trkpt lat="43.39352" lon="5.50699">
        <ele>485.94</ele>
        <time>2020-10-25T09:53:50Z</time>
      </trkpt>
      <trkpt lat="43.39337" lon="5.50682">
        <ele>482.24</ele>
        <time>2020-10-25T09:53:56Z</time>
      </trkpt>
      <trkpt lat="43.39324" lon="5.50665">
        <ele>481.41</ele>
        <time>2020-10-25T09:54:02Z</time>
      </trkpt>
      <trkpt lat="43.39317" lon="5.50642">
        <ele>483.61</ele>
        <time>2020-10-25T09:54:09Z</time>
      </trkpt>
      <trkpt lat="43.39306" lon="5.50622">
        <ele>479.95</ele>
        <time>2020-10-25T09:54:16Z</time>
      </trkpt>
      <trkpt lat="43.39291" lon="5.50602">
        <ele>479.88</ele>
        <time>2020-10-25T09:54:21Z</time>
      </trkpt>
      <trkpt lat="43.39276" lon="5.50588">
        <ele>481.41</ele>
        <time>2020-10-25T09:54:27Z</time>
      </trkpt>
      <trkpt lat="43.39256" lon="5.50584">
        <ele>480.88</ele>
        <time>2020-10-25T09:54:34Z</time>
      </trkpt>
      <trkpt lat="43.39237" lon="5.50583">
        <ele>482.8</ele>
        <time>2020-10-25T09:54:42Z</time>
      </trkpt>
      <trkpt lat="43.39221" lon="5.5057">
        <ele>482.06</ele>
        <time>2020-10-25T09:54:53Z</time>
      </trkpt>
      <trkpt lat="43.39214" lon="5.50545">
        <ele>481.85</ele>
        <time>2020-10-25T09:55:05Z</time>
      </trkpt>
      <trkpt lat="43.39201" lon="5.50527">
        <ele>478.23</ele>
        <time>2020-10-25T09:55:19Z</time>
      </trkpt>
      <trkpt lat="43.39182" lon="5.50526">
        <ele>473.31</ele>
        <time>2020-10-25T09:55:28Z</time>
      </trkpt>
      <trkpt lat="43.39161" lon="5.50522">
        <ele>468.92</ele>
        <time>2020-10-25T09:55:36Z</time>
      </trkpt>
      <trkpt lat="43.39142" lon="5.50509">
        <ele>465.87</ele>
        <time>2020-10-25T09:55:42Z</time>
      </trkpt>
      <trkpt lat="43.39125" lon="5.50496">
        <ele>462.96</ele>
        <time>2020-10-25T09:55:48Z</time>
      </trkpt>
      <trkpt lat="43.39104" lon="5.50492">
        <ele>460.84</ele>
        <time>2020-10-25T09:55:55Z</time>
      </trkpt>
      <trkpt lat="43.39085" lon="5.50496">
        <ele>458.26</ele>
        <time>2020-10-25T09:56:02Z</time>
      </trkpt>
      <trkpt lat="43.39066" lon="5.50483">
        <ele>455.46</ele>
        <time>2020-10-25T09:56:08Z</time>
      </trkpt>
      <trkpt lat="43.39045" lon="5.50481">
        <ele>453.01</ele>
        <time>2020-10-25T09:56:15Z</time>
      </trkpt>
      <trkpt lat="43.39025" lon="5.50471">
        <ele>449.44</ele>
        <time>2020-10-25T09:56:22Z</time>
      </trkpt>
      <trkpt lat="43.39011" lon="5.50457">
        <ele>447.02</ele>
        <time>2020-10-25T09:56:27Z</time>
      </trkpt>
      <trkpt lat="43.38994" lon="5.50467">
        <ele>444.09</ele>
        <time>2020-10-25T09:56:33Z</time>
      </trkpt>
      <trkpt lat="43.38975" lon="5.50471">
        <ele>441.49</ele>
        <time>2020-10-25T09:58:05Z</time>
      </trkpt>
      <trkpt lat="43.38954" lon="5.50458">
        <ele>439.66</ele>
        <time>2020-10-25T09:58:10Z</time>
      </trkpt>
      <trkpt lat="43.38937" lon="5.50443">
        <ele>439.02</ele>
        <time>2020-10-25T09:58:14Z</time>
      </trkpt>
      <trkpt lat="43.38919" lon="5.50427">
        <ele>438.31</ele>
        <time>2020-10-25T09:58:18Z</time>
      </trkpt>
      <trkpt lat="43.38907" lon="5.50408">
        <ele>436.63</ele>
        <time>2020-10-25T09:58:23Z</time>
      </trkpt>
      <trkpt lat="43.38921" lon="5.5039">
        <ele>433.95</ele>
        <time>2020-10-25T09:58:28Z</time>
      </trkpt>
      <trkpt lat="43.38938" lon="5.50378">
        <ele>432.85</ele>
        <time>2020-10-25T09:58:32Z</time>
      </trkpt>
      <trkpt lat="43.38955" lon="5.50363">
        <ele>430.29</ele>
        <time>2020-10-25T09:58:36Z</time>
      </trkpt>
      <trkpt lat="43.3896" lon="5.50334">
        <ele>428.84</ele>
        <time>2020-10-25T09:58:41Z</time>
      </trkpt>
      <trkpt lat="43.3895" lon="5.50307">
        <ele>427.11</ele>
        <time>2020-10-25T09:58:45Z</time>
      </trkpt>
      <trkpt lat="43.38939" lon="5.50282">
        <ele>424.8</ele>
        <time>2020-10-25T09:58:49Z</time>
      </trkpt>
      <trkpt lat="43.38929" lon="5.50256">
        <ele>421.8</ele>
        <time>2020-10-25T09:58:53Z</time>
      </trkpt>
      <trkpt lat="43.38922" lon="5.50226">
        <ele>419.18</ele>
        <time>2020-10-25T09:58:57Z</time>
      </trkpt>
      <trkpt lat="43.38921" lon="5.50193">
        <ele>417.72</ele>
        <time>2020-10-25T09:59:01Z</time>
      </trkpt>
      <trkpt lat="43.38927" lon="5.50165">
        <ele>415.69</ele>
        <time>2020-10-25T09:59:05Z</time>
      </trkpt>
      <trkpt lat="43.38933" lon="5.50139">
        <ele>412.54</ele>
        <time>2020-10-25T09:59:09Z</time>
      </trkpt>
      <trkpt lat="43.38936" lon="5.50109">
        <ele>410.26</ele>
        <time>2020-10-25T09:59:14Z</time>
      </trkpt>
      <trkpt lat="43.38935" lon="5.50077">
        <ele>408.68</ele>
        <time>2020-10-25T09:59:19Z</time>
      </trkpt>
      <trkpt lat="43.38931" lon="5.50048">
        <ele>406.48</ele>
        <time>2020-10-25T09:59:23Z</time>
      </trkpt>
      <trkpt lat="43.38931" lon="5.5002">
        <ele>402.75</ele>
        <time>2020-10-25T09:59:27Z</time>
      </trkpt>
      <trkpt lat="43.3893" lon="5.49992">
        <ele>398.45</ele>
        <time>2020-10-25T09:59:31Z</time>
      </trkpt>
      <trkpt lat="43.38931" lon="5.49965">
        <ele>396.05</ele>
        <time>2020-10-25T09:59:34Z</time>
      </trkpt>
      <trkpt lat="43.38933" lon="5.49936">
        <ele>395.65</ele>
        <time>2020-10-25T09:59:37Z</time>
      </trkpt>
      <trkpt lat="43.38942" lon="5.49908">
        <ele>395.75</ele>
        <time>2020-10-25T09:59:41Z</time>
      </trkpt>
      <trkpt lat="43.38961" lon="5.49916">
        <ele>395.69</ele>
        <time>2020-10-25T09:59:46Z</time>
      </trkpt>
      <trkpt lat="43.38979" lon="5.49929">
        <ele>394.08</ele>
        <time>2020-10-25T09:59:50Z</time>
      </trkpt>
      <trkpt lat="43.39001" lon="5.4994">
        <ele>391.53</ele>
        <time>2020-10-25T09:59:54Z</time>
      </trkpt>
      <trkpt lat="43.39024" lon="5.49945">
        <ele>389.87</ele>
        <time>2020-10-25T09:59:59Z</time>
      </trkpt>
      <trkpt lat="43.39044" lon="5.49951">
        <ele>387.53</ele>
        <time>2020-10-25T10:00:05Z</time>
      </trkpt>
      <trkpt lat="43.39064" lon="5.49953">
        <ele>386.09</ele>
        <time>2020-10-25T10:00:10Z</time>
      </trkpt>
      <trkpt lat="43.39084" lon="5.49954">
        <ele>383.7</ele>
        <time>2020-10-25T10:00:14Z</time>
      </trkpt>
      <trkpt lat="43.39102" lon="5.49964">
        <ele>382.13</ele>
        <time>2020-10-25T10:00:19Z</time>
      </trkpt>
      <trkpt lat="43.3912" lon="5.49981">
        <ele>380.3</ele>
        <time>2020-10-25T10:00:24Z</time>
      </trkpt>
      <trkpt lat="43.39129" lon="5.50004">
        <ele>378.75</ele>
        <time>2020-10-25T10:00:28Z</time>
      </trkpt>
      <trkpt lat="43.39129" lon="5.50031">
        <ele>377.5</ele>
        <time>2020-10-25T10:00:32Z</time>
      </trkpt>
      <trkpt lat="43.39129" lon="5.50059">
        <ele>374.68</ele>
        <time>2020-10-25T10:00:37Z</time>
      </trkpt>
      <trkpt lat="43.39137" lon="5.50081">
        <ele>372.41</ele>
        <time>2020-10-25T10:00:42Z</time>
      </trkpt>
      <trkpt lat="43.39139" lon="5.50055">
        <ele>371.52</ele>
        <time>2020-10-25T10:00:47Z</time>
      </trkpt>
      <trkpt lat="43.39149" lon="5.50028">
        <ele>370.54</ele>
        <time>2020-10-25T10:01:19Z</time>
      </trkpt>
      <trkpt lat="43.39156" lon="5.49999">
        <ele>369.58</ele>
        <time>2020-10-25T10:01:23Z</time>
      </trkpt>
      <trkpt lat="43.39156" lon="5.49969">
        <ele>368.16</ele>
        <time>2020-10-25T10:01:28Z</time>
      </trkpt>
      <trkpt lat="43.39154" lon="5.49943">
        <ele>366.85</ele>
        <time>2020-10-25T10:01:32Z</time>
      </trkpt>
      <trkpt lat="43.39141" lon="5.49922">
        <ele>365.31</ele>
        <time>2020-10-25T10:01:36Z</time>
      </trkpt>
      <trkpt lat="43.39125" lon="5.49908">
        <ele>364.82</ele>
        <time>2020-10-25T10:01:39Z</time>
      </trkpt>
      <trkpt lat="43.39107" lon="5.49895">
        <ele>363.48</ele>
        <time>2020-10-25T10:01:42Z</time>
      </trkpt>
      <trkpt lat="43.39088" lon="5.49889">
        <ele>362.91</ele>
        <time>2020-10-25T10:01:45Z</time>
      </trkpt>
      <trkpt lat="43.39069" lon="5.49884">
        <ele>362.24</ele>
        <time>2020-10-25T10:01:48Z</time>
      </trkpt>
      <trkpt lat="43.39049" lon="5.49874">
        <ele>361.89</ele>
        <time>2020-10-25T10:01:51Z</time>
      </trkpt>
      <trkpt lat="43.39029" lon="5.49859">
        <ele>361.51</ele>
        <time>2020-10-25T10:01:55Z</time>
      </trkpt>
      <trkpt lat="43.39009" lon="5.49842">
        <ele>359.73</ele>
        <time>2020-10-25T10:01:59Z</time>
      </trkpt>
      <trkpt lat="43.38987" lon="5.49834">
        <ele>358.82</ele>
        <time>2020-10-25T10:02:03Z</time>
      </trkpt>
      <trkpt lat="43.38969" lon="5.49817">
        <ele>357.73</ele>
        <time>2020-10-25T10:02:07Z</time>
      </trkpt>
      <trkpt lat="43.38959" lon="5.49789">
        <ele>356.63</ele>
        <time>2020-10-25T10:02:11Z</time>
      </trkpt>
      <trkpt lat="43.38949" lon="5.49764">
        <ele>355.38</ele>
        <time>2020-10-25T10:02:15Z</time>
      </trkpt>
      <trkpt lat="43.38932" lon="5.4975">
        <ele>353.65</ele>
        <time>2020-10-25T10:02:18Z</time>
      </trkpt>
      <trkpt lat="43.38909" lon="5.49747">
        <ele>353.08</ele>
        <time>2020-10-25T10:02:21Z</time>
      </trkpt>
      <trkpt lat="43.38886" lon="5.49752">
        <ele>352.07</ele>
        <time>2020-10-25T10:02:24Z</time>
      </trkpt>
      <trkpt lat="43.38867" lon="5.49762">
        <ele>350.92</ele>
        <time>2020-10-25T10:02:27Z</time>
      </trkpt>
      <trkpt lat="43.38846" lon="5.49771">
        <ele>349.92</ele>
        <time>2020-10-25T10:02:31Z</time>
      </trkpt>
      <trkpt lat="43.38827" lon="5.4978">
        <ele>349.16</ele>
        <time>2020-10-25T10:02:34Z</time>
      </trkpt>
      <trkpt lat="43.38806" lon="5.49782">
        <ele>348</ele>
        <time>2020-10-25T10:02:37Z</time>
      </trkpt>
      <trkpt lat="43.38791" lon="5.49762">
        <ele>346.8</ele>
        <time>2020-10-25T10:02:42Z</time>
      </trkpt>
      <trkpt lat="43.38784" lon="5.49737">
        <ele>344.63</ele>
        <time>2020-10-25T10:02:46Z</time>
      </trkpt>
      <trkpt lat="43.38792" lon="5.49709">
        <ele>344.16</ele>
        <time>2020-10-25T10:02:50Z</time>
      </trkpt>
      <trkpt lat="43.38801" lon="5.49683">
        <ele>342.98</ele>
        <time>2020-10-25T10:02:54Z</time>
      </trkpt>
      <trkpt lat="43.38811" lon="5.49658">
        <ele>342.39</ele>
        <time>2020-10-25T10:02:58Z</time>
      </trkpt>
      <trkpt lat="43.38817" lon="5.49629">
        <ele>341.16</ele>
        <time>2020-10-25T10:03:03Z</time>
      </trkpt>
      <trkpt lat="43.38826" lon="5.49605">
        <ele>340.61</ele>
        <time>2020-10-25T10:03:07Z</time>
      </trkpt>
      <trkpt lat="43.38837" lon="5.49579">
        <ele>339.39</ele>
        <time>2020-10-25T10:03:12Z</time>
      </trkpt>
      <trkpt lat="43.38827" lon="5.4955">
        <ele>337</ele>
        <time>2020-10-25T10:03:17Z</time>
      </trkpt>
      <trkpt lat="43.38813" lon="5.49535">
        <ele>335.86</ele>
        <time>2020-10-25T10:03:20Z</time>
      </trkpt>
      <trkpt lat="43.38798" lon="5.49512">
        <ele>335.11</ele>
        <time>2020-10-25T10:03:25Z</time>
      </trkpt>
      <trkpt lat="43.38781" lon="5.49499">
        <ele>334.84</ele>
        <time>2020-10-25T10:03:29Z</time>
      </trkpt>
      <trkpt lat="43.38762" lon="5.49482">
        <ele>333.79</ele>
        <time>2020-10-25T10:03:33Z</time>
      </trkpt>
      <trkpt lat="43.38748" lon="5.49463">
        <ele>333.02</ele>
        <time>2020-10-25T10:03:37Z</time>
      </trkpt>
      <trkpt lat="43.38749" lon="5.49438">
        <ele>331.56</ele>
        <time>2020-10-25T10:03:46Z</time>
      </trkpt>
      <trkpt lat="43.3875" lon="5.49411">
        <ele>330.49</ele>
        <time>2020-10-25T10:03:56Z</time>
      </trkpt>
      <trkpt lat="43.38757" lon="5.49385">
        <ele>329.86</ele>
        <time>2020-10-25T10:04:01Z</time>
      </trkpt>
      <trkpt lat="43.38761" lon="5.49361">
        <ele>329.34</ele>
        <time>2020-10-25T10:04:07Z</time>
      </trkpt>
      <trkpt lat="43.38768" lon="5.49337">
        <ele>327.94</ele>
        <time>2020-10-25T10:04:13Z</time>
      </trkpt>
      <trkpt lat="43.38752" lon="5.49325">
        <ele>327.28</ele>
        <time>2020-10-25T10:05:09Z</time>
      </trkpt>
      <trkpt lat="43.38733" lon="5.4932">
        <ele>326.03</ele>
        <time>2020-10-25T10:05:18Z</time>
      </trkpt>
      <trkpt lat="43.3875" lon="5.49324">
        <ele>327.63</ele>
        <time>2020-10-25T10:06:50Z</time>
      </trkpt>
      <trkpt lat="43.38768" lon="5.49331">
        <ele>329.02</ele>
        <time>2020-10-25T10:07:23Z</time>
      </trkpt>
      <trkpt lat="43.38787" lon="5.49329">
        <ele>330.86</ele>
        <time>2020-10-25T10:07:30Z</time>
      </trkpt>
      <trkpt lat="43.38807" lon="5.49326">
        <ele>332.07</ele>
        <time>2020-10-25T10:07:35Z</time>
      </trkpt>
      <trkpt lat="43.38827" lon="5.49324">
        <ele>332.74</ele>
        <time>2020-10-25T10:07:40Z</time>
      </trkpt>
      <trkpt lat="43.38849" lon="5.49325">
        <ele>333.74</ele>
        <time>2020-10-25T10:07:45Z</time>
      </trkpt>
      <trkpt lat="43.3887" lon="5.49319">
        <ele>334.78</ele>
        <time>2020-10-25T10:07:49Z</time>
      </trkpt>
      <trkpt lat="43.38887" lon="5.49314">
        <ele>335.65</ele>
        <time>2020-10-25T10:07:53Z</time>
      </trkpt>
      <trkpt lat="43.38908" lon="5.49308">
        <ele>336.67</ele>
        <time>2020-10-25T10:07:58Z</time>
      </trkpt>
      <trkpt lat="43.38924" lon="5.49293">
        <ele>337.86</ele>
        <time>2020-10-25T10:08:04Z</time>
      </trkpt>
      <trkpt lat="43.38912" lon="5.49273">
        <ele>337.84</ele>
        <time>2020-10-25T10:08:11Z</time>
      </trkpt>
      <trkpt lat="43.38894" lon="5.49276">
        <ele>338.15</ele>
        <time>2020-10-25T10:08:16Z</time>
      </trkpt>
      <trkpt lat="43.38876" lon="5.49272">
        <ele>339.72</ele>
        <time>2020-10-25T10:08:21Z</time>
      </trkpt>
      <trkpt lat="43.38857" lon="5.49266">
        <ele>341.67</ele>
        <time>2020-10-25T10:08:26Z</time>
      </trkpt>
      <trkpt lat="43.38837" lon="5.49256">
        <ele>344.88</ele>
        <time>2020-10-25T10:08:32Z</time>
      </trkpt>
      <trkpt lat="43.38815" lon="5.49251">
        <ele>346.78</ele>
        <time>2020-10-25T10:08:38Z</time>
      </trkpt>
      <trkpt lat="43.38794" lon="5.49248">
        <ele>348.89</ele>
        <time>2020-10-25T10:08:44Z</time>
      </trkpt>
      <trkpt lat="43.38775" lon="5.49245">
        <ele>351.62</ele>
        <time>2020-10-25T10:08:51Z</time>
      </trkpt>
      <trkpt lat="43.38782" lon="5.49221">
        <ele>355.12</ele>
        <time>2020-10-25T10:08:59Z</time>
      </trkpt>
      <trkpt lat="43.3879" lon="5.49198">
        <ele>355.05</ele>
        <time>2020-10-25T10:09:07Z</time>
      </trkpt>
      <trkpt lat="43.38798" lon="5.49174">
        <ele>356.32</ele>
        <time>2020-10-25T10:09:32Z</time>
      </trkpt>
      <trkpt lat="43.38794" lon="5.4915">
        <ele>353.96</ele>
        <time>2020-10-25T10:09:36Z</time>
      </trkpt>
      <trkpt lat="43.38793" lon="5.49122">
        <ele>351.11</ele>
        <time>2020-10-25T10:09:40Z</time>
      </trkpt>
      <trkpt lat="43.38796" lon="5.49096">
        <ele>349.43</ele>
        <time>2020-10-25T10:09:45Z</time>
      </trkpt>
      <trkpt lat="43.38798" lon="5.49071">
        <ele>353.19</ele>
        <time>2020-10-25T10:09:53Z</time>
      </trkpt>
      <trkpt lat="43.38808" lon="5.49049">
        <ele>358.51</ele>
        <time>2020-10-25T10:10:03Z</time>
      </trkpt>
      <trkpt lat="43.38818" lon="5.49027">
        <ele>362.99</ele>
        <time>2020-10-25T10:10:13Z</time>
      </trkpt>
      <trkpt lat="43.38824" lon="5.49002">
        <ele>363.73</ele>
        <time>2020-10-25T10:10:23Z</time>
      </trkpt>
      <trkpt lat="43.38808" lon="5.48986">
        <ele>358.09</ele>
        <time>2020-10-25T10:10:31Z</time>
      </trkpt>
      <trkpt lat="43.38794" lon="5.48968">
        <ele>350.01</ele>
        <time>2020-10-25T10:10:43Z</time>
      </trkpt>
      <trkpt lat="43.38785" lon="5.48946">
        <ele>343.08</ele>
        <time>2020-10-25T10:10:52Z</time>
      </trkpt>
      <trkpt lat="43.38777" lon="5.48923">
        <ele>333.76</ele>
        <time>2020-10-25T10:11:05Z</time>
      </trkpt>
      <trkpt lat="43.38764" lon="5.48907">
        <ele>327.2</ele>
        <time>2020-10-25T10:11:34Z</time>
      </trkpt>
      <trkpt lat="43.38771" lon="5.48882">
        <ele>320.71</ele>
        <time>2020-10-25T10:12:16Z</time>
      </trkpt>
      <trkpt lat="43.38753" lon="5.4888">
        <ele>320.3</ele>
        <time>2020-10-25T10:12:34Z</time>
      </trkpt>
      <trkpt lat="43.38733" lon="5.4888">
        <ele>319.37</ele>
        <time>2020-10-25T10:12:40Z</time>
      </trkpt>
      <trkpt lat="43.38717" lon="5.48862">
        <ele>319.57</ele>
        <time>2020-10-25T10:12:45Z</time>
      </trkpt>
      <trkpt lat="43.38695" lon="5.48865">
        <ele>321.1</ele>
        <time>2020-10-25T10:12:49Z</time>
      </trkpt>
      <trkpt lat="43.38681" lon="5.48844">
        <ele>323.59</ele>
        <time>2020-10-25T10:12:55Z</time>
      </trkpt>
      <trkpt lat="43.3867" lon="5.48822">
        <ele>324.52</ele>
        <time>2020-10-25T10:12:59Z</time>
      </trkpt>
      <trkpt lat="43.38654" lon="5.48806">
        <ele>325.1</ele>
        <time>2020-10-25T10:13:04Z</time>
      </trkpt>
      <trkpt lat="43.38638" lon="5.4882">
        <ele>326.46</ele>
        <time>2020-10-25T10:13:08Z</time>
      </trkpt>
      <trkpt lat="43.3862" lon="5.48837">
        <ele>327.95</ele>
        <time>2020-10-25T10:13:13Z</time>
      </trkpt>
      <trkpt lat="43.38609" lon="5.4886">
        <ele>329.83</ele>
        <time>2020-10-25T10:13:18Z</time>
      </trkpt>
      <trkpt lat="43.3859" lon="5.48869">
        <ele>331.16</ele>
        <time>2020-10-25T10:13:25Z</time>
      </trkpt>
      <trkpt lat="43.38574" lon="5.48858">
        <ele>331.33</ele>
        <time>2020-10-25T10:13:29Z</time>
      </trkpt>
      <trkpt lat="43.38555" lon="5.48854">
        <ele>332.35</ele>
        <time>2020-10-25T10:13:34Z</time>
      </trkpt>
      <trkpt lat="43.38534" lon="5.48851">
        <ele>332.31</ele>
        <time>2020-10-25T10:13:39Z</time>
      </trkpt>
      <trkpt lat="43.38514" lon="5.4885">
        <ele>332.93</ele>
        <time>2020-10-25T10:13:44Z</time>
      </trkpt>
      <trkpt lat="43.38495" lon="5.48849">
        <ele>334.23</ele>
        <time>2020-10-25T10:13:49Z</time>
      </trkpt>
      <trkpt lat="43.38475" lon="5.48845">
        <ele>334.85</ele>
        <time>2020-10-25T10:13:54Z</time>
      </trkpt>
      <trkpt lat="43.38454" lon="5.48844">
        <ele>336.84</ele>
        <time>2020-10-25T10:14:00Z</time>
      </trkpt>
      <trkpt lat="43.38438" lon="5.48828">
        <ele>339.32</ele>
        <time>2020-10-25T10:14:06Z</time>
      </trkpt>
      <trkpt lat="43.38423" lon="5.4881">
        <ele>341.66</ele>
        <time>2020-10-25T10:14:12Z</time>
      </trkpt>
      <trkpt lat="43.38406" lon="5.48799">
        <ele>343.25</ele>
        <time>2020-10-25T10:14:18Z</time>
      </trkpt>
      <trkpt lat="43.38387" lon="5.48798">
        <ele>345.03</ele>
        <time>2020-10-25T10:14:24Z</time>
      </trkpt>
      <trkpt lat="43.38368" lon="5.48805">
        <ele>347.44</ele>
        <time>2020-10-25T10:14:29Z</time>
      </trkpt>
      <trkpt lat="43.38348" lon="5.48804">
        <ele>348.65</ele>
        <time>2020-10-25T10:14:36Z</time>
      </trkpt>
      <trkpt lat="43.38341" lon="5.4878">
        <ele>350.19</ele>
        <time>2020-10-25T10:14:42Z</time>
      </trkpt>
      <trkpt lat="43.38342" lon="5.48754">
        <ele>350.78</ele>
        <time>2020-10-25T10:14:48Z</time>
      </trkpt>
      <trkpt lat="43.38342" lon="5.48727">
        <ele>352.35</ele>
        <time>2020-10-25T10:14:54Z</time>
      </trkpt>
      <trkpt lat="43.38342" lon="5.487">
        <ele>353.02</ele>
        <time>2020-10-25T10:15:00Z</time>
      </trkpt>
      <trkpt lat="43.38347" lon="5.48673">
        <ele>352.81</ele>
        <time>2020-10-25T10:15:06Z</time>
      </trkpt>
      <trkpt lat="43.38352" lon="5.48649">
        <ele>353.72</ele>
        <time>2020-10-25T10:15:12Z</time>
      </trkpt>
      <trkpt lat="43.38347" lon="5.48625">
        <ele>354.41</ele>
        <time>2020-10-25T10:15:18Z</time>
      </trkpt>
      <trkpt lat="43.38329" lon="5.48616">
        <ele>354.6</ele>
        <time>2020-10-25T10:15:23Z</time>
      </trkpt>
      <trkpt lat="43.38319" lon="5.48594">
        <ele>357.47</ele>
        <time>2020-10-25T10:15:30Z</time>
      </trkpt>
      <trkpt lat="43.38333" lon="5.48576">
        <ele>360.43</ele>
        <time>2020-10-25T10:15:37Z</time>
      </trkpt>
      <trkpt lat="43.38345" lon="5.48556">
        <ele>362.02</ele>
        <time>2020-10-25T10:15:44Z</time>
      </trkpt>
      <trkpt lat="43.38347" lon="5.48528">
        <ele>361.71</ele>
        <time>2020-10-25T10:15:51Z</time>
      </trkpt>
      <trkpt lat="43.38357" lon="5.48503">
        <ele>362.44</ele>
        <time>2020-10-25T10:15:57Z</time>
      </trkpt>
      <trkpt lat="43.38357" lon="5.48475">
        <ele>363.85</ele>
        <time>2020-10-25T10:16:06Z</time>
      </trkpt>
      <trkpt lat="43.38346" lon="5.48453">
        <ele>365.46</ele>
        <time>2020-10-25T10:16:14Z</time>
      </trkpt>
      <trkpt lat="43.38335" lon="5.4843">
        <ele>367.95</ele>
        <time>2020-10-25T10:16:22Z</time>
      </trkpt>
      <trkpt lat="43.38323" lon="5.48408">
        <ele>369.4</ele>
        <time>2020-10-25T10:16:30Z</time>
      </trkpt>
      <trkpt lat="43.38343" lon="5.48406">
        <ele>373.6</ele>
        <time>2020-10-25T10:16:50Z</time>
      </trkpt>
      <trkpt lat="43.38362" lon="5.48418">
        <ele>375.24</ele>
        <time>2020-10-25T10:16:57Z</time>
      </trkpt>
      <trkpt lat="43.38381" lon="5.48422">
        <ele>377.56</ele>
        <time>2020-10-25T10:17:04Z</time>
      </trkpt>
      <trkpt lat="43.38399" lon="5.48429">
        <ele>378.55</ele>
        <time>2020-10-25T10:17:11Z</time>
      </trkpt>
      <trkpt lat="43.38418" lon="5.48428">
        <ele>380.31</ele>
        <time>2020-10-25T10:17:18Z</time>
      </trkpt>
      <trkpt lat="43.38438" lon="5.48426">
        <ele>380.2</ele>
        <time>2020-10-25T10:17:25Z</time>
      </trkpt>
      <trkpt lat="43.38457" lon="5.48421">
        <ele>381.53</ele>
        <time>2020-10-25T10:17:32Z</time>
      </trkpt>
      <trkpt lat="43.38473" lon="5.48408">
        <ele>382.38</ele>
        <time>2020-10-25T10:17:38Z</time>
      </trkpt>
      <trkpt lat="43.38486" lon="5.48387">
        <ele>384.8</ele>
        <time>2020-10-25T10:17:45Z</time>
      </trkpt>
      <trkpt lat="43.38494" lon="5.48363">
        <ele>387.04</ele>
        <time>2020-10-25T10:17:52Z</time>
      </trkpt>
      <trkpt lat="43.38503" lon="5.48341">
        <ele>387.99</ele>
        <time>2020-10-25T10:17:59Z</time>
      </trkpt>
      <trkpt lat="43.38522" lon="5.48328">
        <ele>387.39</ele>
        <time>2020-10-25T10:18:06Z</time>
      </trkpt>
      <trkpt lat="43.38529" lon="5.48302">
        <ele>385.38</ele>
        <time>2020-10-25T10:18:13Z</time>
      </trkpt>
      <trkpt lat="43.38525" lon="5.48277">
        <ele>383.48</ele>
        <time>2020-10-25T10:18:18Z</time>
      </trkpt>
      <trkpt lat="43.38523" lon="5.48252">
        <ele>380.03</ele>
        <time>2020-10-25T10:18:23Z</time>
      </trkpt>
      <trkpt lat="43.38535" lon="5.48231">
        <ele>376.09</ele>
        <time>2020-10-25T10:18:29Z</time>
      </trkpt>
      <trkpt lat="43.3854" lon="5.48207">
        <ele>370.75</ele>
        <time>2020-10-25T10:18:36Z</time>
      </trkpt>
      <trkpt lat="43.38547" lon="5.48184">
        <ele>363.93</ele>
        <time>2020-10-25T10:18:43Z</time>
      </trkpt>
      <trkpt lat="43.38557" lon="5.48162">
        <ele>358.33</ele>
        <time>2020-10-25T10:18:50Z</time>
      </trkpt>
      <trkpt lat="43.38559" lon="5.48136">
        <ele>353.07</ele>
        <time>2020-10-25T10:18:57Z</time>
      </trkpt>
      <trkpt lat="43.38543" lon="5.4812">
        <ele>352.6</ele>
        <time>2020-10-25T10:19:02Z</time>
      </trkpt>
      <trkpt lat="43.38523" lon="5.48113">
        <ele>351.77</ele>
        <time>2020-10-25T10:19:07Z</time>
      </trkpt>
      <trkpt lat="43.38503" lon="5.48106">
        <ele>349.89</ele>
        <time>2020-10-25T10:19:11Z</time>
      </trkpt>
      <trkpt lat="43.38485" lon="5.48095">
        <ele>349.11</ele>
        <time>2020-10-25T10:19:15Z</time>
      </trkpt>
      <trkpt lat="43.38465" lon="5.48089">
        <ele>347.08</ele>
        <time>2020-10-25T10:19:19Z</time>
      </trkpt>
      <trkpt lat="43.38448" lon="5.48081">
        <ele>346.14</ele>
        <time>2020-10-25T10:19:23Z</time>
      </trkpt>
      <trkpt lat="43.38431" lon="5.48067">
        <ele>346.71</ele>
        <time>2020-10-25T10:19:29Z</time>
      </trkpt>
      <trkpt lat="43.38415" lon="5.48055">
        <ele>347.92</ele>
        <time>2020-10-25T10:19:34Z</time>
      </trkpt>
      <trkpt lat="43.38403" lon="5.48035">
        <ele>349.61</ele>
        <time>2020-10-25T10:19:40Z</time>
      </trkpt>
      <trkpt lat="43.38407" lon="5.4801">
        <ele>348.35</ele>
        <time>2020-10-25T10:19:46Z</time>
      </trkpt>
      <trkpt lat="43.38425" lon="5.47997">
        <ele>347.36</ele>
        <time>2020-10-25T10:19:50Z</time>
      </trkpt>
      <trkpt lat="43.38444" lon="5.47985">
        <ele>347.5</ele>
        <time>2020-10-25T10:19:54Z</time>
      </trkpt>
      <trkpt lat="43.38465" lon="5.47975">
        <ele>347.93</ele>
        <time>2020-10-25T10:19:59Z</time>
      </trkpt>
      <trkpt lat="43.3848" lon="5.47957">
        <ele>348.31</ele>
        <time>2020-10-25T10:20:03Z</time>
      </trkpt>
      <trkpt lat="43.38491" lon="5.47933">
        <ele>348.22</ele>
        <time>2020-10-25T10:20:07Z</time>
      </trkpt>
      <trkpt lat="43.385" lon="5.47906">
        <ele>347.4</ele>
        <time>2020-10-25T10:20:11Z</time>
      </trkpt>
      <trkpt lat="43.3851" lon="5.47879">
        <ele>346.17</ele>
        <time>2020-10-25T10:20:15Z</time>
      </trkpt>
      <trkpt lat="43.38518" lon="5.47856">
        <ele>345.64</ele>
        <time>2020-10-25T10:20:18Z</time>
      </trkpt>
      <trkpt lat="43.38526" lon="5.47831">
        <ele>344.14</ele>
        <time>2020-10-25T10:20:21Z</time>
      </trkpt>
      <trkpt lat="43.38534" lon="5.47807">
        <ele>343.39</ele>
        <time>2020-10-25T10:20:24Z</time>
      </trkpt>
      <trkpt lat="43.38552" lon="5.478">
        <ele>343.29</ele>
        <time>2020-10-25T10:20:27Z</time>
      </trkpt>
      <trkpt lat="43.3857" lon="5.47797">
        <ele>343.18</ele>
        <time>2020-10-25T10:20:30Z</time>
      </trkpt>
      <trkpt lat="43.38587" lon="5.47788">
        <ele>343.08</ele>
        <time>2020-10-25T10:20:33Z</time>
      </trkpt>
      <trkpt lat="43.38604" lon="5.47777">
        <ele>342.76</ele>
        <time>2020-10-25T10:20:36Z</time>
      </trkpt>
      <trkpt lat="43.38623" lon="5.4777">
        <ele>342.27</ele>
        <time>2020-10-25T10:20:39Z</time>
      </trkpt>
      <trkpt lat="43.38641" lon="5.47762">
        <ele>342.12</ele>
        <time>2020-10-25T10:20:42Z</time>
      </trkpt>
      <trkpt lat="43.38654" lon="5.47739">
        <ele>339.8</ele>
        <time>2020-10-25T10:20:45Z</time>
      </trkpt>
      <trkpt lat="43.38653" lon="5.47708">
        <ele>338.45</ele>
        <time>2020-10-25T10:20:48Z</time>
      </trkpt>
      <trkpt lat="43.38648" lon="5.47677">
        <ele>336.31</ele>
        <time>2020-10-25T10:20:51Z</time>
      </trkpt>
      <trkpt lat="43.38645" lon="5.47646">
        <ele>333.7</ele>
        <time>2020-10-25T10:20:54Z</time>
      </trkpt>
      <trkpt lat="43.38641" lon="5.4762">
        <ele>332.7</ele>
        <time>2020-10-25T10:20:57Z</time>
      </trkpt>
      <trkpt lat="43.38622" lon="5.47624">
        <ele>333.83</ele>
        <time>2020-10-25T10:21:04Z</time>
      </trkpt>
      <trkpt lat="43.38607" lon="5.47642">
        <ele>335.02</ele>
        <time>2020-10-25T10:21:11Z</time>
      </trkpt>
      <trkpt lat="43.38596" lon="5.47665">
        <ele>336.33</ele>
        <time>2020-10-25T10:21:16Z</time>
      </trkpt>
      <trkpt lat="43.38588" lon="5.47688">
        <ele>337.62</ele>
        <time>2020-10-25T10:21:21Z</time>
      </trkpt>
      <trkpt lat="43.38568" lon="5.47699">
        <ele>337.56</ele>
        <time>2020-10-25T10:21:27Z</time>
      </trkpt>
      <trkpt lat="43.3855" lon="5.47692">
        <ele>339.09</ele>
        <time>2020-10-25T10:21:32Z</time>
      </trkpt>
      <trkpt lat="43.38532" lon="5.4768">
        <ele>341.24</ele>
        <time>2020-10-25T10:21:38Z</time>
      </trkpt>
      <trkpt lat="43.38515" lon="5.47669">
        <ele>343.31</ele>
        <time>2020-10-25T10:21:44Z</time>
      </trkpt>
      <trkpt lat="43.38497" lon="5.47672">
        <ele>344.76</ele>
        <time>2020-10-25T10:21:49Z</time>
      </trkpt>
      <trkpt lat="43.38479" lon="5.47679">
        <ele>346.88</ele>
        <time>2020-10-25T10:21:54Z</time>
      </trkpt>
      <trkpt lat="43.38462" lon="5.47694">
        <ele>349.22</ele>
        <time>2020-10-25T10:22:00Z</time>
      </trkpt>
      <trkpt lat="43.38454" lon="5.47718">
        <ele>349.95</ele>
        <time>2020-10-25T10:22:05Z</time>
      </trkpt>
      <trkpt lat="43.38443" lon="5.47741">
        <ele>350.7</ele>
        <time>2020-10-25T10:22:10Z</time>
      </trkpt>
      <trkpt lat="43.38429" lon="5.47758">
        <ele>351.69</ele>
        <time>2020-10-25T10:22:15Z</time>
      </trkpt>
      <trkpt lat="43.38409" lon="5.47768">
        <ele>353.26</ele>
        <time>2020-10-25T10:22:21Z</time>
      </trkpt>
      <trkpt lat="43.38391" lon="5.47758">
        <ele>356.37</ele>
        <time>2020-10-25T10:22:27Z</time>
      </trkpt>
      <trkpt lat="43.38373" lon="5.47743">
        <ele>357.68</ele>
        <time>2020-10-25T10:22:33Z</time>
      </trkpt>
      <trkpt lat="43.38356" lon="5.47733">
        <ele>359.35</ele>
        <time>2020-10-25T10:22:39Z</time>
      </trkpt>
      <trkpt lat="43.38337" lon="5.47729">
        <ele>360.03</ele>
        <time>2020-10-25T10:22:47Z</time>
      </trkpt>
      <trkpt lat="43.3832" lon="5.47718">
        <ele>360.41</ele>
        <time>2020-10-25T10:22:53Z</time>
      </trkpt>
      <trkpt lat="43.38308" lon="5.47698">
        <ele>361.67</ele>
        <time>2020-10-25T10:22:59Z</time>
      </trkpt>
      <trkpt lat="43.38311" lon="5.47674">
        <ele>363.89</ele>
        <time>2020-10-25T10:23:05Z</time>
      </trkpt>
      <trkpt lat="43.38323" lon="5.4765">
        <ele>366.16</ele>
        <time>2020-10-25T10:23:12Z</time>
      </trkpt>
      <trkpt lat="43.38336" lon="5.47632">
        <ele>367.51</ele>
        <time>2020-10-25T10:23:18Z</time>
      </trkpt>
      <trkpt lat="43.38349" lon="5.47611">
        <ele>368.68</ele>
        <time>2020-10-25T10:23:24Z</time>
      </trkpt>
      <trkpt lat="43.38363" lon="5.47589">
        <ele>369.46</ele>
        <time>2020-10-25T10:23:30Z</time>
      </trkpt>
      <trkpt lat="43.38382" lon="5.47577">
        <ele>370.69</ele>
        <time>2020-10-25T10:23:36Z</time>
      </trkpt>
      <trkpt lat="43.38402" lon="5.4757">
        <ele>372.18</ele>
        <time>2020-10-25T10:23:42Z</time>
      </trkpt>
      <trkpt lat="43.38421" lon="5.47557">
        <ele>374.52</ele>
        <time>2020-10-25T10:23:49Z</time>
      </trkpt>
      <trkpt lat="43.38438" lon="5.47541">
        <ele>375.62</ele>
        <time>2020-10-25T10:23:56Z</time>
      </trkpt>
      <trkpt lat="43.38453" lon="5.47523">
        <ele>376.47</ele>
        <time>2020-10-25T10:24:02Z</time>
      </trkpt>
      <trkpt lat="43.3846" lon="5.47495">
        <ele>377.76</ele>
        <time>2020-10-25T10:24:08Z</time>
      </trkpt>
      <trkpt lat="43.38454" lon="5.47468">
        <ele>379.79</ele>
        <time>2020-10-25T10:24:14Z</time>
      </trkpt>
      <trkpt lat="43.38438" lon="5.47456">
        <ele>381.6</ele>
        <time>2020-10-25T10:24:19Z</time>
      </trkpt>
      <trkpt lat="43.38417" lon="5.47459">
        <ele>382.21</ele>
        <time>2020-10-25T10:24:24Z</time>
      </trkpt>
      <trkpt lat="43.38397" lon="5.4746">
        <ele>381.24</ele>
        <time>2020-10-25T10:24:29Z</time>
      </trkpt>
      <trkpt lat="43.38378" lon="5.47455">
        <ele>380.76</ele>
        <time>2020-10-25T10:24:34Z</time>
      </trkpt>
      <trkpt lat="43.38359" lon="5.47446">
        <ele>381.98</ele>
        <time>2020-10-25T10:24:39Z</time>
      </trkpt>
      <trkpt lat="43.38341" lon="5.47433">
        <ele>382.58</ele>
        <time>2020-10-25T10:24:44Z</time>
      </trkpt>
      <trkpt lat="43.38322" lon="5.47422">
        <ele>382.98</ele>
        <time>2020-10-25T10:24:49Z</time>
      </trkpt>
      <trkpt lat="43.38303" lon="5.47415">
        <ele>383.71</ele>
        <time>2020-10-25T10:24:54Z</time>
      </trkpt>
      <trkpt lat="43.38282" lon="5.47413">
        <ele>385</ele>
        <time>2020-10-25T10:25:00Z</time>
      </trkpt>
      <trkpt lat="43.38263" lon="5.4741">
        <ele>385.34</ele>
        <time>2020-10-25T10:25:05Z</time>
      </trkpt>
      <trkpt lat="43.38246" lon="5.47397">
        <ele>387.25</ele>
        <time>2020-10-25T10:25:12Z</time>
      </trkpt>
      <trkpt lat="43.38227" lon="5.4741">
        <ele>383.49</ele>
        <time>2020-10-25T10:25:17Z</time>
      </trkpt>
      <trkpt lat="43.3821" lon="5.47427">
        <ele>382.14</ele>
        <time>2020-10-25T10:25:21Z</time>
      </trkpt>
      <trkpt lat="43.38192" lon="5.47444">
        <ele>380.73</ele>
        <time>2020-10-25T10:25:25Z</time>
      </trkpt>
      <trkpt lat="43.38173" lon="5.47453">
        <ele>380</ele>
        <time>2020-10-25T10:25:29Z</time>
      </trkpt>
      <trkpt lat="43.38154" lon="5.47458">
        <ele>379.18</ele>
        <time>2020-10-25T10:25:33Z</time>
      </trkpt>
      <trkpt lat="43.38135" lon="5.47464">
        <ele>378.2</ele>
        <time>2020-10-25T10:25:37Z</time>
      </trkpt>
      <trkpt lat="43.38115" lon="5.47474">
        <ele>376.98</ele>
        <time>2020-10-25T10:25:41Z</time>
      </trkpt>
      <trkpt lat="43.38097" lon="5.47479">
        <ele>376.45</ele>
        <time>2020-10-25T10:25:44Z</time>
      </trkpt>
      <trkpt lat="43.38076" lon="5.47496">
        <ele>375.36</ele>
        <time>2020-10-25T10:25:48Z</time>
      </trkpt>
      <trkpt lat="43.38056" lon="5.47512">
        <ele>373.91</ele>
        <time>2020-10-25T10:25:52Z</time>
      </trkpt>
      <trkpt lat="43.38039" lon="5.4752">
        <ele>372.54</ele>
        <time>2020-10-25T10:25:55Z</time>
      </trkpt>
      <trkpt lat="43.38016" lon="5.47522">
        <ele>371.65</ele>
        <time>2020-10-25T10:25:59Z</time>
      </trkpt>
      <trkpt lat="43.37998" lon="5.47527">
        <ele>369.63</ele>
        <time>2020-10-25T10:26:02Z</time>
      </trkpt>
      <trkpt lat="43.37979" lon="5.47534">
        <ele>368.61</ele>
        <time>2020-10-25T10:26:05Z</time>
      </trkpt>
      <trkpt lat="43.37955" lon="5.47537">
        <ele>367.79</ele>
        <time>2020-10-25T10:26:09Z</time>
      </trkpt>
      <trkpt lat="43.37937" lon="5.4754">
        <ele>366.45</ele>
        <time>2020-10-25T10:26:12Z</time>
      </trkpt>
      <trkpt lat="43.37913" lon="5.47538">
        <ele>366.11</ele>
        <time>2020-10-25T10:26:16Z</time>
      </trkpt>
      <trkpt lat="43.37891" lon="5.47535">
        <ele>365.74</ele>
        <time>2020-10-25T10:26:20Z</time>
      </trkpt>
      <trkpt lat="43.3787" lon="5.47533">
        <ele>364.1</ele>
        <time>2020-10-25T10:26:24Z</time>
      </trkpt>
      <trkpt lat="43.3785" lon="5.47534">
        <ele>363.6</ele>
        <time>2020-10-25T10:26:28Z</time>
      </trkpt>
      <trkpt lat="43.37832" lon="5.47533">
        <ele>363.62</ele>
        <time>2020-10-25T10:26:32Z</time>
      </trkpt>
      <trkpt lat="43.37812" lon="5.47531">
        <ele>362.65</ele>
        <time>2020-10-25T10:26:36Z</time>
      </trkpt>
      <trkpt lat="43.37792" lon="5.47534">
        <ele>361.72</ele>
        <time>2020-10-25T10:26:40Z</time>
      </trkpt>
      <trkpt lat="43.37771" lon="5.47534">
        <ele>359.67</ele>
        <time>2020-10-25T10:26:44Z</time>
      </trkpt>
      <trkpt lat="43.3775" lon="5.47528">
        <ele>358.92</ele>
        <time>2020-10-25T10:26:48Z</time>
      </trkpt>
      <trkpt lat="43.37729" lon="5.47526">
        <ele>358.04</ele>
        <time>2020-10-25T10:26:52Z</time>
      </trkpt>
      <trkpt lat="43.37705" lon="5.47522">
        <ele>357.26</ele>
        <time>2020-10-25T10:26:56Z</time>
      </trkpt>
      <trkpt lat="43.37683" lon="5.47515">
        <ele>354.97</ele>
        <time>2020-10-25T10:27:00Z</time>
      </trkpt>
      <trkpt lat="43.3766" lon="5.4751">
        <ele>353.05</ele>
        <time>2020-10-25T10:27:04Z</time>
      </trkpt>
      <trkpt lat="43.37637" lon="5.47505">
        <ele>351.71</ele>
        <time>2020-10-25T10:27:08Z</time>
      </trkpt>
      <trkpt lat="43.37617" lon="5.47494">
        <ele>351.53</ele>
        <time>2020-10-25T10:27:12Z</time>
      </trkpt>
      <trkpt lat="43.37594" lon="5.4749">
        <ele>350.01</ele>
        <time>2020-10-25T10:27:16Z</time>
      </trkpt>
      <trkpt lat="43.37572" lon="5.47489">
        <ele>348.56</ele>
        <time>2020-10-25T10:27:20Z</time>
      </trkpt>
      <trkpt lat="43.3755" lon="5.47488">
        <ele>347.45</ele>
        <time>2020-10-25T10:27:24Z</time>
      </trkpt>
      <trkpt lat="43.37529" lon="5.47482">
        <ele>346.48</ele>
        <time>2020-10-25T10:27:28Z</time>
      </trkpt>
      <trkpt lat="43.37508" lon="5.47477">
        <ele>344.6</ele>
        <time>2020-10-25T10:27:32Z</time>
      </trkpt>
      <trkpt lat="43.37487" lon="5.47469">
        <ele>345.11</ele>
        <time>2020-10-25T10:27:36Z</time>
      </trkpt>
      <trkpt lat="43.37466" lon="5.47461">
        <ele>343.67</ele>
        <time>2020-10-25T10:27:40Z</time>
      </trkpt>
      <trkpt lat="43.37444" lon="5.47456">
        <ele>342.22</ele>
        <time>2020-10-25T10:27:44Z</time>
      </trkpt>
      <trkpt lat="43.3742" lon="5.47452">
        <ele>342.36</ele>
        <time>2020-10-25T10:27:48Z</time>
      </trkpt>
      <trkpt lat="43.37397" lon="5.47449">
        <ele>341.59</ele>
        <time>2020-10-25T10:27:52Z</time>
      </trkpt>
      <trkpt lat="43.37378" lon="5.4744">
        <ele>341.27</ele>
        <time>2020-10-25T10:27:56Z</time>
      </trkpt>
      <trkpt lat="43.3736" lon="5.47424">
        <ele>339.73</ele>
        <time>2020-10-25T10:28:00Z</time>
      </trkpt>
      <trkpt lat="43.37342" lon="5.47407">
        <ele>338.99</ele>
        <time>2020-10-25T10:28:04Z</time>
      </trkpt>
      <trkpt lat="43.37324" lon="5.4739">
        <ele>336.41</ele>
        <time>2020-10-25T10:28:08Z</time>
      </trkpt>
      <trkpt lat="43.37305" lon="5.47373">
        <ele>334.4</ele>
        <time>2020-10-25T10:28:12Z</time>
      </trkpt>
      <trkpt lat="43.37284" lon="5.47358">
        <ele>332.87</ele>
        <time>2020-10-25T10:28:16Z</time>
      </trkpt>
      <trkpt lat="43.37263" lon="5.47346">
        <ele>330.67</ele>
        <time>2020-10-25T10:28:20Z</time>
      </trkpt>
      <trkpt lat="43.37244" lon="5.47335">
        <ele>327.55</ele>
        <time>2020-10-25T10:28:23Z</time>
      </trkpt>
      <trkpt lat="43.37225" lon="5.47324">
        <ele>327.54</ele>
        <time>2020-10-25T10:28:27Z</time>
      </trkpt>
      <trkpt lat="43.37208" lon="5.4734">
        <ele>324.27</ele>
        <time>2020-10-25T10:28:33Z</time>
      </trkpt>
      <trkpt lat="43.37203" lon="5.47365">
        <ele>322.85</ele>
        <time>2020-10-25T10:28:36Z</time>
      </trkpt>
      <trkpt lat="43.37193" lon="5.47385">
        <ele>321.55</ele>
        <time>2020-10-25T10:28:39Z</time>
      </trkpt>
      <trkpt lat="43.37172" lon="5.47381">
        <ele>318.41</ele>
        <time>2020-10-25T10:28:42Z</time>
      </trkpt>
      <trkpt lat="43.37153" lon="5.47375">
        <ele>315.97</ele>
        <time>2020-10-25T10:28:45Z</time>
      </trkpt>
      <trkpt lat="43.37134" lon="5.47382">
        <ele>313.83</ele>
        <time>2020-10-25T10:28:48Z</time>
      </trkpt>
      <trkpt lat="43.37115" lon="5.47384">
        <ele>312.25</ele>
        <time>2020-10-25T10:28:51Z</time>
      </trkpt>
      <trkpt lat="43.37095" lon="5.47379">
        <ele>310.55</ele>
        <time>2020-10-25T10:28:54Z</time>
      </trkpt>
      <trkpt lat="43.3708" lon="5.47363">
        <ele>308.19</ele>
        <time>2020-10-25T10:28:57Z</time>
      </trkpt>
      <trkpt lat="43.37069" lon="5.47338">
        <ele>306.65</ele>
        <time>2020-10-25T10:29:01Z</time>
      </trkpt>
      <trkpt lat="43.37048" lon="5.47324">
        <ele>304.63</ele>
        <time>2020-10-25T10:29:05Z</time>
      </trkpt>
      <trkpt lat="43.37028" lon="5.47315">
        <ele>304.71</ele>
        <time>2020-10-25T10:29:09Z</time>
      </trkpt>
      <trkpt lat="43.37005" lon="5.47309">
        <ele>304.22</ele>
        <time>2020-10-25T10:29:13Z</time>
      </trkpt>
      <trkpt lat="43.36989" lon="5.47299">
        <ele>304.89</ele>
        <time>2020-10-25T10:29:17Z</time>
      </trkpt>
      <trkpt lat="43.36971" lon="5.47288">
        <ele>304.97</ele>
        <time>2020-10-25T10:29:21Z</time>
      </trkpt>
      <trkpt lat="43.36952" lon="5.47273">
        <ele>305.84</ele>
        <time>2020-10-25T10:29:26Z</time>
      </trkpt>
      <trkpt lat="43.36936" lon="5.47259">
        <ele>306.15</ele>
        <time>2020-10-25T10:29:30Z</time>
      </trkpt>
      <trkpt lat="43.36917" lon="5.47258">
        <ele>307.02</ele>
        <time>2020-10-25T10:29:34Z</time>
      </trkpt>
      <trkpt lat="43.36899" lon="5.47263">
        <ele>307.79</ele>
        <time>2020-10-25T10:29:38Z</time>
      </trkpt>
      <trkpt lat="43.3688" lon="5.47272">
        <ele>307.18</ele>
        <time>2020-10-25T10:29:42Z</time>
      </trkpt>
      <trkpt lat="43.36861" lon="5.47278">
        <ele>307.09</ele>
        <time>2020-10-25T10:29:46Z</time>
      </trkpt>
      <trkpt lat="43.36842" lon="5.47284">
        <ele>306.8</ele>
        <time>2020-10-25T10:29:50Z</time>
      </trkpt>
      <trkpt lat="43.36821" lon="5.47291">
        <ele>305.3</ele>
        <time>2020-10-25T10:29:55Z</time>
      </trkpt>
      <trkpt lat="43.36814" lon="5.47319">
        <ele>303.99</ele>
        <time>2020-10-25T10:30:00Z</time>
      </trkpt>
      <trkpt lat="43.36807" lon="5.47346">
        <ele>302.4</ele>
        <time>2020-10-25T10:30:04Z</time>
      </trkpt>
      <trkpt lat="43.36797" lon="5.47373">
        <ele>301.54</ele>
        <time>2020-10-25T10:30:08Z</time>
      </trkpt>
      <trkpt lat="43.36785" lon="5.47395">
        <ele>300.51</ele>
        <time>2020-10-25T10:30:12Z</time>
      </trkpt>
      <trkpt lat="43.36772" lon="5.47418">
        <ele>299.26</ele>
        <time>2020-10-25T10:30:17Z</time>
      </trkpt>
      <trkpt lat="43.36755" lon="5.47435">
        <ele>298.17</ele>
        <time>2020-10-25T10:30:22Z</time>
      </trkpt>
      <trkpt lat="43.36735" lon="5.47449">
        <ele>296.98</ele>
        <time>2020-10-25T10:30:27Z</time>
      </trkpt>
      <trkpt lat="43.36716" lon="5.4746">
        <ele>294.29</ele>
        <time>2020-10-25T10:30:32Z</time>
      </trkpt>
      <trkpt lat="43.36704" lon="5.47485">
        <ele>291.99</ele>
        <time>2020-10-25T10:30:37Z</time>
      </trkpt>
      <trkpt lat="43.36687" lon="5.47501">
        <ele>290.08</ele>
        <time>2020-10-25T10:30:42Z</time>
      </trkpt>
      <trkpt lat="43.36667" lon="5.47508">
        <ele>289.1</ele>
        <time>2020-10-25T10:30:47Z</time>
      </trkpt>
      <trkpt lat="43.36645" lon="5.475">
        <ele>287.49</ele>
        <time>2020-10-25T10:30:52Z</time>
      </trkpt>
      <trkpt lat="43.36628" lon="5.47496">
        <ele>284.52</ele>
        <time>2020-10-25T10:30:56Z</time>
      </trkpt>
      <trkpt lat="43.36607" lon="5.47485">
        <ele>282.49</ele>
        <time>2020-10-25T10:31:01Z</time>
      </trkpt>
      <trkpt lat="43.36591" lon="5.4747">
        <ele>280.75</ele>
        <time>2020-10-25T10:31:05Z</time>
      </trkpt>
      <trkpt lat="43.36575" lon="5.47449">
        <ele>279.25</ele>
        <time>2020-10-25T10:31:10Z</time>
      </trkpt>
      <trkpt lat="43.36563" lon="5.47427">
        <ele>278.03</ele>
        <time>2020-10-25T10:31:15Z</time>
      </trkpt>
      <trkpt lat="43.36543" lon="5.47424">
        <ele>278.82</ele>
        <time>2020-10-25T10:31:21Z</time>
      </trkpt>
      <trkpt lat="43.36523" lon="5.47424">
        <ele>279.75</ele>
        <time>2020-10-25T10:31:27Z</time>
      </trkpt>
      <trkpt lat="43.36504" lon="5.47424">
        <ele>279.92</ele>
        <time>2020-10-25T10:31:33Z</time>
      </trkpt>
      <trkpt lat="43.36485" lon="5.47426">
        <ele>279.27</ele>
        <time>2020-10-25T10:31:39Z</time>
      </trkpt>
      <trkpt lat="43.36464" lon="5.47424">
        <ele>279.13</ele>
        <time>2020-10-25T10:31:46Z</time>
      </trkpt>
      <trkpt lat="43.36446" lon="5.47425">
        <ele>277.7</ele>
        <time>2020-10-25T10:31:52Z</time>
      </trkpt>
      <trkpt lat="43.36427" lon="5.47428">
        <ele>277.49</ele>
        <time>2020-10-25T10:31:58Z</time>
      </trkpt>
      <trkpt lat="43.36409" lon="5.47432">
        <ele>276.65</ele>
        <time>2020-10-25T10:32:04Z</time>
      </trkpt>
      <trkpt lat="43.36389" lon="5.47433">
        <ele>274.41</ele>
        <time>2020-10-25T10:32:11Z</time>
      </trkpt>
      <trkpt lat="43.36371" lon="5.47434">
        <ele>273.83</ele>
        <time>2020-10-25T10:32:17Z</time>
      </trkpt>
      <trkpt lat="43.36352" lon="5.47436">
        <ele>272.75</ele>
        <time>2020-10-25T10:32:23Z</time>
      </trkpt>
      <trkpt lat="43.36334" lon="5.47427">
        <ele>272.17</ele>
        <time>2020-10-25T10:32:31Z</time>
      </trkpt>
      <trkpt lat="43.36318" lon="5.47412">
        <ele>270.2</ele>
        <time>2020-10-25T10:32:39Z</time>
      </trkpt>
      <trkpt lat="43.36299" lon="5.47411">
        <ele>268.32</ele>
        <time>2020-10-25T10:32:47Z</time>
      </trkpt>
      <trkpt lat="43.36282" lon="5.47424">
        <ele>266.91</ele>
        <time>2020-10-25T10:32:55Z</time>
      </trkpt>
      <trkpt lat="43.36276" lon="5.47449">
        <ele>264.93</ele>
        <time>2020-10-25T10:33:03Z</time>
      </trkpt>
      <trkpt lat="43.36269" lon="5.47473">
        <ele>259.98</ele>
        <time>2020-10-25T10:33:11Z</time>
      </trkpt>
      <trkpt lat="43.36262" lon="5.47498">
        <ele>256.74</ele>
        <time>2020-10-25T10:33:19Z</time>
      </trkpt>
      <trkpt lat="43.36257" lon="5.47524">
        <ele>252.59</ele>
        <time>2020-10-25T10:33:27Z</time>
      </trkpt>
      <trkpt lat="43.3624" lon="5.47539">
        <ele>248.26</ele>
        <time>2020-10-25T10:33:37Z</time>
      </trkpt>
      <trkpt lat="43.36222" lon="5.47531">
        <ele>244.22</ele>
        <time>2020-10-25T10:33:48Z</time>
      </trkpt>
      <trkpt lat="43.36211" lon="5.47509">
        <ele>240.96</ele>
        <time>2020-10-25T10:33:55Z</time>
      </trkpt>
      <trkpt lat="43.36205" lon="5.47483">
        <ele>236.29</ele>
        <time>2020-10-25T10:34:03Z</time>
      </trkpt>
      <trkpt lat="43.36192" lon="5.47461">
        <ele>232.05</ele>
        <time>2020-10-25T10:34:10Z</time>
      </trkpt>
      <trkpt lat="43.36178" lon="5.47445">
        <ele>229.61</ele>
        <time>2020-10-25T10:34:15Z</time>
      </trkpt>
      <trkpt lat="43.36159" lon="5.4744">
        <ele>226.84</ele>
        <time>2020-10-25T10:34:21Z</time>
      </trkpt>
      <trkpt lat="43.36138" lon="5.47435">
        <ele>224.62</ele>
        <time>2020-10-25T10:34:28Z</time>
      </trkpt>
      <trkpt lat="43.3612" lon="5.47425">
        <ele>223.75</ele>
        <time>2020-10-25T10:34:34Z</time>
      </trkpt>
      <trkpt lat="43.36114" lon="5.474">
        <ele>222.49</ele>
        <time>2020-10-25T10:34:42Z</time>
      </trkpt>
      <trkpt lat="43.36115" lon="5.47376">
        <ele>218.4</ele>
        <time>2020-10-25T10:34:51Z</time>
      </trkpt>
      <trkpt lat="43.36123" lon="5.4735">
        <ele>215.89</ele>
        <time>2020-10-25T10:34:58Z</time>
      </trkpt>
      <trkpt lat="43.36115" lon="5.47323">
        <ele>214.54</ele>
        <time>2020-10-25T10:35:03Z</time>
      </trkpt>
      <trkpt lat="43.36103" lon="5.47299">
        <ele>214.38</ele>
        <time>2020-10-25T10:35:08Z</time>
      </trkpt>
      <trkpt lat="43.36091" lon="5.47279">
        <ele>214.25</ele>
        <time>2020-10-25T10:35:13Z</time>
      </trkpt>
      <trkpt lat="43.36078" lon="5.47256">
        <ele>214.04</ele>
        <time>2020-10-25T10:35:20Z</time>
      </trkpt>
      <trkpt lat="43.36057" lon="5.4726">
        <ele>209.26</ele>
        <time>2020-10-25T10:35:26Z</time>
      </trkpt>
      <trkpt lat="43.36038" lon="5.47271">
        <ele>205.6</ele>
        <time>2020-10-25T10:35:30Z</time>
      </trkpt>
      <trkpt lat="43.36022" lon="5.4728">
        <ele>202.89</ele>
        <time>2020-10-25T10:35:33Z</time>
      </trkpt>
      <trkpt lat="43.36004" lon="5.4729">
        <ele>200.49</ele>
        <time>2020-10-25T10:35:36Z</time>
      </trkpt>
      <trkpt lat="43.35986" lon="5.47299">
        <ele>197.17</ele>
        <time>2020-10-25T10:35:39Z</time>
      </trkpt>
      <trkpt lat="43.35968" lon="5.47309">
        <ele>194.3</ele>
        <time>2020-10-25T10:35:42Z</time>
      </trkpt>
      <trkpt lat="43.3595" lon="5.47315">
        <ele>191.83</ele>
        <time>2020-10-25T10:35:45Z</time>
      </trkpt>
      <trkpt lat="43.35932" lon="5.47322">
        <ele>189.11</ele>
        <time>2020-10-25T10:35:49Z</time>
      </trkpt>
      <trkpt lat="43.35927" lon="5.47298">
        <ele>189.36</ele>
        <time>2020-10-25T10:35:56Z</time>
      </trkpt>
      <trkpt lat="43.35928" lon="5.4727">
        <ele>190.74</ele>
        <time>2020-10-25T10:36:03Z</time>
      </trkpt>
      <trkpt lat="43.35927" lon="5.47244">
        <ele>191.97</ele>
        <time>2020-10-25T10:36:13Z</time>
      </trkpt>
      <trkpt lat="43.35927" lon="5.47216">
        <ele>192.7</ele>
        <time>2020-10-25T10:36:20Z</time>
      </trkpt>
      <trkpt lat="43.35928" lon="5.47184">
        <ele>191.72</ele>
        <time>2020-10-25T10:36:25Z</time>
      </trkpt>
      <trkpt lat="43.35928" lon="5.47159">
        <ele>190.63</ele>
        <time>2020-10-25T10:36:28Z</time>
      </trkpt>
      <trkpt lat="43.3594" lon="5.47136">
        <ele>189.48</ele>
        <time>2020-10-25T10:36:31Z</time>
      </trkpt>
      <trkpt lat="43.35948" lon="5.47109">
        <ele>189.14</ele>
        <time>2020-10-25T10:36:34Z</time>
      </trkpt>
      <trkpt lat="43.35949" lon="5.4708">
        <ele>188.46</ele>
        <time>2020-10-25T10:36:37Z</time>
      </trkpt>
      <trkpt lat="43.35953" lon="5.47051">
        <ele>187.71</ele>
        <time>2020-10-25T10:36:40Z</time>
      </trkpt>
      <trkpt lat="43.35953" lon="5.47024">
        <ele>188.31</ele>
        <time>2020-10-25T10:36:43Z</time>
      </trkpt>
      <trkpt lat="43.35954" lon="5.46993">
        <ele>188.68</ele>
        <time>2020-10-25T10:36:47Z</time>
      </trkpt>
      <trkpt lat="43.35954" lon="5.46966">
        <ele>190.4</ele>
        <time>2020-10-25T10:36:51Z</time>
      </trkpt>
      <trkpt lat="43.35957" lon="5.46937">
        <ele>191.95</ele>
        <time>2020-10-25T10:36:56Z</time>
      </trkpt>
      <trkpt lat="43.35959" lon="5.46909">
        <ele>190.98</ele>
        <time>2020-10-25T10:37:00Z</time>
      </trkpt>
      <trkpt lat="43.35961" lon="5.46884">
        <ele>189.26</ele>
        <time>2020-10-25T10:37:03Z</time>
      </trkpt>
      <trkpt lat="43.35963" lon="5.46853">
        <ele>186.87</ele>
        <time>2020-10-25T10:37:06Z</time>
      </trkpt>
      <trkpt lat="43.35966" lon="5.4682">
        <ele>185.23</ele>
        <time>2020-10-25T10:37:09Z</time>
      </trkpt>
      <trkpt lat="43.35968" lon="5.46787">
        <ele>184.05</ele>
        <time>2020-10-25T10:37:12Z</time>
      </trkpt>
      <trkpt lat="43.3597" lon="5.46754">
        <ele>182.59</ele>
        <time>2020-10-25T10:37:15Z</time>
      </trkpt>
      <trkpt lat="43.35973" lon="5.46726">
        <ele>182.25</ele>
        <time>2020-10-25T10:37:18Z</time>
      </trkpt>
      <trkpt lat="43.35972" lon="5.46699">
        <ele>182.38</ele>
        <time>2020-10-25T10:37:22Z</time>
      </trkpt>
      <trkpt lat="43.35957" lon="5.46682">
        <ele>181.13</ele>
        <time>2020-10-25T10:37:28Z</time>
      </trkpt>
      <trkpt lat="43.35938" lon="5.46676">
        <ele>179.38</ele>
        <time>2020-10-25T10:37:31Z</time>
      </trkpt>
      <trkpt lat="43.35919" lon="5.46668">
        <ele>178.44</ele>
        <time>2020-10-25T10:37:34Z</time>
      </trkpt>
      <trkpt lat="43.35901" lon="5.46659">
        <ele>177.35</ele>
        <time>2020-10-25T10:37:37Z</time>
      </trkpt>
      <trkpt lat="43.35903" lon="5.4663">
        <ele>176.74</ele>
        <time>2020-10-25T10:37:41Z</time>
      </trkpt>
      <trkpt lat="43.35914" lon="5.46604">
        <ele>177.92</ele>
        <time>2020-10-25T10:37:45Z</time>
      </trkpt>
      <trkpt lat="43.35926" lon="5.46579">
        <ele>179.35</ele>
        <time>2020-10-25T10:37:49Z</time>
      </trkpt>
      <trkpt lat="43.35941" lon="5.46559">
        <ele>180.82</ele>
        <time>2020-10-25T10:37:53Z</time>
      </trkpt>
      <trkpt lat="43.35956" lon="5.46539">
        <ele>182.04</ele>
        <time>2020-10-25T10:37:57Z</time>
      </trkpt>
      <trkpt lat="43.35971" lon="5.46521">
        <ele>183.49</ele>
        <time>2020-10-25T10:38:01Z</time>
      </trkpt>
      <trkpt lat="43.35986" lon="5.46501">
        <ele>185.02</ele>
        <time>2020-10-25T10:38:05Z</time>
      </trkpt>
      <trkpt lat="43.35999" lon="5.46483">
        <ele>186.72</ele>
        <time>2020-10-25T10:38:09Z</time>
      </trkpt>
      <trkpt lat="43.36013" lon="5.46464">
        <ele>188.23</ele>
        <time>2020-10-25T10:38:13Z</time>
      </trkpt>
      <trkpt lat="43.36031" lon="5.46443">
        <ele>188.76</ele>
        <time>2020-10-25T10:38:17Z</time>
      </trkpt>
      <trkpt lat="43.36048" lon="5.46422">
        <ele>188.5</ele>
        <time>2020-10-25T10:38:21Z</time>
      </trkpt>
      <trkpt lat="43.36065" lon="5.46401">
        <ele>187.96</ele>
        <time>2020-10-25T10:38:25Z</time>
      </trkpt>
      <trkpt lat="43.36082" lon="5.46381">
        <ele>188.34</ele>
        <time>2020-10-25T10:38:29Z</time>
      </trkpt>
      <trkpt lat="43.36092" lon="5.46354">
        <ele>187.4</ele>
        <time>2020-10-25T10:38:34Z</time>
      </trkpt>
      <trkpt lat="43.36078" lon="5.46332">
        <ele>185.84</ele>
        <time>2020-10-25T10:38:37Z</time>
      </trkpt>
      <trkpt lat="43.36064" lon="5.46312">
        <ele>186.07</ele>
        <time>2020-10-25T10:38:40Z</time>
      </trkpt>
      <trkpt lat="43.3605" lon="5.46291">
        <ele>185.11</ele>
        <time>2020-10-25T10:38:43Z</time>
      </trkpt>
      <trkpt lat="43.36035" lon="5.46269">
        <ele>184.04</ele>
        <time>2020-10-25T10:38:46Z</time>
      </trkpt>
      <trkpt lat="43.36022" lon="5.46244">
        <ele>183.3</ele>
        <time>2020-10-25T10:38:49Z</time>
      </trkpt>
      <trkpt lat="43.36008" lon="5.46218">
        <ele>182.2</ele>
        <time>2020-10-25T10:38:52Z</time>
      </trkpt>
      <trkpt lat="43.35995" lon="5.46192">
        <ele>181.33</ele>
        <time>2020-10-25T10:38:55Z</time>
      </trkpt>
      <trkpt lat="43.35982" lon="5.46169">
        <ele>180.5</ele>
        <time>2020-10-25T10:38:58Z</time>
      </trkpt>
      <trkpt lat="43.35968" lon="5.46145">
        <ele>179.85</ele>
        <time>2020-10-25T10:39:01Z</time>
      </trkpt>
      <trkpt lat="43.35958" lon="5.46125">
        <ele>179.61</ele>
        <time>2020-10-25T10:39:04Z</time>
      </trkpt>
      <trkpt lat="43.35946" lon="5.46101">
        <ele>178.95</ele>
        <time>2020-10-25T10:39:07Z</time>
      </trkpt>
      <trkpt lat="43.35932" lon="5.46079">
        <ele>177.63</ele>
        <time>2020-10-25T10:39:10Z</time>
      </trkpt>
      <trkpt lat="43.35919" lon="5.46058">
        <ele>177.22</ele>
        <time>2020-10-25T10:39:13Z</time>
      </trkpt>
      <trkpt lat="43.35906" lon="5.46041">
        <ele>176.9</ele>
        <time>2020-10-25T10:39:16Z</time>
      </trkpt>
      <trkpt lat="43.35892" lon="5.46025">
        <ele>175.86</ele>
        <time>2020-10-25T10:39:45Z</time>
      </trkpt>
      <trkpt lat="43.35875" lon="5.46007">
        <ele>175.36</ele>
        <time>2020-10-25T10:39:52Z</time>
      </trkpt>
      <trkpt lat="43.35857" lon="5.45995">
        <ele>174.78</ele>
        <time>2020-10-25T10:39:56Z</time>
      </trkpt>
      <trkpt lat="43.35837" lon="5.4598">
        <ele>173.98</ele>
        <time>2020-10-25T10:40:00Z</time>
      </trkpt>
      <trkpt lat="43.35821" lon="5.45965">
        <ele>173.6</ele>
        <time>2020-10-25T10:40:03Z</time>
      </trkpt>
      <trkpt lat="43.3581" lon="5.45941">
        <ele>173.19</ele>
        <time>2020-10-25T10:40:06Z</time>
      </trkpt>
      <trkpt lat="43.35798" lon="5.45918">
        <ele>172.65</ele>
        <time>2020-10-25T10:40:09Z</time>
      </trkpt>
      <trkpt lat="43.35785" lon="5.45897">
        <ele>172.08</ele>
        <time>2020-10-25T10:40:12Z</time>
      </trkpt>
      <trkpt lat="43.35772" lon="5.45877">
        <ele>171.7</ele>
        <time>2020-10-25T10:40:15Z</time>
      </trkpt>
      <trkpt lat="43.35757" lon="5.45863">
        <ele>171.43</ele>
        <time>2020-10-25T10:40:18Z</time>
      </trkpt>
      <trkpt lat="43.35738" lon="5.45861">
        <ele>170.46</ele>
        <time>2020-10-25T10:40:21Z</time>
      </trkpt>
      <trkpt lat="43.35716" lon="5.4586">
        <ele>170.07</ele>
        <time>2020-10-25T10:40:24Z</time>
      </trkpt>
      <trkpt lat="43.35698" lon="5.45848">
        <ele>168.9</ele>
        <time>2020-10-25T10:40:27Z</time>
      </trkpt>
      <trkpt lat="43.35681" lon="5.45833">
        <ele>168.86</ele>
        <time>2020-10-25T10:40:30Z</time>
      </trkpt>
      <trkpt lat="43.35667" lon="5.45815">
        <ele>168.19</ele>
        <time>2020-10-25T10:40:33Z</time>
      </trkpt>
      <trkpt lat="43.35655" lon="5.45792">
        <ele>167.64</ele>
        <time>2020-10-25T10:40:36Z</time>
      </trkpt>
      <trkpt lat="43.35643" lon="5.4577">
        <ele>167.23</ele>
        <time>2020-10-25T10:40:39Z</time>
      </trkpt>
      <trkpt lat="43.35631" lon="5.45749">
        <ele>166.78</ele>
        <time>2020-10-25T10:40:42Z</time>
      </trkpt>
      <trkpt lat="43.35614" lon="5.45735">
        <ele>166.47</ele>
        <time>2020-10-25T10:40:45Z</time>
      </trkpt>
      <trkpt lat="43.35596" lon="5.45731">
        <ele>166.73</ele>
        <time>2020-10-25T10:40:48Z</time>
      </trkpt>
      <trkpt lat="43.35574" lon="5.45722">
        <ele>168.08</ele>
        <time>2020-10-25T10:40:52Z</time>
      </trkpt>
      <trkpt lat="43.35554" lon="5.45707">
        <ele>169.14</ele>
        <time>2020-10-25T10:40:56Z</time>
      </trkpt>
      <trkpt lat="43.35534" lon="5.45689">
        <ele>169.46</ele>
        <time>2020-10-25T10:41:00Z</time>
      </trkpt>
      <trkpt lat="43.3552" lon="5.45673">
        <ele>168.91</ele>
        <time>2020-10-25T10:41:03Z</time>
      </trkpt>
      <trkpt lat="43.35505" lon="5.45658">
        <ele>168.57</ele>
        <time>2020-10-25T10:41:06Z</time>
      </trkpt>
      <trkpt lat="43.35492" lon="5.45639">
        <ele>168.33</ele>
        <time>2020-10-25T10:41:09Z</time>
      </trkpt>
      <trkpt lat="43.35479" lon="5.45622">
        <ele>168.17</ele>
        <time>2020-10-25T10:41:12Z</time>
      </trkpt>
      <trkpt lat="43.35464" lon="5.45599">
        <ele>168.65</ele>
        <time>2020-10-25T10:41:16Z</time>
      </trkpt>
      <trkpt lat="43.35456" lon="5.45572">
        <ele>169.31</ele>
        <time>2020-10-25T10:41:20Z</time>
      </trkpt>
      <trkpt lat="43.35446" lon="5.45544">
        <ele>169.44</ele>
        <time>2020-10-25T10:41:24Z</time>
      </trkpt>
      <trkpt lat="43.35428" lon="5.45524">
        <ele>168.83</ele>
        <time>2020-10-25T10:41:28Z</time>
      </trkpt>
      <trkpt lat="43.35411" lon="5.4551">
        <ele>168.41</ele>
        <time>2020-10-25T10:41:31Z</time>
      </trkpt>
      <trkpt lat="43.35393" lon="5.45501">
        <ele>167.89</ele>
        <time>2020-10-25T10:41:34Z</time>
      </trkpt>
      <trkpt lat="43.35372" lon="5.45498">
        <ele>167.04</ele>
        <time>2020-10-25T10:41:37Z</time>
      </trkpt>
      <trkpt lat="43.35354" lon="5.45492">
        <ele>166.26</ele>
        <time>2020-10-25T10:41:40Z</time>
      </trkpt>
      <trkpt lat="43.35338" lon="5.45479">
        <ele>164.92</ele>
        <time>2020-10-25T10:41:44Z</time>
      </trkpt>
      <trkpt lat="43.35327" lon="5.45458">
        <ele>163.85</ele>
        <time>2020-10-25T10:42:06Z</time>
      </trkpt>
      <trkpt lat="43.35312" lon="5.45443">
        <ele>165.35</ele>
        <time>2020-10-25T10:42:11Z</time>
      </trkpt>
      <trkpt lat="43.35297" lon="5.45426">
        <ele>165.24</ele>
        <time>2020-10-25T10:42:15Z</time>
      </trkpt>
      <trkpt lat="43.35281" lon="5.45407">
        <ele>164.55</ele>
        <time>2020-10-25T10:42:19Z</time>
      </trkpt>
      <trkpt lat="43.35268" lon="5.45384">
        <ele>163.57</ele>
        <time>2020-10-25T10:42:23Z</time>
      </trkpt>
      <trkpt lat="43.35255" lon="5.45361">
        <ele>162.5</ele>
        <time>2020-10-25T10:42:27Z</time>
      </trkpt>
      <trkpt lat="43.3524" lon="5.45343">
        <ele>162.01</ele>
        <time>2020-10-25T10:42:31Z</time>
      </trkpt>
      <trkpt lat="43.35222" lon="5.45325">
        <ele>162.11</ele>
        <time>2020-10-25T10:42:35Z</time>
      </trkpt>
      <trkpt lat="43.35207" lon="5.4531">
        <ele>161.4</ele>
        <time>2020-10-25T10:42:38Z</time>
      </trkpt>
      <trkpt lat="43.352" lon="5.45286">
        <ele>160.86</ele>
        <time>2020-10-25T10:42:41Z</time>
      </trkpt>
      <trkpt lat="43.35194" lon="5.45261">
        <ele>160.28</ele>
        <time>2020-10-25T10:42:44Z</time>
      </trkpt>
      <trkpt lat="43.35185" lon="5.45232">
        <ele>158.46</ele>
        <time>2020-10-25T10:42:48Z</time>
      </trkpt>
      <trkpt lat="43.35171" lon="5.45209">
        <ele>158.38</ele>
        <time>2020-10-25T10:42:52Z</time>
      </trkpt>
      <trkpt lat="43.35159" lon="5.4519">
        <ele>158.36</ele>
        <time>2020-10-25T10:49:54Z</time>
      </trkpt>
      <trkpt lat="43.35176" lon="5.45182">
        <ele>157.95</ele>
        <time>2020-10-25T10:53:31Z</time>
      </trkpt>
      <trkpt lat="43.35196" lon="5.45158">
        <ele>155.2</ele>
        <time>2020-10-25T10:53:34Z</time>
      </trkpt>
      <trkpt lat="43.35208" lon="5.45139">
        <ele>153.71</ele>
        <time>2020-10-25T10:53:36Z</time>
      </trkpt>
      <trkpt lat="43.3522" lon="5.45119">
        <ele>153.28</ele>
        <time>2020-10-25T10:53:38Z</time>
      </trkpt>
      <trkpt lat="43.35232" lon="5.451">
        <ele>152.84</ele>
        <time>2020-10-25T10:53:40Z</time>
      </trkpt>
      <trkpt lat="43.35247" lon="5.45075">
        <ele>153.49</ele>
        <time>2020-10-25T10:53:43Z</time>
      </trkpt>
      <trkpt lat="43.35257" lon="5.4505">
        <ele>153.69</ele>
        <time>2020-10-25T10:53:46Z</time>
      </trkpt>
      <trkpt lat="43.35264" lon="5.45026">
        <ele>153.67</ele>
        <time>2020-10-25T10:53:49Z</time>
      </trkpt>
      <trkpt lat="43.35275" lon="5.45005">
        <ele>154.08</ele>
        <time>2020-10-25T10:53:52Z</time>
      </trkpt>
      <trkpt lat="43.35294" lon="5.44993">
        <ele>154.09</ele>
        <time>2020-10-25T10:53:56Z</time>
      </trkpt>
      <trkpt lat="43.35311" lon="5.44983">
        <ele>154.9</ele>
        <time>2020-10-25T10:53:59Z</time>
      </trkpt>
      <trkpt lat="43.35332" lon="5.4497">
        <ele>156.55</ele>
        <time>2020-10-25T10:54:03Z</time>
      </trkpt>
      <trkpt lat="43.35352" lon="5.44954">
        <ele>157.41</ele>
        <time>2020-10-25T10:54:07Z</time>
      </trkpt>
      <trkpt lat="43.3537" lon="5.44937">
        <ele>157.34</ele>
        <time>2020-10-25T10:54:11Z</time>
      </trkpt>
      <trkpt lat="43.35387" lon="5.44925">
        <ele>156.9</ele>
        <time>2020-10-25T10:54:15Z</time>
      </trkpt>
      <trkpt lat="43.35381" lon="5.44893">
        <ele>156.26</ele>
        <time>2020-10-25T10:54:19Z</time>
      </trkpt>
      <trkpt lat="43.3537" lon="5.44871">
        <ele>157.09</ele>
        <time>2020-10-25T10:54:22Z</time>
      </trkpt>
      <trkpt lat="43.35355" lon="5.44844">
        <ele>157.81</ele>
        <time>2020-10-25T10:54:26Z</time>
      </trkpt>
      <trkpt lat="43.35346" lon="5.44823">
        <ele>158.9</ele>
        <time>2020-10-25T10:54:29Z</time>
      </trkpt>
      <trkpt lat="43.35337" lon="5.44794">
        <ele>160.24</ele>
        <time>2020-10-25T10:54:33Z</time>
      </trkpt>
      <trkpt lat="43.3533" lon="5.44771">
        <ele>159.98</ele>
        <time>2020-10-25T10:54:36Z</time>
      </trkpt>
      <trkpt lat="43.35322" lon="5.44747">
        <ele>159.43</ele>
        <time>2020-10-25T10:54:39Z</time>
      </trkpt>
      <trkpt lat="43.35314" lon="5.44723">
        <ele>158.87</ele>
        <time>2020-10-25T10:54:42Z</time>
      </trkpt>
      <trkpt lat="43.35305" lon="5.44698">
        <ele>158.31</ele>
        <time>2020-10-25T10:54:45Z</time>
      </trkpt>
      <trkpt lat="43.35295" lon="5.44675">
        <ele>157.74</ele>
        <time>2020-10-25T10:54:48Z</time>
      </trkpt>
      <trkpt lat="43.35284" lon="5.44649">
        <ele>157.09</ele>
        <time>2020-10-25T10:54:51Z</time>
      </trkpt>
      <trkpt lat="43.35271" lon="5.44623">
        <ele>156.04</ele>
        <time>2020-10-25T10:54:54Z</time>
      </trkpt>
      <trkpt lat="43.3526" lon="5.44596">
        <ele>155.14</ele>
        <time>2020-10-25T10:54:57Z</time>
      </trkpt>
      <trkpt lat="43.35249" lon="5.44569">
        <ele>154.26</ele>
        <time>2020-10-25T10:55:00Z</time>
      </trkpt>
      <trkpt lat="43.35248" lon="5.44538">
        <ele>153.16</ele>
        <time>2020-10-25T10:55:03Z</time>
      </trkpt>
      <trkpt lat="43.35245" lon="5.44508">
        <ele>152.36</ele>
        <time>2020-10-25T10:55:06Z</time>
      </trkpt>
      <trkpt lat="43.35239" lon="5.4448">
        <ele>151.6</ele>
        <time>2020-10-25T10:55:09Z</time>
      </trkpt>
      <trkpt lat="43.35232" lon="5.44452">
        <ele>150.06</ele>
        <time>2020-10-25T10:55:12Z</time>
      </trkpt>
      <trkpt lat="43.35225" lon="5.44429">
        <ele>148.88</ele>
        <time>2020-10-25T10:55:15Z</time>
      </trkpt>
      <trkpt lat="43.35204" lon="5.44435">
        <ele>147.34</ele>
        <time>2020-10-25T10:55:21Z</time>
      </trkpt>
      <trkpt lat="43.35184" lon="5.44446">
        <ele>147</ele>
        <time>2020-10-25T10:55:25Z</time>
      </trkpt>
      <trkpt lat="43.35168" lon="5.44458">
        <ele>147.12</ele>
        <time>2020-10-25T10:55:30Z</time>
      </trkpt>
      <trkpt lat="43.3516" lon="5.44433">
        <ele>145.89</ele>
        <time>2020-10-25T10:56:00Z</time>
      </trkpt>
    </trkseg>
  </trk>
</gpx>